GFSGBSN_sfc_temp_000.txt.gz
Temp
67 67 67 67 66 66 66 66 65 64 64 64 64 64 64 64 64 64 64 64 64 64 64 64 64 64 62 55 58 71 70 72 72 69 64 63 60 60 55 60 64 61 65 70 71 71 71
66 66 66 66 66 66 66 66 65 64 64 64 64 64 64 64 63 63 63 63 64 64 64 64 64 63 57 48 73 76 72 72 72 69 64 65 63 65 60 60 58 65 66 66 69 70 71
66 66 66 66 66 65 65 65 64 64 64 64 64 64 63 63 63 63 63 63 63 64 64 63 63 63 56 55 73 74 74 71 71 69 64 68 67 61 64 58 65 64 55 64 65 68 68
66 65 66 66 66 65 65 64 64 64 64 64 64 63 63 63 63 63 62 62 63 63 63 62 63 61 50 69 71 70 71 68 71 71 68 70 69 63 59 62 57 54 54 46 61 67 68
66 65 65 65 65 65 65 64 64 63 64 64 63 63 63 62 62 62 61 61 62 62 63 62 59 56 49 67 61 67 69 63 67 69 68 70 65 57 57 49 45 50 44 46 52 66 66
63 65 65 65 65 65 65 65 64 64 63 63 63 62 62 62 62 61 60 60 60 60 60 63 61 49 55 54 62 64 68 67 61 61 60 58 54 49 49 45 36 42 43 49 49 59 64
63 63 64 64 64 64 65 65 64 64 63 62 62 61 61 61 61 60 59 57 50 47 52 49 51 53 57 63 66 61 65 61 59 55 45 53 44 39 44 48 49 51 50 49 55 62 60
62 61 63 63 64 64 64 64 64 63 63 62 61 61 61 61 61 60 59 51 53 52 43 52 56 55 61 62 53 57 65 52 50 42 48 45 39 48 53 52 50 49 46 46 56 62 60
61 61 60 61 63 63 64 64 64 63 62 61 61 60 60 60 60 57 55 55 58 56 42 46 51 52 55 57 51 53 58 54 48 43 44 40 45 52 51 49 47 48 45 46 49 59 57
60 61 60 59 60 63 63 63 63 63 62 60 60 60 59 59 54 58 52 60 58 55 34 39 42 49 54 51 44 59 62 54 48 42 45 44 51 50 48 46 49 42 53 52 49 50 42
59 60 60 59 58 59 62 63 63 62 61 60 60 59 59 59 57 53 55 56 54 50 25 43 44 58 54 44 49 50 60 54 44 45 46 39 45 45 45 46 52 46 54 51 48 45 43
58 58 59 58 57 57 59 62 62 62 60 59 59 59 58 56 56 56 56 56 51 33 25 39 44 41 42 44 46 50 51 55 54 45 47 45 53 50 48 51 50 55 49 47 46 43 37
57 58 57 58 56 55 56 61 62 61 60 59 58 58 57 62 52 57 55 48 33 28 44 36 38 42 42 40 41 42 43 41 37 32 33 37 40 48 45 40 49 49 44 34 33 32 35
57 57 57 57 55 55 56 59 62 61 60 58 58 57 57 60 58 56 51 39 29 43 40 42 40 40 36 40 39 40 41 37 43 40 34 31 31 41 46 40 43 43 42 34 31 31 38
56 56 56 55 54 54 55 59 61 61 59 58 57 54 53 57 57 55 44 31 36 42 45 39 38 35 35 38 40 39 40 37 43 44 32 33 33 48 49 48 47 41 35 43 38 49 40
56 56 55 55 54 53 55 58 61 60 58 57 52 50 51 58 56 50 39 35 40 47 43 41 35 39 34 36 37 40 40 47 44 48 47 37 32 45 47 48 49 45 50 37 42 36 34
55 56 55 55 54 53 55 56 60 59 58 57 50 45 55 57 53 44 35 37 43 49 46 40 41 42 44 38 40 41 42 48 50 49 44 40 36 37 42 41 42 43 41 44 46 45 39
55 55 55 54 53 53 55 55 56 59 57 55 48 41 55 55 41 42 37 43 45 46 49 45 45 46 47 46 42 42 41 46 55 53 42 41 36 33 37 47 50 49 47 47 44 39 43
55 55 54 53 53 54 54 54 56 59 56 51 45 47 53 53 37 38 43 43 44 44 46 45 46 52 54 49 42 46 46 55 56 48 42 42 35 32 33 41 47 43 48 51 50 49 41
55 55 54 53 53 53 54 54 57 58 58 54 46 41 46 46 47 43 40 40 39 46 44 48 49 53 51 48 51 43 47 53 55 53 50 48 41 34 35 41 45 43 46 48 48 42 43
54 55 54 54 53 53 53 54 56 57 57 52 46 44 48 39 41 42 44 43 40 39 47 48 48 49 48 44 46 46 47 52 54 54 49 43 38 43 51 51 51 49 49 50 47 48 41
54 54 54 54 53 52 53 53 53 57 55 49 43 44 49 47 48 44 42 41 40 42 43 45 45 49 49 46 48 45 49 49 47 51 50 49 40 46 47 52 52 48 51 50 50 50 50
54 54 54 54 53 53 53 52 53 56 55 48 49 51 48 49 47 43 43 43 44 45 45 48 48 48 47 52 56 59 57 57 54 50 47 46 43 43 38 46 48 41 48 50 50 52 51
53 54 54 53 53 53 52 52 53 55 56 52 50 49 44 41 47 48 50 50 45 45 43 48 51 47 54 59 58 55 54 52 52 53 55 44 42 44 37 41 29 45 51 54 53 54 55
53 53 53 53 53 53 52 52 53 53 55 51 50 48 45 41 48 49 51 48 46 45 44 46 50 54 53 54 47 42 42 43 43 45 45 52 46 38 34 34 43 47 49 48 48 49 56
53 53 53 53 53 53 52 52 53 53 56 52 50 50 46 42 43 52 48 47 42 41 41 43 48 51 49 48 45 36 34 38 35 38 46 49 49 41 35 32 31 43 49 55 54 40 51
53 53 53 53 52 52 52 51 52 53 55 52 50 52 47 42 49 51 46 44 46 43 40 42 43 45 47 44 42 37 36 43 35 35 37 40 40 37 37 35 39 50 51 52 40 41 51
52 52 52 52 52 52 52 52 52 53 55 53 49 52 48 45 48 51 52 46 44 43 41 44 44 44 42 41 41 40 41 44 39 42 41 40 38 37 37 34 32 52 49 44 47 49 51
52 52 52 52 52 52 52 52 52 53 55 54 47 51 51 46 47 52 53 52 49 47 44 44 45 48 48 44 44 44 40 43 46 37 48 39 44 41 41 42 49 50 47 50 53 51 51

GFSGBSN_sfc_temp_003.txt.gz
Temp
67 67 66 66 66 66 66 66 65 65 65 65 64 64 64 64 64 63 64 63 64 64 64 64 64 63 60 52 52 67 72 72 69 66 61 59 54 53 48 52 55 54 59 64 66 66 67
67 67 66 66 66 66 66 66 65 65 65 65 64 64 64 64 63 63 63 63 63 64 64 63 63 63 54 44 66 68 68 67 68 64 59 59 57 59 54 53 52 57 59 62 66 66 67
64 65 66 66 66 65 65 65 65 64 64 65 64 64 63 63 63 63 63 63 63 64 64 64 63 61 52 50 66 65 70 67 66 64 61 62 61 57 56 51 58 59 54 57 59 65 64
64 65 63 66 65 65 65 64 64 64 64 64 64 63 63 62 62 62 62 62 62 63 63 63 63 57 46 65 65 65 65 64 65 66 64 65 67 58 55 57 53 51 52 45 56 60 64
64 64 63 62 65 65 65 64 64 64 64 64 64 63 63 62 62 61 61 61 62 62 62 62 56 51 45 66 58 62 63 61 62 63 63 69 60 55 52 44 43 43 41 42 48 59 60
63 63 63 63 63 64 65 65 65 64 64 63 63 62 62 62 61 61 60 60 60 60 60 61 59 48 52 52 59 62 63 63 58 57 57 55 50 43 42 42 35 41 39 45 43 53 58
62 62 63 62 61 63 64 64 64 64 64 63 62 61 61 61 61 60 57 52 46 44 51 45 48 49 56 59 63 58 61 58 57 50 40 48 39 37 40 43 46 44 44 45 49 56 53
61 61 61 62 61 61 62 63 63 64 63 63 62 61 61 61 61 60 55 50 49 49 43 51 52 53 59 61 51 55 61 50 48 41 43 40 36 45 48 48 45 43 40 40 48 54 50
61 60 60 61 61 62 60 63 63 64 63 62 62 60 60 60 60 56 51 53 55 56 42 47 51 50 53 56 49 50 55 51 44 39 40 36 42 50 48 44 43 42 39 41 43 50 53
60 60 60 60 60 61 59 58 61 63 62 62 61 60 60 59 52 52 49 57 56 56 35 41 42 49 53 53 46 58 58 52 45 39 41 39 47 45 45 42 44 37 48 48 47 45 39
59 59 58 59 58 60 59 58 58 61 62 61 60 60 59 59 51 49 52 55 55 51 22 41 44 57 54 46 49 49 60 53 42 41 42 37 41 41 40 43 47 41 50 48 47 44 42
58 58 57 58 58 58 58 58 57 58 61 60 59 59 58 55 52 52 55 56 50 34 21 38 44 42 43 45 48 51 50 54 51 44 44 42 49 46 45 49 51 50 46 46 45 41 33
58 57 56 57 57 57 57 57 57 57 59 59 58 59 57 58 48 55 55 47 34 27 42 36 37 41 41 40 42 45 40 39 36 32 31 38 37 44 45 40 46 44 40 31 27 30 31
57 57 56 57 57 55 56 55 55 55 59 58 58 58 58 59 56 54 49 40 28 38 37 43 41 42 36 42 41 41 37 35 40 37 31 28 24 39 44 41 38 39 39 32 23 28 35
56 56 55 56 56 55 55 55 54 54 59 57 57 54 52 54 56 54 42 31 32 39 44 40 39 35 35 39 39 38 37 35 41 40 29 31 30 44 47 47 46 38 36 45 34 38 36
56 56 56 55 54 55 53 54 55 55 58 57 52 50 50 56 57 50 40 35 38 47 45 43 35 37 35 37 35 34 36 41 41 44 46 38 29 41 45 47 47 46 49 35 35 29 29
57 57 57 55 53 53 53 53 54 55 58 57 51 45 52 56 53 44 34 36 42 50 48 41 38 37 37 36 36 35 37 44 46 46 46 41 34 35 41 39 40 39 38 43 42 37 32
56 56 56 55 54 53 53 53 54 55 55 54 48 42 52 53 41 42 37 42 48 45 49 45 43 42 39 40 37 35 36 44 50 49 40 43 36 31 34 47 48 47 42 46 36 34 36
56 56 56 55 54 52 52 53 55 56 57 51 46 46 52 52 36 37 43 43 46 45 46 45 42 45 47 42 34 40 42 50 51 48 41 42 35 29 32 39 43 42 45 47 47 41 35
55 55 55 55 54 53 53 53 54 54 56 52 46 41 45 47 46 42 40 41 41 47 44 46 45 46 44 43 44 41 43 50 51 51 48 46 38 34 31 37 43 39 44 45 42 35 39
54 55 55 55 54 54 53 53 53 53 57 52 47 43 46 38 40 43 44 43 41 40 44 47 43 43 43 40 41 41 44 46 50 50 46 43 33 32 36 39 42 44 43 41 35 44 43
54 55 54 55 54 54 53 52 52 52 54 50 43 43 47 44 45 41 42 41 41 42 43 43 41 47 46 41 43 40 45 44 44 47 43 42 33 35 40 45 46 43 44 47 48 47 48
54 54 54 54 54 54 53 52 51 51 52 49 48 50 49 46 44 41 42 41 43 46 46 47 46 45 44 47 51 50 50 51 52 47 43 39 37 38 36 47 45 40 46 46 46 47 48
54 54 54 54 53 53 53 53 52 51 52 49 49 48 44 41 43 44 45 45 44 45 44 47 47 43 50 54 55 54 51 48 52 49 48 40 40 42 35 40 29 43 50 51 49 50 49
53 54 54 54 53 53 53 53 52 52 53 51 50 49 45 41 45 44 45 44 44 46 44 46 49 51 54 51 43 40 40 43 43 43 43 47 40 37 32 31 40 43 46 46 46 45 50
53 53 53 54 53 53 53 53 52 53 53 51 50 51 47 42 42 48 44 41 39 41 41 44 46 49 50 47 42 35 33 37 35 40 45 47 45 40 32 29 30 41 47 51 50 39 48
53 53 53 53 53 53 53 53 52 52 53 52 50 53 48 42 47 48 44 42 45 43 40 41 43 44 48 42 39 35 35 39 35 35 37 40 40 34 34 31 37 47 48 51 39 40 47
52 52 53 53 53 52 52 53 52 52 53 52 49 52 49 45 47 50 50 43 43 44 40 42 43 43 42 39 39 38 38 38 36 38 43 40 36 36 38 34 30 49 47 44 46 46 47
52 52 52 52 52 52 52 53 53 52 53 53 47 51 52 47 46 51 52 51 51 49 44 43 42 45 46 42 42 42 37 40 38 34 43 38 42 40 43 42 48 46 46 48 50 48 45

GFSGBSN_sfc_temp_006.txt.gz
Temp
65 64 64 66 66 66 66 66 65 65 66 65 65 65 64 64 64 63 63 63 63 64 64 63 63 63 59 50 50 66 72 71 67 65 60 57 51 50 46 49 51 49 53 59 61 62 62
64 65 65 65 64 66 65 66 65 65 65 66 65 64 64 64 63 63 63 63 63 64 63 63 63 62 53 43 63 66 66 64 65 62 58 58 54 55 50 50 49 53 55 56 60 61 62
64 64 64 64 65 63 65 65 65 64 65 66 65 64 63 63 63 63 63 63 63 63 63 63 63 60 50 49 63 63 65 62 64 63 57 59 59 53 54 49 55 54 48 53 55 57 58
62 63 63 64 64 63 62 64 64 64 65 65 65 64 63 63 63 62 62 62 62 62 63 63 63 55 44 63 62 61 62 61 64 65 63 63 64 57 55 57 51 46 46 41 52 57 57
62 62 62 62 63 63 62 63 63 63 64 65 64 63 62 62 62 61 61 61 61 62 62 62 55 50 43 64 56 61 61 58 60 60 61 68 62 54 50 46 43 42 36 39 46 56 55
62 63 62 61 62 62 62 62 63 63 64 64 63 63 62 62 61 61 61 61 61 60 59 60 57 48 51 51 57 59 60 61 56 55 55 53 51 42 41 42 34 40 38 41 41 49 53
62 62 62 61 61 61 62 62 61 62 63 63 63 62 61 61 61 60 57 51 46 44 50 45 47 48 54 58 61 57 59 57 54 49 39 45 39 36 39 41 42 42 39 39 43 51 49
61 61 59 60 60 60 61 61 61 60 63 63 63 61 61 61 61 60 53 46 47 50 40 50 51 51 56 59 50 54 59 48 48 39 41 38 36 43 45 44 42 40 38 37 44 51 48
60 60 59 59 60 60 59 60 60 59 61 62 62 61 60 60 60 56 51 51 54 53 40 46 49 48 51 55 49 49 54 49 46 42 43 36 41 48 45 42 39 39 37 38 38 46 50
59 60 60 58 58 59 59 59 59 58 59 61 62 61 60 59 54 50 50 54 53 55 34 39 42 48 52 54 46 58 58 52 45 39 42 40 45 42 42 40 41 34 44 44 43 40 33
59 58 59 57 58 57 58 58 58 59 57 58 60 61 59 59 49 48 52 53 53 51 14 41 42 56 53 47 50 48 59 53 41 39 40 36 38 39 37 40 45 38 47 44 43 39 36
58 58 57 56 57 56 57 57 56 57 57 56 57 60 58 54 51 52 53 55 50 29 17 36 43 41 42 45 47 50 50 54 51 43 43 39 47 44 42 46 46 46 43 42 41 37 30
58 57 57 57 56 55 56 55 56 57 56 56 56 58 57 56 47 54 55 48 30 21 40 36 37 40 40 40 42 45 40 39 36 31 31 36 37 42 46 40 43 43 37 29 26 25 27
57 57 57 58 57 55 55 55 55 56 56 55 54 57 58 56 55 55 50 37 23 35 34 42 40 39 36 41 40 42 39 35 41 36 33 30 26 37 44 41 38 39 38 29 19 22 27
56 57 57 57 57 55 55 54 55 55 54 55 55 54 52 52 56 54 44 30 28 36 41 38 40 35 35 39 40 38 37 36 41 38 31 30 30 42 43 45 45 37 33 43 34 35 29
56 56 57 56 57 55 54 53 54 54 54 54 50 49 49 55 56 50 39 35 36 44 44 43 35 38 33 36 35 35 36 40 38 43 43 34 24 39 42 44 45 42 44 31 33 22 23
56 56 56 57 56 56 54 53 54 53 54 54 49 43 51 56 54 43 33 33 40 46 46 42 39 37 37 34 35 35 34 40 42 42 42 37 33 32 38 36 36 36 36 38 38 35 28
56 56 56 56 55 55 53 52 53 54 54 52 48 38 51 53 40 40 37 42 47 44 47 46 44 40 37 37 34 33 33 39 47 45 36 42 36 29 34 42 44 43 40 40 33 31 37
55 55 55 55 55 55 53 53 53 53 54 50 45 45 51 51 35 36 42 43 46 45 45 45 42 43 43 41 35 37 40 48 49 45 40 42 35 28 30 36 40 38 41 42 42 42 34
54 55 55 55 55 55 54 53 53 53 53 51 45 39 44 45 46 42 40 40 40 47 47 48 45 46 43 42 42 39 40 47 50 49 50 46 36 32 28 34 38 36 41 43 40 34 36
53 54 55 55 55 55 54 53 53 52 52 51 47 42 46 37 39 42 43 43 40 40 45 46 41 42 41 36 37 38 43 45 49 50 46 42 32 33 35 36 37 36 42 40 37 41 37
53 54 54 55 55 55 54 53 53 52 52 49 44 43 46 42 46 42 42 41 42 44 44 41 40 45 43 40 41 38 43 43 44 45 41 41 32 34 33 41 41 37 42 43 42 40 39
53 53 54 54 54 54 54 53 53 52 51 43 48 48 49 44 43 40 41 42 42 44 46 48 46 44 43 44 50 49 48 48 48 45 40 37 35 33 33 42 41 37 42 42 37 39 39
53 53 54 54 54 54 53 53 53 52 51 47 49 46 44 40 42 42 45 44 42 44 43 46 48 44 50 55 54 51 49 46 46 47 48 37 37 37 34 38 29 43 50 48 43 45 45
54 53 53 53 54 53 53 53 53 52 52 48 49 45 42 41 45 45 44 42 43 43 43 46 48 51 53 50 44 40 39 39 38 44 41 42 40 33 31 30 37 42 45 46 45 45 48
53 53 53 53 53 53 53 53 52 52 52 50 49 49 46 43 42 49 45 44 40 37 40 44 47 48 50 46 42 35 32 34 33 35 42 44 42 38 32 28 30 40 45 48 47 38 48
53 52 53 53 53 53 53 53 52 52 52 50 50 52 48 43 47 46 43 41 43 40 40 41 43 43 48 42 38 35 34 37 31 32 33 37 38 31 31 31 35 44 46 47 38 40 45
52 52 52 53 53 53 53 53 53 53 52 50 49 52 50 45 47 50 49 43 42 43 40 43 42 43 42 39 38 38 39 35 34 35 36 36 35 35 35 30 27 46 45 41 45 43 43
52 52 52 52 52 52 52 52 53 53 52 52 47 51 52 47 46 51 52 52 49 50 45 44 43 44 46 42 41 42 37 35 41 31 39 36 41 40 37 37 45 43 44 45 47 44 42

GFSGBSN_sfc_temp_009.txt.gz
Temp
64 64 64 64 65 64 63 65 65 65 66 66 65 65 65 64 64 64 63 63 63 64 63 63 63 63 58 51 50 64 71 70 66 64 59 57 51 48 44 47 49 46 49 55 57 58 59
63 63 63 63 64 64 64 63 64 64 65 66 66 65 64 64 64 63 63 63 63 63 63 63 63 62 53 42 61 63 63 63 63 61 57 56 53 53 48 47 46 50 51 53 56 57 57
63 63 63 62 62 63 63 63 61 63 64 65 66 65 64 63 63 63 63 63 63 63 63 63 63 59 50 49 61 61 63 59 61 60 56 57 57 52 52 47 52 51 45 49 52 53 53
63 62 62 63 62 62 63 62 62 61 63 64 64 64 63 63 63 63 62 63 62 62 63 63 63 54 44 61 60 60 61 59 61 62 61 61 60 53 52 55 51 46 43 37 48 53 54
62 62 62 61 61 60 61 62 62 62 61 63 64 64 63 62 62 62 61 62 61 61 62 62 54 49 43 63 55 59 59 57 58 59 59 67 61 52 51 46 43 41 35 37 44 53 53
61 61 61 61 60 60 60 61 61 61 62 60 62 63 63 62 61 61 61 61 61 60 59 60 57 46 50 50 56 58 58 60 55 54 54 52 51 45 44 42 33 38 35 36 38 46 49
61 61 60 61 60 59 59 60 60 61 61 60 60 62 62 62 61 60 58 52 45 44 50 45 47 48 53 57 60 56 58 56 54 48 40 44 39 37 41 40 44 38 38 39 44 49 44
60 60 60 60 60 59 59 59 59 60 60 60 58 60 62 61 61 60 52 47 46 50 40 49 49 51 54 56 49 53 59 48 45 39 41 38 33 41 44 42 40 39 37 38 45 49 48
59 60 60 59 59 58 58 58 58 59 59 59 58 59 61 61 60 56 52 51 54 51 39 44 47 47 49 53 48 48 53 48 41 38 38 35 39 46 43 40 37 37 34 37 37 43 46
59 59 59 58 58 57 57 57 57 58 58 58 57 58 61 60 53 54 50 54 53 53 30 37 41 46 49 51 45 56 56 49 44 37 43 41 47 42 39 37 39 33 41 41 40 36 30
58 58 58 57 58 58 57 56 56 57 57 56 56 57 60 58 50 48 52 52 53 47 14 40 40 56 53 45 49 47 56 52 42 39 38 36 36 37 36 38 42 37 44 41 40 36 33
57 58 57 57 58 58 57 56 55 56 56 56 56 56 57 53 52 53 54 54 50 27 16 36 41 41 42 45 48 49 49 54 50 43 42 39 44 41 39 43 44 45 39 39 38 35 27
57 57 56 57 57 57 55 54 54 55 55 56 55 55 55 56 48 53 55 48 30 20 39 35 38 39 41 39 42 44 41 39 37 32 31 37 37 41 44 38 42 41 35 26 26 25 26
58 57 56 56 56 57 57 55 53 54 55 56 55 53 54 57 54 55 51 39 21 34 33 40 39 38 35 39 39 40 39 36 42 35 33 29 28 37 41 38 36 37 36 27 21 22 24
56 56 56 56 56 57 57 56 55 54 54 54 54 50 50 52 56 55 45 30 28 34 39 37 39 35 35 41 41 39 38 37 41 39 31 27 27 39 41 45 43 35 31 40 33 35 29
55 55 55 56 56 56 56 55 54 53 53 53 48 46 48 54 57 51 39 32 34 42 42 41 33 39 34 36 35 35 36 38 39 42 44 35 28 37 41 42 42 39 42 30 30 23 22
55 55 55 55 55 56 56 56 54 53 53 53 46 42 50 55 54 44 33 32 38 45 46 40 40 38 38 35 35 36 37 38 41 40 43 38 30 29 36 34 34 35 33 37 36 31 22
55 55 55 55 55 55 55 55 55 53 53 51 45 34 51 53 40 40 36 40 46 43 45 44 44 44 39 37 33 32 32 38 43 42 36 40 35 27 32 41 45 43 37 37 28 22 30
54 54 54 54 54 55 55 55 54 53 53 45 42 43 51 50 34 35 42 43 44 45 44 45 42 45 45 39 32 35 37 45 45 43 38 41 34 27 30 35 38 35 37 39 39 36 29
54 54 54 54 54 55 55 54 54 53 53 48 43 36 42 44 45 39 39 39 38 47 46 48 45 46 41 39 41 36 37 45 47 47 49 45 35 31 27 32 35 32 37 39 38 30 32
54 54 54 54 54 55 54 54 53 53 53 48 44 40 42 35 38 41 42 42 38 38 46 47 42 42 41 37 39 36 41 44 48 49 45 40 32 33 35 37 36 36 38 38 35 38 33
54 54 54 54 54 54 54 53 53 53 52 47 43 42 44 40 45 43 42 40 41 43 43 41 40 43 43 39 41 36 42 43 43 44 41 41 33 33 32 35 35 34 36 38 40 41 41
54 54 54 54 54 54 54 53 53 52 51 43 45 48 47 42 42 40 41 41 42 46 46 47 45 43 43 45 48 48 46 47 47 43 39 36 34 33 30 38 36 30 35 38 41 45 44
54 54 54 54 54 54 54 53 53 53 51 46 46 44 43 38 42 42 44 44 42 44 42 45 48 44 49 54 51 47 47 46 46 46 44 36 34 34 30 34 29 39 48 47 44 43 44
53 54 53 53 53 53 54 53 53 53 53 47 48 46 45 40 44 44 45 44 44 45 43 44 46 49 52 48 42 39 39 40 40 41 43 44 39 33 33 30 38 40 42 41 39 39 45
53 54 53 53 53 53 53 53 53 53 53 49 48 50 46 42 42 48 44 43 40 40 41 43 46 49 48 44 41 34 32 32 31 33 38 40 40 38 34 28 29 38 45 49 48 39 49
53 53 53 52 53 53 53 53 53 53 52 49 47 50 47 40 46 47 43 41 44 40 37 40 43 43 46 40 37 35 34 35 30 31 35 35 37 33 34 32 33 43 44 48 36 39 45
52 53 52 52 52 52 52 53 53 53 52 49 47 50 48 44 46 49 49 43 42 42 39 43 41 42 42 38 38 38 33 35 32 33 34 34 34 31 31 30 26 44 43 41 44 40 43
53 52 52 52 52 52 52 52 53 52 52 50 46 51 50 47 46 49 50 51 51 51 45 44 43 43 44 41 40 41 38 33 34 30 36 34 38 35 37 36 44 43 42 43 45 43 39

GFSGBSN_sfc_temp_012.txt.gz
Temp
64 63 63 64 64 63 63 64 64 62 62 65 65 66 64 65 64 64 64 63 63 63 63 63 63 63 58 52 52 62 69 67 65 63 60 59 52 48 43 45 46 45 47 53 55 56 55
63 63 63 63 62 62 62 62 63 63 62 63 65 65 64 64 64 64 63 63 63 63 63 62 62 62 52 41 59 62 62 62 62 61 56 57 54 52 46 46 45 48 49 50 53 53 54
62 62 62 62 61 61 61 61 61 62 62 61 63 64 64 63 64 63 63 62 63 63 63 63 62 59 49 48 59 59 62 58 60 60 54 56 56 51 50 44 50 49 44 47 49 51 51
62 62 62 61 61 61 60 60 60 61 61 62 60 62 63 63 62 63 63 62 62 62 62 63 62 53 44 60 58 59 59 58 60 60 59 59 58 52 49 51 49 47 47 36 46 49 52
61 61 61 61 61 61 61 60 59 60 60 61 61 60 62 63 62 62 62 62 61 61 62 62 53 48 42 62 54 58 59 56 57 57 58 65 57 50 47 41 38 41 32 37 42 50 49
61 61 61 61 61 60 60 59 59 59 60 60 60 59 60 61 62 61 61 61 60 59 59 60 57 45 49 49 55 57 57 59 54 54 53 52 51 45 43 38 28 32 35 40 40 45 45
60 60 60 60 60 60 60 58 58 59 59 59 59 59 58 59 62 60 58 53 47 46 50 45 46 46 52 55 59 54 57 55 52 48 40 44 38 37 41 40 40 38 35 37 44 49 45
60 60 59 59 59 59 59 58 58 57 58 59 58 58 58 58 61 60 55 47 47 49 39 49 48 49 54 55 48 52 57 48 45 38 39 39 33 41 45 45 42 40 37 36 41 46 43
59 59 59 58 58 59 59 59 58 57 57 57 58 57 58 57 59 55 53 49 53 51 38 43 47 47 48 52 47 47 52 46 40 37 40 35 38 44 42 38 38 36 33 33 34 41 43
58 59 58 58 58 58 57 59 56 56 56 56 57 57 58 57 54 53 50 53 52 52 26 35 41 45 48 51 44 54 54 48 42 37 38 37 44 41 38 36 37 32 39 39 38 34 27
59 59 59 57 58 58 58 57 55 55 55 55 56 56 57 57 52 49 52 54 53 47 14 38 40 55 51 45 47 45 54 50 38 38 39 35 36 36 36 38 40 37 42 39 38 34 30
57 57 57 56 57 57 56 56 54 55 54 54 55 56 55 51 52 54 55 55 49 26 14 35 41 42 42 45 47 47 49 53 50 43 43 39 43 41 38 41 43 43 38 37 36 35 26
57 56 56 56 56 56 56 57 56 54 53 54 55 56 52 54 48 55 56 48 30 22 38 34 37 41 42 40 42 44 41 39 37 32 32 38 38 43 44 36 40 40 33 25 24 24 23
57 56 56 55 55 56 56 57 56 55 54 54 54 54 52 53 52 55 52 37 25 33 32 40 40 40 36 40 41 42 39 36 42 38 33 30 25 37 41 39 34 35 35 26 19 20 22
56 55 55 55 55 55 56 56 56 55 54 53 53 50 48 50 53 55 45 31 30 33 39 36 39 34 35 38 38 38 38 38 42 40 31 30 25 37 40 42 44 35 30 38 31 34 26
56 55 55 55 55 55 56 56 56 55 54 53 46 46 45 52 53 49 40 32 34 42 41 40 32 36 32 35 34 36 35 38 39 43 41 35 27 35 38 41 42 38 41 30 29 21 18
55 55 55 55 54 55 55 56 56 55 54 53 45 40 48 53 52 42 33 33 38 44 46 39 37 36 40 37 37 36 34 38 40 39 42 39 33 29 36 34 34 34 32 33 33 31 21
54 54 55 55 54 54 55 55 55 55 53 49 44 35 50 52 38 38 36 38 45 41 44 45 43 43 40 38 35 34 32 36 42 41 36 40 35 27 30 38 43 41 36 36 27 22 26
54 54 55 54 54 54 55 55 54 54 53 45 40 42 50 49 33 35 41 40 42 41 41 42 40 43 45 39 33 34 35 43 43 41 37 41 33 27 28 34 39 35 38 39 37 33 25
54 54 54 54 54 54 55 55 54 53 54 46 41 35 42 43 43 40 37 38 39 44 44 46 45 45 42 39 41 35 36 43 44 43 47 45 36 31 26 31 34 32 34 37 34 28 30
54 54 54 54 54 54 54 54 53 53 53 47 43 37 40 33 37 41 43 41 39 38 45 46 42 43 40 36 37 36 38 40 44 46 45 40 32 33 35 37 35 34 34 34 31 34 30
54 54 54 54 54 54 54 54 53 52 52 45 41 41 42 39 43 40 40 39 38 40 43 41 39 43 43 39 41 37 40 39 40 43 41 40 32 33 31 35 35 33 35 37 36 37 37
53 54 54 54 54 54 54 54 53 52 51 42 43 45 43 42 42 40 39 39 40 45 45 45 44 42 41 44 48 48 48 46 46 42 38 37 33 32 29 34 35 30 34 36 38 40 40
53 53 54 54 54 54 53 54 53 53 51 46 45 44 41 37 42 42 43 43 41 44 42 44 47 43 49 53 52 49 46 43 44 45 46 35 33 33 29 32 27 38 45 43 40 42 44
53 53 53 54 53 53 53 54 54 53 53 46 47 45 44 38 44 42 44 42 44 45 43 44 47 50 52 49 41 39 38 39 40 42 41 43 35 32 31 31 36 39 42 40 37 38 46
53 53 53 53 53 53 53 53 53 53 53 47 46 49 46 41 39 49 44 43 40 40 41 44 44 46 47 44 40 34 30 35 31 34 37 40 41 34 32 30 27 37 43 47 47 36 46
54 54 53 53 53 52 52 53 53 53 53 48 46 50 47 42 43 48 43 42 45 42 40 39 40 41 46 40 36 35 33 37 29 31 34 34 35 31 32 32 33 40 43 45 35 39 43
52 53 53 52 52 52 52 52 53 53 53 48 45 49 47 44 44 47 48 43 42 41 38 41 42 42 41 37 37 36 35 34 30 32 33 33 31 33 36 31 27 42 42 36 43 42 41
52 52 53 52 52 52 52 52 52 52 53 51 43 49 51 43 44 47 49 49 50 49 46 44 43 43 44 41 40 41 37 33 32 29 34 32 37 34 35 35 43 41 42 44 44 42 38

GFSGBSN_sfc_temp_015.txt.gz
Temp
63 63 62 63 63 63 62 61 61 62 62 63 63 63 65 65 65 64 65 64 64 63 63 63 63 62 59 53 53 64 68 67 67 64 62 59 54 51 48 49 51 48 50 54 56 56 56
62 62 62 62 62 62 62 62 61 60 61 62 63 62 62 64 64 64 64 63 63 63 63 62 62 62 53 44 61 62 64 64 62 62 60 59 57 55 50 49 49 51 51 52 54 55 56
62 62 62 62 62 61 61 61 61 60 60 61 62 62 60 62 64 63 63 63 63 63 63 63 62 59 49 48 61 61 62 60 62 63 57 58 59 54 53 47 53 51 46 50 51 53 53
62 62 62 62 62 61 61 61 61 59 59 60 61 60 60 60 62 63 63 63 62 62 62 63 62 54 45 60 59 59 61 60 62 62 61 60 60 55 52 53 50 47 46 41 50 52 53
61 61 61 61 61 61 61 60 60 59 59 60 60 60 60 58 60 62 62 62 62 61 62 62 54 50 43 62 55 58 60 57 58 59 60 64 58 51 50 43 40 42 36 39 44 53 52
61 61 61 60 60 60 60 60 60 60 59 58 59 59 59 59 58 61 61 61 61 59 58 60 57 45 49 50 55 57 58 59 55 55 54 53 51 45 45 41 31 35 37 39 40 48 48
60 59 60 59 59 59 60 60 59 60 59 58 58 58 58 58 57 59 58 53 47 46 49 45 46 47 51 56 59 54 57 56 54 50 41 47 41 37 41 42 42 40 38 37 42 49 44
60 60 60 60 59 60 59 59 59 59 58 57 57 57 58 58 57 57 56 48 48 50 41 48 48 49 53 55 48 52 57 48 46 39 42 40 36 45 45 45 43 42 38 39 44 47 45
60 60 60 59 58 59 59 59 58 58 56 56 56 55 57 57 58 54 52 51 52 53 40 43 47 46 49 52 47 47 52 47 42 38 39 36 40 45 43 40 39 39 37 39 38 42 44
59 59 58 58 58 57 58 58 57 56 55 55 55 56 55 56 51 53 49 54 52 53 27 36 40 45 48 51 44 54 54 49 43 38 40 41 46 41 38 37 39 33 41 40 38 35 30
58 58 58 58 57 57 56 57 57 56 56 55 54 54 55 56 49 49 52 54 51 47 14 38 40 55 50 45 47 45 54 50 39 38 39 36 37 36 37 39 40 37 42 39 38 35 33
58 58 57 57 56 56 56 57 57 57 56 54 53 54 56 52 50 52 54 54 50 28 16 35 42 41 41 44 46 48 48 53 50 41 41 39 44 42 40 42 43 44 39 39 38 35 27
58 57 56 56 56 56 55 56 56 57 56 53 54 54 53 53 47 51 53 47 31 20 37 33 36 41 42 39 42 44 41 39 37 31 32 39 39 42 44 37 41 40 33 26 24 25 25
57 57 56 56 55 55 55 56 57 57 55 54 52 54 52 52 52 50 50 37 25 33 32 42 41 40 37 41 41 42 39 36 42 39 33 28 25 38 43 40 35 35 35 28 20 22 27
57 56 55 55 55 55 55 56 56 57 55 54 53 48 48 49 51 49 41 30 30 33 38 38 39 35 34 39 40 40 38 38 42 42 32 29 29 38 40 42 42 34 30 39 30 32 26
57 55 55 55 55 55 55 56 56 55 55 53 46 46 45 51 51 45 35 33 34 41 42 41 33 36 32 35 34 36 36 39 40 43 45 36 27 36 39 42 41 38 41 29 30 21 21
55 55 55 55 54 55 54 55 56 55 55 52 44 40 47 51 49 40 32 32 37 43 45 39 37 34 36 35 35 35 34 38 41 39 44 39 33 31 36 34 35 35 32 34 33 31 24
55 55 55 55 54 54 54 55 55 55 54 48 41 35 48 51 34 35 34 38 44 41 45 43 43 41 37 37 37 36 35 37 42 40 36 40 35 28 30 41 44 41 37 37 28 26 29
55 55 55 54 54 54 54 55 55 54 54 45 38 40 48 47 32 34 39 40 42 41 41 42 40 43 43 38 33 36 35 43 42 40 36 40 33 24 28 35 39 34 36 39 37 36 27
55 55 55 55 54 54 54 54 54 54 54 47 39 34 41 43 43 38 37 37 37 44 42 45 43 44 41 39 41 36 35 42 43 43 47 45 35 30 28 34 36 31 35 36 33 29 30
54 54 54 54 54 53 54 54 54 53 52 47 41 35 40 33 36 40 41 39 37 37 43 44 42 43 41 36 38 36 38 39 41 44 45 40 31 33 35 38 36 32 34 34 31 34 29
54 54 54 54 54 54 54 54 54 53 52 44 38 40 42 39 42 42 41 35 37 38 42 39 39 44 44 39 40 36 39 38 39 40 41 41 32 34 31 36 35 32 35 35 35 35 36
54 54 54 54 54 53 54 54 54 54 51 43 43 45 42 41 39 39 36 39 38 42 44 46 44 43 41 44 48 48 48 47 43 42 39 37 34 32 29 36 34 30 35 35 36 39 38
54 54 54 54 54 54 53 53 54 54 52 45 45 43 40 36 40 40 41 41 41 43 39 45 45 43 49 51 50 48 47 45 45 43 46 37 33 33 30 32 27 38 45 42 38 41 44
54 54 54 54 54 53 53 53 53 53 53 46 46 44 43 37 41 42 40 42 40 41 42 44 46 49 52 49 40 39 38 39 40 40 40 44 36 32 30 30 36 39 42 40 38 38 45
54 54 54 53 53 53 53 53 53 53 53 47 45 48 45 39 38 45 41 41 39 38 41 44 45 46 46 41 38 33 31 32 30 32 37 42 41 35 32 28 28 39 44 47 46 37 46
54 53 53 53 53 53 53 53 53 53 53 48 45 48 45 42 44 46 41 40 45 43 40 41 42 41 44 38 35 34 33 35 29 32 32 34 35 32 32 31 34 42 44 45 35 39 43
53 53 53 53 53 53 53 53 53 52 53 48 44 48 43 43 43 45 47 43 41 40 39 41 40 41 41 37 36 36 35 33 30 32 33 32 30 30 34 31 26 42 41 37 44 43 43
53 52 52 52 52 52 52 53 52 52 53 51 42 48 47 44 45 48 48 47 51 49 46 44 43 43 44 40 39 41 37 32 32 30 33 31 36 34 35 35 43 44 44 46 44 42 42

GFSGBSN_sfc_temp_018.txt.gz
Temp
63 63 63 63 63 62 62 62 61 61 61 61 62 63 63 62 63 64 64 65 64 64 64 63 63 63 64 57 60 70 68 70 73 70 65 64 62 61 56 58 59 57 62 62 65 63 64
63 63 62 62 62 62 62 62 62 62 61 61 61 61 61 61 61 63 64 64 64 64 63 63 62 62 60 51 68 70 70 69 70 68 64 63 60 62 58 57 57 59 58 60 61 62 63
62 62 62 62 62 61 61 61 61 61 61 61 60 61 61 60 60 61 63 64 64 64 63 63 62 64 55 58 68 69 68 67 68 68 61 63 64 62 61 55 59 59 53 59 61 62 61
62 62 62 62 62 61 61 61 61 61 61 61 60 60 60 60 60 59 61 62 63 63 63 63 62 61 53 64 68 65 68 67 68 68 66 65 67 61 59 60 57 53 53 49 59 58 60
62 61 60 61 61 61 61 60 60 60 60 61 60 59 59 60 60 58 59 61 62 62 62 63 60 57 51 64 58 65 69 64 65 67 67 68 65 58 57 51 49 51 47 48 52 61 59
62 62 61 61 61 59 60 60 60 60 60 59 59 59 58 58 59 57 58 61 61 61 62 61 58 50 55 53 59 62 66 66 61 62 59 58 58 53 53 49 43 46 44 49 48 55 55
61 61 60 60 59 60 60 59 58 59 59 58 57 57 57 57 58 58 55 54 48 49 55 53 52 52 54 60 63 58 64 62 61 58 49 53 45 42 50 52 53 49 47 46 52 55 52
60 61 60 59 59 60 59 58 58 59 59 57 56 56 56 57 57 58 53 48 55 59 45 54 53 54 56 59 51 55 63 55 53 47 51 46 39 51 53 51 48 47 45 46 51 54 51
60 60 60 59 59 58 57 57 57 58 57 56 56 56 55 56 56 55 50 51 56 63 49 47 52 51 53 57 52 52 58 55 51 46 47 44 46 51 49 46 44 46 44 45 45 49 51
60 59 59 58 58 57 57 57 56 57 57 56 57 55 55 55 51 55 48 55 52 58 39 41 44 50 54 56 49 59 61 56 49 46 47 46 52 46 45 44 47 41 50 47 44 41 35
59 58 58 58 56 56 56 56 56 57 57 57 54 53 54 54 49 49 54 53 51 51 28 43 42 57 55 50 51 49 60 54 46 46 46 43 43 43 40 42 47 42 48 45 45 41 39
58 58 57 57 56 56 56 56 56 57 57 57 55 55 54 52 52 55 54 52 48 32 28 36 42 42 42 47 48 50 51 56 55 47 47 47 50 48 47 49 49 49 44 43 42 38 29
58 58 57 56 56 56 56 55 57 57 57 56 55 53 52 53 48 56 52 46 31 30 42 34 37 41 43 41 44 46 43 41 40 33 33 43 44 48 49 43 46 44 37 31 27 27 31
57 56 56 55 56 56 55 56 57 57 56 55 54 54 54 56 54 54 49 36 29 39 39 43 43 43 40 43 43 43 41 37 45 43 38 35 34 44 47 44 42 39 40 32 26 31 36
56 56 56 55 56 55 55 55 56 56 56 55 53 50 52 54 54 50 39 31 36 41 43 40 41 36 36 42 43 41 40 40 44 45 35 33 33 45 47 49 47 38 32 45 34 38 31
56 56 55 56 56 55 55 55 56 56 55 54 45 46 47 53 52 47 34 34 40 46 46 46 36 41 35 38 39 39 39 47 46 50 51 42 32 43 44 47 47 43 47 31 32 24 25
56 56 56 56 55 55 55 56 56 56 55 53 44 39 47 53 50 39 33 35 41 49 49 44 41 39 41 38 41 39 41 45 48 47 50 45 39 37 40 37 40 37 33 35 37 35 28
55 55 55 56 55 54 54 55 55 55 55 50 42 33 47 51 37 36 35 42 47 45 49 47 49 46 43 43 39 41 41 44 50 48 41 47 39 31 36 48 50 48 42 40 29 29 32
55 55 55 55 55 54 54 55 55 55 54 45 38 37 48 48 35 35 40 43 46 45 46 46 45 48 48 43 38 44 43 48 49 47 45 46 35 29 34 40 45 40 43 44 39 36 30
56 55 55 55 55 55 54 54 54 55 54 48 39 34 41 43 45 42 41 41 41 48 47 49 46 49 46 43 45 41 42 46 49 49 48 49 41 34 33 38 42 33 39 40 34 29 34
55 55 55 55 55 54 54 54 54 54 54 47 41 36 42 35 41 45 47 44 41 41 48 49 45 46 45 41 41 41 44 45 46 47 48 45 32 35 38 41 40 36 37 36 32 36 31
55 55 55 54 55 54 54 54 54 54 53 44 37 38 44 42 46 47 45 43 42 43 45 42 44 46 46 42 44 39 42 44 45 46 45 44 34 35 32 38 38 33 37 37 36 36 37
55 55 55 54 55 54 54 53 54 54 52 42 44 45 42 43 45 43 43 44 44 47 47 49 47 46 43 46 49 50 50 49 48 45 43 40 35 33 30 41 38 32 36 37 37 38 38
55 55 54 54 54 54 54 53 53 54 53 45 44 43 40 38 44 45 46 46 45 47 44 48 49 46 50 56 55 52 51 50 50 47 48 38 34 34 30 34 29 39 46 44 42 43 43
55 55 54 54 54 54 53 53 53 53 54 46 46 43 42 41 47 46 46 46 48 48 47 47 49 52 54 49 44 41 41 41 44 47 46 45 38 34 31 32 40 41 43 42 41 43 50
54 54 54 54 53 53 53 53 53 53 53 47 46 47 44 44 44 51 46 48 44 45 46 47 50 52 52 46 40 34 36 39 39 40 46 45 42 36 33 30 29 46 50 51 49 42 50
54 53 53 53 53 53 53 53 53 53 53 48 45 47 43 42 51 53 48 46 50 48 42 43 45 44 48 42 37 35 37 42 38 37 35 36 35 33 33 33 40 51 49 51 41 42 49
53 53 53 53 52 52 52 52 52 52 53 49 45 48 42 40 50 53 54 49 48 49 44 47 44 45 42 37 37 37 37 41 40 44 42 41 38 37 38 34 33 52 51 46 51 52 50
52 52 52 52 52 52 52 52 52 52 52 51 43 48 47 41 48 52 54 55 55 53 50 48 47 46 46 40 40 41 38 40 42 40 45 40 47 47 45 45 53 53 54 56 53 50 50

GFSGBSN_sfc_temp_021.txt.gz
Temp
63 62 63 63 63 63 62 62 62 62 62 62 62 61 61 62 62 62 63 64 65 65 64 64 63 63 63 58 60 73 69 71 74 71 68 67 65 65 60 65 66 61 65 69 69 69 68
63 63 63 62 62 62 62 62 61 61 61 62 62 62 61 61 61 61 61 62 64 64 64 63 63 62 62 51 73 75 74 73 74 69 66 68 66 68 64 63 61 65 64 65 67 67 67
62 62 62 61 62 62 62 61 61 61 61 61 61 61 60 60 60 61 60 61 63 64 64 63 63 65 58 60 73 74 72 72 73 72 64 67 67 61 63 58 64 62 56 62 64 65 63
62 62 62 62 62 61 60 60 60 60 61 61 61 60 60 59 59 59 59 59 62 63 63 63 63 64 55 69 73 69 72 70 74 73 69 68 67 61 62 63 60 56 58 52 64 64 66
62 62 62 62 61 60 60 59 60 59 60 60 60 59 59 59 58 59 59 58 58 61 63 63 61 60 54 65 61 70 72 67 69 70 70 69 63 57 57 54 52 55 50 54 58 66 63
61 61 61 61 61 60 60 59 59 59 58 58 59 58 57 57 57 57 58 57 57 59 61 61 62 52 59 57 63 66 71 70 65 65 62 61 60 55 55 53 45 50 50 53 54 61 59
61 61 60 60 60 59 59 58 59 58 58 57 58 57 55 56 57 57 55 51 49 47 53 53 53 55 58 63 66 62 68 66 64 61 51 56 47 46 54 57 58 55 52 52 57 62 57
61 61 60 59 60 58 58 58 57 58 57 57 57 57 56 57 56 57 54 45 47 52 45 58 58 58 61 64 54 59 68 57 54 48 53 46 42 54 58 56 54 52 49 50 56 60 56
60 60 59 59 58 58 57 57 57 57 56 57 56 55 56 55 56 55 52 48 54 52 46 50 56 56 56 59 56 54 61 59 53 49 48 45 50 56 53 50 47 49 46 48 49 55 56
59 59 59 59 58 57 57 57 56 56 56 56 57 54 54 55 51 55 52 56 53 51 37 40 46 53 56 58 51 63 64 58 52 47 49 47 55 50 49 47 50 44 54 52 49 45 41
59 59 57 57 57 56 56 56 56 56 57 57 57 56 53 54 49 46 53 53 51 48 28 45 46 62 58 53 53 53 64 56 48 50 49 46 47 46 44 47 52 45 50 47 46 42 39
59 57 57 56 56 56 56 56 56 57 57 56 56 55 55 50 53 56 55 52 47 32 27 37 43 43 45 51 51 53 53 58 58 50 51 51 54 52 51 52 52 51 47 45 45 40 29
58 57 57 56 56 56 56 56 56 57 57 56 56 55 53 53 49 61 54 47 31 29 44 34 38 44 43 42 45 46 44 43 42 34 35 45 45 50 53 46 49 47 39 33 30 28 32
58 57 57 56 56 56 56 56 56 57 56 55 55 55 55 58 59 56 47 37 28 38 40 46 42 44 39 43 44 45 42 39 47 47 41 35 34 46 50 47 43 41 41 35 28 34 40
57 56 56 56 56 56 56 55 56 56 56 55 54 54 53 55 57 53 41 31 35 44 45 41 41 37 37 42 44 45 42 41 47 48 38 38 37 50 51 52 50 41 33 46 36 40 33
57 56 56 56 56 56 55 55 56 56 55 55 49 46 48 57 58 47 38 34 41 50 49 48 38 41 35 39 40 42 41 49 46 53 55 46 35 47 49 50 50 45 48 32 32 25 28
56 56 56 56 55 55 55 56 56 56 55 54 45 39 47 53 54 43 34 35 45 53 52 48 44 42 42 40 43 41 41 49 53 51 52 48 43 39 43 39 42 39 36 37 41 38 30
56 56 55 56 55 55 55 55 55 55 55 50 42 34 49 56 37 40 36 40 49 49 51 50 52 49 46 45 42 43 45 48 55 54 45 49 42 34 39 51 53 50 43 42 31 32 34
56 56 55 55 55 54 55 55 55 55 54 47 38 36 51 48 35 37 39 43 49 47 49 49 48 51 52 47 42 47 48 52 53 51 48 48 39 31 35 44 50 43 46 46 42 37 31
56 56 55 55 55 55 55 54 54 55 54 49 40 34 40 43 48 45 38 43 43 51 50 53 50 53 50 47 50 46 45 48 52 52 49 51 43 35 34 40 44 34 40 43 38 30 35
56 56 56 55 55 55 54 54 54 54 54 48 41 38 42 36 42 46 44 45 43 44 51 53 49 49 49 44 45 44 48 48 50 51 50 48 34 37 41 43 43 39 40 40 33 35 30
56 56 55 55 55 55 54 54 54 54 54 46 38 37 42 47 51 50 47 43 43 46 49 46 47 50 50 47 48 44 48 48 46 49 47 46 34 36 33 41 41 36 41 40 38 37 36
55 55 55 55 54 54 54 54 54 54 53 43 44 45 41 47 48 48 48 48 47 50 50 52 51 49 47 49 53 53 53 51 50 46 43 41 35 33 31 42 41 37 39 38 39 42 39
55 55 55 54 54 54 54 54 54 53 53 46 46 43 41 40 49 49 49 50 49 49 47 50 51 49 50 58 57 56 54 50 50 47 49 40 36 34 32 35 30 44 51 45 42 47 49
55 54 54 54 54 54 53 53 53 53 53 46 46 43 41 43 49 49 50 50 51 52 49 49 50 55 58 53 47 44 44 41 45 48 46 46 37 33 31 34 43 46 49 45 41 43 51
54 54 54 54 53 53 53 53 53 53 53 48 46 47 43 39 49 54 51 52 48 48 48 50 54 56 55 49 44 36 36 42 40 40 47 45 42 36 33 30 30 47 54 54 52 39 52
54 53 53 53 52 52 52 52 53 53 53 50 46 48 42 40 54 55 51 50 54 52 47 47 48 47 52 44 38 37 38 46 40 41 38 38 37 33 34 32 42 54 54 54 40 43 52
53 53 53 52 52 52 52 52 52 52 52 51 47 48 42 39 45 56 59 54 53 53 47 48 46 46 42 40 38 38 36 45 43 49 46 44 39 37 38 33 33 57 57 48 53 56 54
53 53 52 52 52 52 52 52 52 52 52 52 44 49 48 39 43 56 59 59 59 59 55 51 49 49 49 41 39 41 39 44 44 38 51 43 51 47 48 49 59 59 56 59 57 54 55

GFSGBSN_sfc_temp_024.txt.gz
Temp
63 63 63 63 63 63 63 62 62 62 62 62 62 62 62 62 62 61 62 62 63 64 64 64 64 63 61 55 57 70 70 71 71 68 65 65 62 60 55 60 62 58 62 66 67 66 65
63 63 63 62 63 63 63 62 61 61 61 62 62 62 61 61 61 60 61 61 61 63 62 64 63 63 57 49 72 74 74 72 70 66 63 66 64 66 61 60 59 63 62 62 65 64 64
63 63 63 62 62 62 62 60 60 60 60 61 61 61 61 60 60 60 60 61 61 60 62 64 63 62 57 56 73 74 73 72 73 67 63 68 67 61 61 56 64 60 53 57 59 61 60
62 62 62 62 62 62 61 61 59 59 59 60 60 60 60 60 59 59 59 60 59 59 61 63 63 61 52 70 72 69 72 70 73 73 67 68 66 60 58 61 58 52 52 44 59 61 62
62 62 62 62 62 61 60 59 58 59 60 59 58 58 59 59 58 58 58 59 59 59 60 63 59 56 51 65 62 68 71 66 69 69 65 68 64 57 56 51 47 49 41 46 53 61 59
61 62 61 60 60 60 59 59 59 58 58 58 58 57 58 57 56 57 56 58 58 58 58 59 61 51 58 55 63 67 70 70 64 64 59 57 55 50 48 47 37 44 43 47 48 55 55
61 60 60 60 60 60 59 58 58 58 58 57 57 57 57 56 57 57 55 52 47 48 51 49 50 55 57 63 66 62 67 65 63 59 49 55 47 42 47 50 52 52 48 46 52 58 52
60 60 60 60 59 58 58 58 57 57 58 57 57 56 57 55 57 56 54 45 46 48 43 52 57 59 62 62 53 59 67 55 53 46 52 47 40 51 55 55 52 50 45 44 51 57 52
60 60 59 58 58 58 57 57 57 57 57 57 56 57 55 55 55 53 50 50 50 48 42 47 56 55 56 60 53 53 61 57 50 46 46 44 49 55 52 49 46 45 43 43 44 50 51
59 60 58 58 58 57 57 57 56 57 57 56 57 56 54 52 49 52 48 58 50 49 34 39 46 53 56 58 51 61 63 58 51 45 48 46 54 51 48 46 48 40 50 48 46 40 32
59 59 58 58 58 57 57 56 57 57 57 57 56 56 56 54 47 45 53 53 50 46 26 41 45 63 57 52 52 53 63 57 47 48 47 43 47 45 43 46 50 43 49 46 44 38 34
59 58 58 57 57 57 56 56 56 57 57 56 56 56 56 51 49 52 56 52 47 31 25 36 43 45 45 51 51 53 53 58 58 50 50 49 53 49 48 51 50 50 45 43 41 38 23
58 58 57 57 56 57 57 56 56 57 57 56 56 55 54 54 46 56 53 46 30 25 39 34 38 44 45 44 45 47 44 42 39 33 34 44 44 49 51 44 47 46 39 24 23 25 22
58 57 56 56 56 56 57 56 56 57 57 55 55 55 55 55 56 54 48 36 25 36 36 45 42 43 39 44 43 44 41 38 46 43 37 31 30 43 49 44 40 41 40 27 22 22 27
58 57 56 56 56 56 57 56 56 56 55 55 54 52 49 53 56 52 42 29 31 39 44 40 42 36 37 43 43 41 40 40 45 47 36 33 36 49 50 50 49 40 33 40 31 32 22
57 57 56 56 56 56 56 56 56 56 55 54 47 47 46 55 56 48 37 33 34 48 47 46 36 42 34 38 39 40 39 47 45 50 50 44 33 45 48 49 49 44 45 29 30 15 20
57 57 56 56 56 55 56 56 56 56 54 54 45 40 48 55 53 42 32 33 41 52 52 47 42 41 41 39 41 40 40 48 50 49 51 47 40 37 41 38 37 38 36 37 37 32 20
56 57 57 56 55 55 55 55 55 55 54 50 42 34 48 53 38 39 35 36 49 48 53 51 51 48 44 44 41 42 42 46 53 51 44 47 41 30 34 46 47 46 39 38 29 24 29
56 57 56 56 55 55 55 55 55 55 55 47 38 38 48 47 34 36 37 42 49 47 50 50 48 51 50 44 38 45 47 50 51 49 46 47 36 26 29 39 45 39 42 43 41 37 29
56 56 56 56 55 55 55 54 54 55 55 50 41 34 42 43 45 40 36 41 41 50 51 53 50 52 48 44 49 44 44 48 50 50 50 50 41 30 25 32 38 31 37 41 38 29 31
56 56 56 55 55 55 54 54 54 54 54 49 41 39 43 38 42 42 43 45 43 44 51 53 49 50 47 42 44 44 47 45 48 49 48 44 33 32 37 40 40 37 38 39 34 35 31
56 55 55 55 55 55 54 54 54 54 54 46 39 38 42 46 48 44 44 41 44 46 48 46 46 50 49 45 45 44 47 46 43 47 43 45 30 35 33 38 38 34 39 39 40 38 37
55 55 55 55 55 54 54 54 53 54 52 43 44 45 41 46 48 45 46 45 46 49 49 51 50 48 46 46 50 50 50 49 47 44 43 40 35 32 29 38 36 32 38 41 40 43 41
55 55 54 54 54 54 53 53 53 53 52 45 45 43 40 41 45 47 50 50 48 48 46 50 51 48 49 55 54 52 49 48 47 44 48 39 35 34 30 32 24 41 47 46 42 45 47
55 54 54 54 53 53 53 53 53 53 53 45 46 43 40 38 48 50 50 49 49 49 48 48 50 53 54 50 44 42 41 41 43 47 44 45 37 33 31 30 37 44 47 45 42 41 49
54 54 54 54 53 53 53 53 53 53 53 47 46 47 42 38 44 53 49 50 44 44 44 48 51 53 50 46 41 33 33 38 36 38 45 44 42 36 33 29 26 43 49 51 48 36 48
54 54 53 53 53 53 52 52 53 53 53 49 45 47 42 39 49 49 47 46 50 48 42 45 47 45 48 42 36 36 34 42 35 38 35 36 36 32 33 31 35 48 48 50 34 38 47
53 53 53 53 53 52 52 52 52 52 52 49 46 47 41 38 42 50 53 50 49 48 43 46 43 44 42 38 37 37 34 40 37 41 41 38 35 33 35 31 26 49 49 40 45 49 49
53 53 53 52 53 52 52 52 53 52 52 51 43 49 48 39 41 48 51 56 53 52 50 47 46 47 46 40 37 39 37 38 39 34 44 37 44 42 39 38 50 51 50 51 50 47 48

GFSGBSN_sfc_temp_027.txt.gz
Temp
63 63 63 63 63 63 63 62 62 61 61 61 61 62 62 62 62 62 61 61 61 62 62 63 64 64 59 52 53 69 71 74 71 68 61 59 56 54 50 53 55 52 56 61 62 62 61
63 63 63 63 63 62 63 62 61 60 60 59 61 61 61 61 61 61 61 61 61 61 62 62 64 63 54 45 68 71 70 66 66 64 60 60 57 59 54 54 52 57 57 57 60 59 59
62 63 63 63 62 61 61 61 59 59 60 60 61 60 60 60 60 60 60 60 60 61 60 60 63 61 53 53 69 69 72 66 67 64 59 62 65 58 56 52 58 56 50 53 55 57 55
62 62 62 61 61 61 61 60 59 59 59 59 59 58 59 59 59 59 59 59 59 60 59 59 64 58 48 66 66 68 69 66 71 67 65 66 64 57 54 57 55 50 48 39 52 57 58
61 62 61 61 61 61 60 59 59 58 58 58 58 58 58 58 58 58 57 58 59 59 60 59 57 52 47 66 61 65 66 63 65 67 63 67 61 56 55 47 43 45 35 40 47 57 56
62 61 61 60 59 59 59 59 58 58 58 58 57 57 57 58 57 57 57 58 58 58 58 58 59 48 54 53 61 64 65 66 61 60 56 56 52 48 48 46 34 38 37 41 42 52 53
60 60 60 59 59 60 59 58 58 58 58 57 57 57 57 57 56 57 53 47 43 44 49 47 48 51 55 61 65 60 64 62 60 54 47 51 44 40 42 44 48 47 45 41 46 54 48
60 60 60 59 59 60 59 59 58 57 58 58 57 57 57 55 55 55 50 41 43 45 38 52 53 55 59 61 52 57 63 53 52 43 49 45 40 49 53 51 48 45 40 39 46 52 48
60 60 59 59 58 58 58 57 57 57 58 58 57 57 56 54 54 49 45 45 49 50 39 46 51 52 54 57 51 51 57 53 48 44 45 40 46 52 49 46 43 40 38 39 39 45 45
60 60 58 58 58 58 58 57 57 57 57 57 57 57 56 56 47 48 44 51 50 49 33 39 44 52 55 56 48 59 60 55 50 45 47 45 51 49 46 43 44 35 45 45 43 36 29
59 59 58 58 57 58 58 58 57 56 57 57 56 56 56 55 46 44 48 50 50 45 24 40 45 61 54 48 50 52 61 57 47 46 45 40 45 45 43 44 47 40 46 43 41 34 30
59 59 57 57 57 57 57 58 57 57 57 57 56 56 55 51 49 50 51 51 46 29 23 35 44 44 44 49 49 52 53 58 56 49 47 45 50 49 47 49 48 48 42 40 37 32 19
59 58 58 57 57 57 57 57 57 57 57 56 56 55 53 53 46 50 50 44 28 23 36 34 38 43 43 42 44 47 44 42 38 33 34 43 43 47 49 42 44 43 33 18 23 23 20
58 58 58 57 57 57 56 57 57 57 56 55 55 55 51 53 51 50 47 34 22 34 34 42 43 43 39 43 40 44 41 38 42 39 34 32 26 41 46 41 37 36 35 21 18 19 23
58 58 57 56 57 56 57 57 57 56 55 55 54 47 47 48 54 49 41 26 29 35 39 38 41 37 37 42 40 41 39 39 41 40 32 28 31 45 46 46 44 36 30 37 28 27 16
57 57 57 57 57 56 56 56 56 56 55 54 46 44 46 51 51 46 35 32 32 42 45 45 33 40 33 38 36 38 38 43 43 46 44 42 32 43 46 46 47 41 42 25 23 12 17
57 57 57 57 56 56 56 56 56 55 55 54 41 40 47 51 51 41 31 31 37 49 50 44 39 39 38 36 37 36 38 45 47 45 47 45 40 36 43 36 35 37 35 34 33 26 16
57 57 57 56 56 55 55 55 55 56 55 49 39 33 48 49 35 38 34 33 40 45 50 49 48 43 41 39 38 38 37 43 49 50 40 46 39 31 31 41 44 40 36 35 25 21 25
57 57 56 56 55 55 55 55 55 55 55 44 38 39 48 46 31 34 36 38 44 46 47 47 46 48 46 41 37 43 43 49 51 49 45 45 35 23 28 35 40 37 39 40 40 34 27
56 56 56 55 55 55 55 54 54 54 55 46 40 32 38 40 42 37 36 39 41 50 49 50 47 48 47 43 44 42 42 46 48 49 51 48 37 27 23 28 34 29 35 38 37 28 29
56 56 55 55 55 55 54 54 54 54 55 45 38 36 38 30 38 40 39 42 43 42 49 50 46 47 44 40 44 44 43 42 46 48 47 42 30 29 35 37 37 34 35 37 33 35 30
55 55 55 55 54 54 54 53 54 54 53 42 38 37 41 37 41 37 40 39 40 43 44 43 44 47 46 41 42 41 44 40 39 41 40 42 27 32 31 36 35 32 37 37 37 38 38
55 55 55 55 54 54 53 53 53 54 51 42 44 45 41 39 39 36 38 40 42 44 46 48 46 45 43 45 47 46 48 48 48 40 38 39 32 32 24 35 33 30 36 39 41 43 41
54 55 55 54 54 53 53 53 53 53 52 44 44 43 39 35 38 42 45 46 45 45 43 47 48 44 47 51 49 48 45 44 46 42 43 37 35 34 29 32 22 39 46 45 41 44 46
54 55 55 54 54 53 53 53 53 53 53 44 45 42 40 36 38 47 45 45 45 45 44 45 47 48 50 46 40 38 40 40 41 42 43 43 37 33 30 30 35 41 44 42 39 41 46
54 54 55 54 53 53 53 53 53 53 53 46 45 44 41 37 36 45 43 44 39 37 40 44 48 49 48 42 39 31 31 36 35 38 44 43 41 35 32 28 26 41 46 48 46 34 47
53 53 53 53 53 52 53 53 53 53 53 44 44 46 41 38 42 45 43 43 49 42 38 41 42 43 45 37 34 33 30 38 31 33 34 36 35 33 32 31 34 44 47 47 33 37 45
53 53 53 53 53 53 52 52 53 53 52 45 40 47 41 37 39 46 49 46 44 42 38 42 42 42 40 35 34 33 31 35 33 36 36 35 33 33 34 30 26 47 46 39 46 44 45
52 52 53 53 53 53 52 53 53 53 52 50 36 44 47 38 37 45 46 50 49 48 46 45 44 44 42 39 35 37 37 35 34 30 42 36 41 39 36 35 45 48 48 48 47 45 44

GFSGBSN_sfc_temp_030.txt.gz
Temp
63 63 63 63 63 62 63 62 62 60 60 60 60 60 61 61 61 61 61 61 61 62 62 62 62 64 58 49 52 68 72 72 71 66 60 58 53 53 48 51 52 47 51 57 60 59 57
63 63 62 62 62 62 62 62 61 60 60 60 60 60 59 60 59 60 59 61 61 61 61 61 62 62 54 44 66 69 66 68 67 63 59 58 55 56 52 52 50 53 55 55 57 57 57
63 63 62 62 62 60 60 60 59 60 60 60 59 59 59 59 59 58 59 60 60 60 60 61 61 60 52 51 67 68 67 64 64 64 57 59 59 56 55 50 57 55 49 51 53 54 54
63 62 61 61 60 60 60 60 60 59 59 59 58 58 58 58 58 58 58 58 59 59 59 60 60 56 48 65 67 66 68 64 66 65 63 63 62 57 54 54 53 49 47 40 51 54 56
62 61 61 61 60 60 61 60 60 60 59 58 58 58 58 58 58 57 57 57 58 59 59 60 53 52 47 65 59 65 66 62 63 63 62 66 60 54 52 46 41 42 35 39 45 54 53
61 61 61 60 60 60 60 60 58 59 58 58 58 58 57 57 57 56 56 57 57 57 56 58 54 47 52 52 60 63 64 64 60 57 57 56 52 48 46 41 32 37 35 38 40 49 49
61 61 61 59 59 59 59 58 59 58 58 58 58 58 57 56 56 55 51 45 41 41 47 46 48 50 52 60 63 60 63 61 57 53 46 50 44 41 46 46 45 47 45 39 44 51 46
60 60 60 59 59 59 59 58 59 57 57 58 58 57 57 56 56 54 48 40 42 45 37 49 51 53 57 59 52 56 63 52 49 44 47 44 40 47 50 49 46 45 41 38 44 49 45
60 60 60 58 58 58 58 58 59 58 57 58 57 56 56 56 55 50 46 46 49 50 37 45 50 50 54 57 50 50 58 53 48 43 45 42 45 51 49 47 43 38 36 37 38 43 42
60 59 59 58 58 58 58 58 58 58 58 57 57 57 57 56 49 47 42 49 51 50 32 38 43 49 55 55 46 58 60 54 49 41 47 44 50 47 44 44 42 35 43 43 41 36 28
59 59 59 58 58 58 57 57 58 58 57 57 56 56 56 56 47 44 47 49 50 45 22 37 42 59 54 48 49 52 60 56 44 46 45 40 43 44 41 43 46 39 45 42 39 33 28
59 58 59 57 58 57 57 58 58 57 57 56 56 56 55 50 46 48 50 50 45 28 23 34 43 44 44 47 47 52 53 57 56 48 47 43 49 48 46 46 47 47 41 38 35 30 18
58 58 58 57 57 57 57 57 58 57 57 56 55 55 53 53 43 50 50 43 27 21 36 32 38 43 42 41 43 46 44 42 38 34 34 41 41 46 48 41 44 41 33 19 18 17 20
58 58 58 58 57 57 57 57 57 56 56 55 55 54 51 51 49 50 45 32 22 33 34 42 43 43 38 43 42 43 42 38 44 39 32 28 30 40 45 40 37 36 35 23 18 18 21
58 58 58 57 57 57 57 57 57 56 55 55 53 47 49 50 53 51 40 26 28 33 39 39 42 34 37 39 40 41 40 40 42 40 32 27 30 43 45 45 44 36 28 37 27 25 16
57 58 57 57 56 56 56 56 56 56 56 55 41 46 45 51 51 46 36 32 32 40 44 44 32 37 33 35 36 38 38 44 43 45 43 38 28 43 44 45 46 39 41 27 24 10 16
57 57 57 57 56 56 56 56 56 55 56 54 40 38 47 51 50 40 31 31 37 48 48 44 36 36 39 36 34 38 36 42 45 43 44 40 34 33 43 35 34 35 34 32 30 24 15
57 57 56 56 56 55 55 55 55 55 55 48 39 29 48 49 36 37 33 34 40 43 47 45 44 41 38 38 35 35 35 39 47 46 40 42 36 23 32 39 42 39 34 33 21 20 22
57 56 56 56 55 55 55 54 54 55 55 41 37 37 45 43 29 34 36 36 40 45 45 46 42 44 43 38 34 38 40 48 48 46 43 42 32 22 27 34 37 35 36 37 36 34 19
56 56 56 55 55 54 54 54 54 54 55 43 36 29 37 41 39 38 36 38 40 47 46 47 44 46 43 40 41 38 41 46 49 49 51 48 34 26 23 28 32 27 33 37 35 24 27
55 56 55 55 54 54 54 54 54 54 54 42 36 36 39 29 36 36 40 39 39 39 46 47 45 46 45 40 42 40 43 41 47 49 47 43 26 27 33 36 34 32 34 34 31 34 27
55 56 55 55 54 54 53 53 54 54 53 42 36 37 41 35 38 36 38 37 39 41 43 42 41 46 47 39 40 39 40 38 38 40 38 42 26 31 31 34 34 30 35 35 36 37 37
55 55 55 55 54 54 53 53 53 53 50 42 43 45 41 37 36 35 36 39 41 43 45 46 45 43 41 45 47 44 47 45 43 39 36 36 31 32 26 32 31 28 34 37 37 38 38
54 54 55 54 54 53 53 53 53 53 52 44 44 42 39 33 35 39 43 44 43 43 41 45 46 43 45 49 49 47 45 46 44 39 44 37 34 34 28 29 19 39 45 43 40 42 44
53 54 54 54 54 53 53 53 53 53 53 44 45 41 39 35 37 40 41 42 42 42 42 43 45 46 48 45 39 38 39 40 42 43 42 43 37 32 29 28 34 39 42 41 38 39 44
53 53 53 54 53 53 53 53 53 53 53 41 45 45 40 36 34 41 39 41 37 35 38 42 46 48 46 41 37 31 31 32 34 37 44 42 41 35 32 26 26 38 44 47 44 32 45
52 53 53 53 53 53 52 52 53 53 52 42 42 46 41 37 41 39 39 43 47 38 36 38 40 41 43 36 33 31 28 36 31 33 35 35 36 32 32 31 34 44 44 46 30 36 45
52 53 53 53 53 53 52 52 53 53 53 43 38 46 41 36 38 41 48 44 44 40 36 40 39 40 37 33 32 32 30 33 31 34 34 35 33 32 34 30 27 45 43 38 44 45 45
52 52 52 52 52 52 53 52 52 53 52 47 35 42 43 38 35 42 45 48 47 47 43 41 41 42 40 35 33 34 34 38 32 28 37 35 38 35 35 35 46 48 47 48 45 43 43

GFSGBSN_sfc_temp_033.txt.gz
Temp
64 63 63 62 62 62 61 61 60 60 60 60 60 60 60 60 61 59 60 60 60 61 61 62 62 62 57 49 51 67 71 72 69 66 59 56 52 51 48 50 51 47 50 56 58 58 55
63 63 62 62 62 61 61 61 61 61 61 61 60 59 59 60 59 58 59 59 60 61 61 61 61 61 52 44 64 67 66 67 65 62 58 57 54 55 51 50 49 52 54 55 56 56 55
62 63 62 61 62 60 61 60 61 60 60 61 60 59 58 59 59 58 58 59 59 60 60 60 61 57 50 51 64 65 66 64 64 62 56 58 58 54 53 49 55 53 47 49 52 53 53
62 61 62 62 61 60 61 60 60 59 59 60 59 58 58 58 58 58 57 58 58 58 59 59 60 53 46 63 65 63 65 59 62 61 61 61 62 55 52 53 51 47 46 39 49 53 54
61 61 61 62 60 60 60 60 59 59 59 59 59 58 58 58 57 56 57 57 58 58 59 59 53 49 46 64 58 63 63 60 60 60 62 65 58 52 50 44 40 40 34 38 44 53 52
61 61 61 61 59 59 60 59 59 59 58 58 58 59 58 57 56 56 56 56 56 56 54 56 55 45 51 51 59 62 63 63 57 55 55 53 50 44 43 41 34 35 36 36 39 46 47
60 60 60 60 59 59 58 59 58 59 58 57 58 58 57 57 56 55 50 44 40 41 44 42 46 47 51 58 63 57 63 60 55 51 46 50 44 41 45 44 43 42 40 38 42 48 45
60 60 59 59 58 59 58 58 58 58 58 58 58 57 57 56 57 55 48 39 41 45 37 48 49 51 56 58 51 54 62 52 50 44 46 44 41 47 50 48 48 45 42 36 42 46 43
59 60 59 59 58 59 58 58 58 59 58 58 57 57 57 57 56 50 45 46 50 47 38 44 48 49 52 56 49 51 58 53 47 44 43 40 44 50 48 45 43 41 37 36 37 42 40
60 59 59 59 58 58 57 58 58 58 58 57 57 57 57 56 48 47 44 49 49 47 31 36 42 49 54 53 46 57 60 54 48 43 44 42 48 46 43 42 42 34 41 42 39 35 28
59 59 59 59 58 58 58 58 58 58 57 56 56 56 56 55 46 44 49 48 47 44 22 37 42 55 53 46 48 50 59 55 45 44 45 39 43 41 41 44 46 39 43 40 38 31 27
59 58 59 58 58 58 58 57 57 57 56 56 56 55 55 48 48 48 49 50 43 28 21 33 42 43 44 45 46 51 51 57 54 47 47 42 48 48 46 46 46 45 40 36 32 29 19
58 58 58 58 58 57 57 57 56 57 57 56 56 55 52 51 43 49 49 42 28 20 35 33 37 43 42 42 44 46 44 43 39 34 34 41 41 45 47 40 43 40 33 20 19 17 20
58 58 58 57 57 57 57 56 56 56 56 56 55 54 52 50 49 50 45 34 23 31 34 41 43 43 37 42 43 43 42 38 43 39 35 31 30 39 43 39 36 34 34 23 19 17 20
58 58 57 57 57 57 57 56 56 56 56 55 53 47 46 47 51 49 40 25 27 32 39 40 42 36 35 39 41 40 39 36 41 40 32 27 29 41 44 43 43 35 26 34 26 23 16
57 57 57 57 56 56 56 56 55 56 56 55 42 44 43 49 49 43 32 31 33 41 46 40 31 36 31 34 37 36 37 43 43 44 42 36 27 40 42 44 44 38 40 25 21 12 16
57 57 57 56 55 55 55 55 55 56 56 53 40 36 47 49 47 37 29 32 38 46 45 41 34 35 35 33 34 34 35 41 47 44 43 39 34 34 41 34 33 34 31 30 29 24 15
57 57 56 56 55 54 54 55 55 55 55 46 37 29 45 47 34 35 33 34 41 41 44 43 42 39 36 35 34 34 34 38 46 45 39 41 34 26 32 38 41 38 34 32 22 19 21
56 56 56 55 55 54 54 54 54 55 55 40 34 34 44 43 34 35 38 38 40 41 42 43 40 42 40 36 33 36 37 45 46 44 41 42 31 19 27 33 37 34 35 35 33 31 17
56 56 56 55 54 54 54 54 54 54 55 42 35 29 36 38 40 38 36 38 39 43 43 45 42 44 41 37 39 36 38 44 46 47 50 46 33 27 22 28 31 26 32 34 31 21 23
55 56 55 55 55 54 53 53 54 54 54 42 36 36 37 30 34 36 37 38 38 38 44 45 42 42 41 37 38 37 41 43 46 49 44 41 27 27 32 35 33 32 33 33 28 33 25
55 55 55 55 55 54 53 53 53 53 53 42 39 37 41 34 35 35 37 36 38 40 41 40 43 46 46 39 38 37 39 37 39 41 41 41 28 29 26 34 32 29 34 34 34 35 35
54 54 55 55 54 54 53 53 53 53 49 40 43 43 40 36 34 33 35 37 39 41 44 45 44 42 42 43 43 43 45 44 42 39 36 37 30 31 26 31 31 28 32 34 34 36 37
54 54 54 55 54 54 53 53 53 53 50 40 43 42 38 32 33 36 39 42 40 41 40 43 44 42 44 48 47 46 44 44 43 38 43 36 34 34 28 27 17 37 43 41 38 40 40
54 54 54 54 54 54 53 53 53 53 52 40 43 40 39 35 35 37 39 39 40 40 40 41 43 45 46 44 38 37 39 40 41 43 42 43 37 32 28 29 32 39 42 39 37 39 44
53 53 53 53 54 54 53 53 53 53 52 39 44 43 38 36 33 38 36 39 36 34 37 40 45 46 44 39 36 30 28 32 33 36 42 42 40 35 32 26 26 39 43 45 43 32 43
53 53 53 52 53 53 53 52 53 53 53 40 41 45 40 36 38 39 36 37 41 36 35 36 39 40 42 35 32 30 28 34 32 31 34 35 35 32 32 31 33 43 44 45 30 35 43
52 52 52 52 52 52 53 52 52 52 52 42 37 44 36 35 37 40 42 39 41 38 36 39 39 39 36 33 32 31 29 32 30 33 36 35 32 32 34 30 26 45 42 37 43 42 42
52 51 51 52 51 52 52 53 52 53 52 45 34 40 41 34 33 40 42 44 44 46 41 40 39 39 39 34 32 33 32 34 31 28 34 33 36 32 34 34 44 46 45 46 44 42 40

GFSGBSN_sfc_temp_036.txt.gz
Temp
63 63 63 62 62 62 61 61 61 61 61 61 61 61 60 60 59 59 59 59 59 60 61 61 61 61 56 48 50 65 69 70 68 64 60 57 54 50 48 49 51 47 49 54 57 57 54
63 63 62 62 62 62 61 61 60 60 60 60 60 60 59 59 59 58 58 59 59 59 60 60 61 61 51 43 63 66 65 64 64 61 59 58 56 55 52 50 50 52 53 53 55 55 54
63 62 62 62 62 61 60 60 59 59 59 60 60 59 59 59 59 58 58 58 58 59 60 60 60 57 49 50 63 64 66 63 64 62 55 58 58 54 53 48 53 52 46 48 51 52 52
62 62 62 61 61 60 60 59 59 59 59 59 59 59 59 58 58 57 57 57 57 58 59 59 60 53 46 60 60 61 63 59 60 61 61 60 60 55 51 52 50 46 45 38 48 52 53
61 62 61 61 60 60 59 59 59 59 59 59 58 58 59 59 57 57 56 56 57 57 58 58 51 48 45 59 56 61 61 58 59 58 59 64 58 51 50 44 40 39 33 37 44 51 50
61 61 60 60 60 59 59 59 58 58 59 59 57 58 58 58 57 56 55 55 56 55 54 55 53 43 50 49 54 62 60 60 58 57 54 53 52 43 41 43 31 36 34 35 38 45 45
61 60 60 60 60 59 59 59 58 59 59 59 58 58 57 57 56 54 51 44 39 41 43 40 43 47 50 57 56 57 61 57 54 53 45 49 44 40 42 43 42 41 39 37 40 46 43
60 60 60 59 59 59 59 59 59 59 58 58 58 57 57 57 57 56 47 38 40 44 36 46 48 49 55 57 48 53 61 50 49 44 44 45 41 45 48 47 45 42 38 35 41 45 41
60 60 59 59 59 59 59 59 58 58 57 57 57 56 56 57 57 50 44 44 47 46 35 42 46 48 52 54 49 49 55 51 46 44 43 42 45 51 49 46 41 40 37 35 36 40 39
59 60 59 59 59 58 59 58 58 58 57 57 57 56 56 56 48 47 43 47 48 46 24 35 42 47 52 51 46 56 58 52 47 42 43 41 47 47 45 44 43 37 44 41 39 35 29
59 59 59 59 58 58 58 58 58 57 57 57 56 56 56 54 44 44 44 47 46 42 16 38 41 53 52 47 47 50 56 54 45 44 45 38 42 42 41 42 44 39 43 39 37 31 28
59 59 58 58 58 58 57 58 57 57 57 56 56 56 54 48 45 45 51 49 43 24 22 33 41 43 44 45 45 51 51 54 54 45 46 43 47 46 44 45 46 45 39 35 31 29 19
58 58 58 57 57 57 57 57 57 57 57 56 56 55 51 50 41 47 47 42 25 21 35 33 37 43 42 42 43 46 43 42 38 33 34 39 41 45 48 40 43 40 33 20 20 16 20
58 58 57 57 57 57 57 56 57 57 56 56 55 54 51 49 47 47 44 30 21 33 34 41 43 41 38 43 42 43 41 38 43 39 35 30 30 42 45 41 37 33 33 23 20 19 21
57 57 57 57 56 56 56 56 56 56 56 56 53 44 44 48 49 46 36 26 28 32 39 39 41 35 35 39 41 39 38 38 40 39 32 27 29 42 43 42 41 34 27 33 25 22 17
57 57 57 56 56 55 55 56 56 56 56 54 41 40 41 48 47 42 33 33 34 41 42 40 31 34 31 36 34 37 34 40 41 41 39 34 26 38 41 43 42 38 39 25 20 14 17
57 57 57 56 55 55 55 55 55 56 56 53 39 36 45 47 45 37 31 33 39 43 43 39 33 33 33 32 33 33 33 39 42 41 43 37 32 34 39 34 33 33 30 29 28 23 16
56 57 56 56 55 54 54 54 55 55 55 46 36 32 45 45 35 36 35 35 41 40 43 42 41 38 34 33 32 32 34 37 44 44 38 39 33 25 30 37 39 36 32 30 21 18 22
56 56 56 55 55 54 54 54 54 55 54 39 34 33 44 43 34 35 39 38 40 40 41 41 39 41 39 35 32 34 36 44 45 43 41 41 30 19 27 32 36 33 34 34 31 28 17
55 56 56 55 55 54 54 54 54 54 54 41 35 31 36 38 37 38 36 35 37 42 42 43 40 42 39 35 37 34 36 43 44 45 49 45 33 27 22 27 31 26 32 33 30 20 23
55 55 55 55 55 54 54 53 53 53 53 41 35 35 39 31 33 33 34 36 36 36 42 43 40 40 39 34 35 35 39 39 44 47 43 41 27 27 32 34 33 32 32 32 27 30 24
55 55 55 55 55 54 53 53 53 53 52 42 34 36 41 34 33 33 36 36 36 37 38 38 39 42 43 37 37 35 38 35 38 40 38 39 27 30 26 33 32 29 32 33 32 33 33
54 54 54 55 54 54 53 53 53 53 48 37 42 44 40 36 32 32 33 36 39 40 42 42 44 44 42 41 41 42 44 43 42 38 36 38 30 28 20 30 30 26 31 33 34 35 37
54 54 54 54 54 54 54 53 53 53 48 41 42 42 36 31 32 35 36 38 39 39 38 41 43 40 43 47 44 46 42 42 42 39 42 36 32 31 28 28 17 36 40 42 39 39 40
54 54 53 54 53 54 54 54 53 53 52 43 43 40 38 34 35 35 36 37 38 39 38 40 41 44 44 42 37 38 39 40 41 42 42 42 35 30 27 28 32 36 40 39 37 39 42
54 53 53 53 52 53 53 53 53 54 52 39 44 43 39 35 31 36 36 36 34 33 36 39 43 45 43 38 35 29 27 30 32 36 42 41 39 34 31 27 23 38 44 46 42 34 43
53 53 53 53 53 52 53 53 52 53 52 41 38 40 39 35 40 38 36 36 39 35 34 35 38 39 41 34 32 29 26 33 31 32 33 34 35 32 30 30 32 42 46 46 32 35 42
52 52 52 52 52 51 52 53 52 52 52 43 38 40 34 30 33 38 40 37 42 37 34 38 38 38 35 35 33 31 28 31 29 35 36 34 32 32 33 29 26 44 43 40 43 41 42
52 52 51 51 51 52 51 51 52 52 52 45 35 40 40 32 31 38 40 42 42 44 42 39 37 37 38 33 32 31 31 30 29 27 32 30 34 31 34 33 43 44 44 47 44 42 41

GFSGBSN_sfc_temp_039.txt.gz
Temp
64 64 63 63 63 63 62 61 60 60 61 60 61 61 60 60 60 59 59 59 60 59 60 60 60 61 56 48 50 64 67 67 68 65 60 57 54 54 50 51 52 51 52 56 59 59 58
63 63 63 62 61 62 61 60 60 60 60 60 60 60 60 59 59 59 59 59 59 59 59 59 60 60 50 42 63 60 63 64 64 62 59 59 56 58 54 52 52 54 55 56 57 57 58
63 62 62 62 61 61 60 60 60 59 59 59 59 59 59 58 59 59 58 58 59 59 59 59 60 57 48 47 62 59 62 63 65 62 58 60 62 57 55 50 56 53 49 52 54 55 55
63 62 62 61 61 61 60 60 59 59 59 59 59 59 58 59 59 58 58 57 57 58 58 58 59 53 43 62 61 59 62 59 65 64 63 61 62 57 55 56 52 49 50 42 52 53 55
61 62 61 61 61 60 60 60 59 60 60 60 60 58 57 59 58 57 56 57 57 58 58 58 50 48 43 60 55 60 62 56 59 59 58 62 60 54 53 46 43 44 37 40 46 53 53
61 61 61 61 60 60 60 60 60 59 59 58 58 58 58 58 57 56 56 56 56 55 53 55 52 43 49 48 55 60 61 58 56 54 54 55 51 45 44 42 34 37 37 41 43 49 49
61 61 60 60 60 60 60 60 60 59 58 58 57 57 58 58 57 55 52 45 39 39 43 39 41 44 49 53 58 57 60 57 56 53 44 49 43 40 44 46 45 44 41 41 44 49 47
61 61 60 60 60 59 60 60 59 59 58 58 58 57 56 55 57 56 47 39 40 44 35 45 47 49 53 56 48 52 59 50 49 43 47 43 39 47 48 47 46 44 40 39 44 47 46
60 60 60 59 59 59 59 58 58 59 59 58 57 57 57 56 56 51 46 43 47 46 35 41 46 46 48 55 48 49 54 50 41 40 44 41 46 50 48 45 42 41 40 39 40 44 43
60 60 59 59 59 58 58 58 58 58 58 57 57 56 56 56 47 48 44 46 47 46 25 34 41 46 51 51 45 56 56 51 46 36 43 42 47 48 45 43 45 37 45 43 41 39 34
59 59 59 58 59 58 58 57 57 58 57 57 56 56 55 53 46 42 44 46 46 44 13 39 41 52 52 45 47 49 56 53 44 43 44 37 43 43 43 44 46 41 44 41 39 35 35
59 59 58 58 57 57 57 57 57 57 57 57 57 56 54 47 44 46 50 48 44 23 20 33 42 42 44 45 46 49 50 55 52 44 44 41 46 45 43 43 45 45 40 37 35 33 27
58 58 58 57 57 57 57 56 57 57 57 56 56 56 50 49 40 48 47 41 23 21 35 32 36 43 41 40 43 44 43 42 39 34 34 38 37 43 45 38 41 41 38 27 25 23 27
58 58 57 57 57 56 56 56 57 56 56 56 55 53 50 49 47 49 46 29 26 34 34 41 42 43 38 40 42 42 41 38 42 40 35 31 30 40 46 42 38 37 37 29 24 24 27
58 57 57 57 56 56 56 56 56 56 56 56 53 43 43 46 48 47 37 29 28 33 42 40 40 34 35 39 40 41 37 38 40 40 34 30 31 44 43 43 43 37 32 37 27 25 24
57 57 57 57 56 56 55 55 56 55 56 55 40 40 41 47 46 40 32 34 35 41 42 39 32 36 32 35 36 37 36 41 41 43 42 37 29 41 42 45 43 40 40 29 25 18 22
56 57 57 56 56 55 55 55 55 55 55 53 38 37 45 46 44 38 30 32 38 42 42 38 33 32 36 34 33 33 34 40 43 42 43 39 35 35 41 37 35 35 33 31 31 27 24
56 57 56 56 55 55 55 54 55 55 54 45 36 33 46 45 35 38 35 36 41 40 42 41 40 37 33 34 33 33 34 38 44 44 38 39 34 30 33 39 41 38 35 33 27 24 24
56 56 56 56 55 55 54 54 54 54 54 39 34 33 44 43 29 32 35 38 39 40 40 41 38 40 39 36 32 35 37 43 44 43 40 41 30 21 27 34 37 35 35 35 32 30 22
55 56 56 55 55 55 54 54 54 54 54 40 34 30 37 37 35 34 33 34 36 41 41 42 39 41 38 35 37 34 35 41 43 44 49 45 33 29 24 29 33 29 33 34 32 24 26
55 55 55 55 55 55 54 54 54 53 53 41 35 34 37 29 32 31 32 35 34 36 41 42 39 39 38 33 34 33 37 38 42 47 43 41 28 28 33 35 34 33 33 32 28 30 26
55 54 55 55 55 54 54 53 53 53 52 42 35 35 41 32 32 30 34 33 35 37 37 37 38 41 41 36 37 34 37 35 36 38 38 41 29 30 26 34 33 30 33 33 34 34 33
54 54 54 54 54 54 54 53 53 53 48 37 40 44 40 35 31 30 32 34 37 38 40 41 41 44 42 41 41 40 41 42 41 39 36 38 30 27 23 32 31 27 31 33 35 35 37
54 54 54 54 54 54 54 53 53 53 47 42 42 41 38 30 31 33 35 37 37 38 37 40 41 39 41 45 43 44 44 41 42 39 42 35 32 29 27 28 19 36 40 40 38 39 40
54 54 54 54 54 53 53 53 53 53 51 41 41 39 38 33 33 33 34 35 38 38 37 39 40 45 44 41 38 37 38 39 40 42 42 43 36 30 27 28 32 37 38 38 38 41 43
54 54 54 53 53 53 53 53 53 53 51 39 38 39 37 35 30 35 36 35 33 31 35 38 42 43 44 41 37 31 27 30 32 34 41 41 37 32 30 24 23 37 43 47 45 36 45
53 53 53 53 53 53 52 53 53 52 50 40 37 39 35 32 35 40 36 36 37 33 33 33 37 38 40 33 31 29 26 32 31 32 33 34 35 31 31 29 31 41 45 48 33 37 45
53 53 52 52 52 52 52 52 52 53 51 43 38 39 34 28 30 35 38 34 41 39 33 36 37 37 34 33 33 34 28 30 29 32 36 35 31 32 33 29 24 43 42 39 45 45 44
52 52 52 51 51 52 52 52 51 52 52 45 36 40 39 32 32 38 40 41 39 42 39 40 36 36 37 32 31 31 30 29 29 27 32 33 34 31 33 33 42 43 43 46 46 45 43

GFSGBSN_sfc_temp_042.txt.gz
Temp
64 63 63 63 62 62 62 61 61 61 61 60 60 60 60 60 60 60 60 60 60 60 60 60 58 60 59 51 53 66 67 68 69 68 65 61 59 59 55 59 60 59 60 64 66 65 65
63 63 63 62 61 62 61 61 61 60 60 60 60 59 59 59 59 59 59 60 59 60 59 58 58 60 54 43 67 66 64 66 66 66 64 64 62 65 59 58 58 63 61 63 64 63 64
63 62 62 62 61 62 61 61 61 61 61 61 61 60 59 59 57 60 59 59 59 58 59 59 58 59 51 52 67 65 64 64 68 67 62 66 69 62 62 55 63 61 56 60 60 63 62
62 62 62 61 61 61 61 61 61 60 60 60 59 59 59 58 59 59 58 58 58 58 59 58 59 56 45 64 68 64 63 63 70 68 66 68 69 65 62 62 58 56 57 49 61 61 61
62 62 61 61 61 61 61 60 61 60 60 59 59 58 56 58 58 58 57 57 58 58 58 58 54 52 46 64 56 65 65 61 65 65 65 66 65 60 59 53 48 54 49 50 52 61 61
62 62 61 61 61 60 60 60 59 60 60 59 59 58 56 58 58 57 56 56 56 57 57 58 56 45 54 53 60 62 66 59 59 59 55 55 55 53 55 52 41 45 48 50 50 55 56
61 61 61 60 60 60 59 59 59 60 59 59 58 58 57 55 57 56 55 54 49 47 50 46 47 46 52 58 63 59 63 53 58 54 44 50 45 44 51 55 54 53 49 49 53 54 53
61 61 61 60 60 59 59 59 59 59 59 59 58 57 58 55 55 56 54 48 48 49 42 50 49 49 53 56 51 56 61 49 50 44 49 45 43 54 56 55 52 51 49 48 50 52 53
60 60 60 59 59 59 58 58 58 59 59 58 57 57 57 57 55 51 50 49 54 54 43 44 47 46 49 57 52 52 55 47 47 44 46 43 48 56 53 51 49 49 47 46 48 50 51
60 60 59 59 59 58 58 58 58 58 58 58 58 57 56 56 53 50 47 52 54 54 35 36 41 46 52 54 48 58 54 49 42 41 46 46 51 52 51 49 52 43 50 49 47 47 45
59 59 59 58 58 58 58 57 57 57 58 57 57 57 56 55 52 48 49 53 53 50 25 38 41 53 54 49 49 48 53 49 41 39 42 38 45 48 47 50 53 47 51 48 45 45 45
59 59 58 58 58 57 57 58 57 57 57 57 57 57 55 54 54 49 54 54 51 32 25 34 42 44 43 46 47 50 49 54 51 43 43 40 46 45 44 46 52 50 47 45 45 44 36
58 58 58 58 57 57 57 57 57 57 56 56 56 56 55 55 50 55 53 50 33 30 36 34 38 46 42 42 44 46 47 43 40 34 34 37 38 43 46 38 43 48 45 34 33 32 36
58 58 58 58 57 57 57 56 56 57 56 55 56 55 54 56 56 53 51 40 31 34 35 42 44 45 38 42 41 42 45 39 47 44 40 35 32 38 43 41 37 41 44 39 31 32 37
57 58 57 57 57 56 56 56 56 56 56 55 53 55 54 55 55 53 45 32 32 35 43 42 47 42 40 43 42 42 41 43 46 47 41 37 34 44 46 48 45 37 36 44 36 35 35
57 57 57 57 56 56 56 56 56 55 55 54 51 52 52 54 54 50 44 35 37 44 47 46 39 42 38 40 42 43 42 46 45 48 50 42 33 43 45 48 48 47 47 36 36 29 31
57 57 57 57 56 56 56 55 55 55 55 53 50 51 53 53 53 50 34 35 43 48 48 45 41 41 42 40 41 42 41 46 49 47 50 48 43 37 44 42 42 41 41 40 42 38 35
56 57 57 56 56 55 55 55 55 55 54 50 47 45 54 53 46 46 40 39 43 47 50 48 48 44 43 41 40 42 42 46 51 52 45 46 43 34 37 44 46 46 44 45 39 31 35
56 56 56 56 56 55 55 54 54 54 54 48 45 46 55 53 41 41 44 44 45 46 46 47 45 47 47 43 40 42 43 48 50 50 47 48 39 30 32 40 43 40 43 44 41 39 31
55 56 56 55 55 55 54 54 54 54 54 49 46 41 50 49 46 45 43 43 44 47 47 48 47 48 46 44 46 42 43 47 49 50 49 51 41 36 35 36 41 34 39 42 40 33 38
55 55 55 55 55 55 54 54 54 54 53 50 44 39 42 42 44 44 43 43 42 43 48 49 46 47 46 41 42 42 44 46 48 49 49 49 35 35 40 41 39 38 39 38 33 40 35
55 54 54 55 55 54 54 54 54 53 52 50 41 39 45 43 41 43 42 43 42 44 44 45 45 48 49 45 46 42 45 46 46 48 47 47 34 35 34 38 39 35 40 41 40 41 41
54 54 54 54 54 54 54 53 54 53 52 45 44 46 41 41 42 44 45 44 44 45 46 48 50 49 46 47 50 52 54 53 52 48 45 44 37 34 33 37 36 33 39 40 42 43 44
54 54 55 55 54 54 53 53 53 53 51 47 45 42 39 41 41 44 42 42 44 45 45 48 50 49 49 54 54 54 52 50 51 47 51 43 38 37 32 34 27 42 47 47 43 46 47
54 55 54 54 53 53 53 53 53 53 52 47 45 41 39 36 42 41 39 41 44 47 46 47 49 50 55 51 46 41 42 43 43 45 47 49 43 35 31 31 40 44 42 43 42 44 49
54 54 54 53 53 53 53 53 53 53 51 48 45 45 41 36 41 40 38 39 43 45 46 46 50 53 52 46 43 36 33 39 36 38 45 46 47 39 34 27 29 44 49 52 51 40 51
54 53 53 53 52 52 52 53 51 53 51 48 45 45 42 34 42 43 38 40 45 44 44 44 47 47 49 45 40 37 37 41 35 34 35 37 37 34 35 33 40 50 51 53 36 41 51
54 53 52 52 52 52 52 52 52 51 52 48 45 45 42 36 40 41 44 42 43 43 42 44 44 45 44 40 41 41 40 41 40 44 40 38 35 33 37 32 29 51 48 43 50 52 48
52 52 52 52 52 52 52 52 52 50 51 48 43 45 44 38 40 44 47 49 46 45 39 43 42 43 48 44 42 44 40 40 41 35 44 38 44 41 43 43 51 53 52 54 54 52 51

GFSGBSN_sfc_temp_045.txt.gz
Temp
64 63 63 63 63 63 62 62 62 62 62 62 62 61 60 60 60 60 60 60 60 60 60 59 59 59 59 52 56 69 68 71 70 69 64 63 63 61 57 61 63 59 66 69 70 67 67
63 63 63 62 63 62 62 62 62 61 61 61 60 60 59 60 60 59 59 60 60 59 59 60 59 58 55 43 71 70 65 70 66 66 67 66 65 67 62 62 61 63 65 66 68 66 66
63 63 63 62 62 62 61 61 61 61 60 61 60 60 59 59 59 58 60 59 59 58 59 59 59 60 51 53 71 67 61 66 71 67 65 68 71 66 64 58 66 63 59 62 65 65 63
63 63 62 62 62 61 61 61 60 60 61 60 60 60 59 57 57 58 59 58 59 58 58 59 59 58 46 66 70 64 63 66 69 68 71 69 70 66 62 64 61 57 58 50 61 62 64
62 62 62 61 61 61 61 60 60 60 61 61 59 59 59 56 57 58 57 57 58 58 58 59 56 54 47 66 60 67 64 60 65 64 71 69 65 61 61 54 51 54 47 52 56 64 62
62 62 62 61 60 60 60 60 60 60 60 60 59 58 58 57 58 57 56 57 57 57 59 61 59 47 55 53 61 64 64 64 61 61 58 55 53 51 55 54 43 47 47 55 54 58 60
61 61 61 60 60 60 60 59 59 60 60 59 59 58 58 57 57 57 56 57 50 48 53 49 50 48 53 61 64 61 63 58 61 56 47 51 46 44 52 58 59 57 52 53 58 58 56
61 61 60 60 60 59 59 59 59 59 59 59 58 57 57 57 57 56 58 52 50 51 44 53 52 51 55 57 52 55 63 50 51 45 53 44 40 54 58 59 58 55 52 51 56 57 54
60 60 60 60 59 59 59 58 58 59 58 58 58 57 57 56 56 53 55 51 58 57 39 46 48 47 51 56 53 49 55 49 48 48 47 43 46 55 55 53 52 54 50 50 50 53 56
60 60 60 59 59 59 58 58 58 58 57 57 57 58 56 56 54 55 52 56 58 57 35 36 41 46 53 55 48 55 51 47 43 45 48 45 54 48 52 51 55 48 55 53 49 48 45
59 59 59 59 59 58 58 58 58 57 57 57 56 57 56 57 57 52 52 57 57 51 26 36 38 56 53 49 50 47 53 48 42 41 42 39 46 48 49 52 57 50 55 51 48 47 47
59 59 59 58 58 58 58 57 57 57 57 56 56 56 56 58 59 56 59 58 53 33 26 35 45 45 48 50 48 49 48 51 50 43 44 41 49 46 49 54 57 55 51 49 48 46 36
58 58 58 58 58 58 57 57 57 57 57 56 56 56 56 60 55 60 58 53 33 31 40 35 39 44 44 43 44 46 42 42 38 33 33 37 37 43 48 46 52 52 46 35 33 32 35
58 58 58 58 57 57 57 57 57 56 56 56 55 54 57 60 62 58 53 42 32 35 38 45 45 45 39 42 42 45 46 40 45 42 37 33 31 35 43 43 41 46 48 40 31 34 39
57 57 58 57 57 57 57 56 56 56 55 55 54 60 58 61 59 55 44 34 33 36 46 45 48 43 41 45 43 46 47 47 49 50 38 36 33 40 42 44 46 37 37 48 41 42 39
57 57 57 57 57 57 56 56 56 56 55 55 56 58 58 59 59 52 46 36 39 47 51 51 42 46 43 45 45 47 46 50 48 52 54 47 34 41 43 45 43 41 52 38 39 31 33
57 57 57 57 56 56 56 56 56 55 55 55 56 54 57 59 57 55 36 36 47 52 52 48 46 45 47 44 46 46 46 49 53 51 54 51 46 38 46 43 42 39 40 44 45 41 36
56 56 56 56 56 55 55 55 55 55 55 56 53 46 58 58 50 53 45 43 45 50 54 51 51 48 48 48 46 46 46 50 55 55 49 50 45 36 40 48 50 49 48 48 40 35 40
56 56 56 56 55 55 55 55 55 55 54 51 52 53 59 58 45 46 49 49 50 50 50 50 48 50 51 47 43 47 48 51 54 53 51 51 42 31 35 43 47 43 47 48 47 42 34
55 55 55 55 55 55 54 54 54 54 54 53 51 41 57 59 55 52 48 48 47 51 51 52 50 52 50 47 50 45 47 50 52 53 49 53 45 39 36 38 45 38 43 46 42 34 40
55 55 55 55 55 55 54 54 54 54 54 53 52 47 46 46 50 50 50 48 46 46 51 53 49 50 50 45 46 45 49 48 51 49 52 51 37 37 43 44 42 40 42 43 37 41 38
55 55 55 55 55 55 54 54 54 53 53 53 41 39 47 50 49 50 45 48 46 47 48 48 48 51 52 48 49 46 49 50 48 51 50 51 35 38 35 42 41 37 42 44 42 43 44
54 54 55 55 55 54 53 53 53 53 54 49 48 48 43 47 49 49 51 49 48 49 50 52 53 52 50 51 55 55 58 57 55 51 49 48 40 35 34 40 39 34 40 43 44 46 46
54 54 55 54 54 54 53 53 53 53 52 52 47 43 40 46 47 49 47 47 48 49 48 53 54 52 52 58 59 58 56 55 54 53 55 46 42 39 33 35 27 44 51 50 46 48 50
54 55 54 54 53 53 53 53 53 53 52 52 50 43 40 39 48 47 46 46 49 51 50 51 53 54 60 55 49 44 44 45 47 50 51 53 46 37 32 34 42 46 47 45 44 46 53
54 54 54 53 53 53 53 53 52 53 52 53 49 50 43 38 44 45 42 43 45 49 49 51 54 57 55 48 46 38 35 41 38 42 49 50 50 40 36 29 30 45 50 55 53 42 55
54 54 53 53 53 52 52 52 52 52 52 51 49 49 46 39 47 46 43 42 46 47 47 50 50 49 53 48 40 37 37 46 38 36 37 39 41 35 36 33 41 53 53 55 37 41 53
54 52 53 52 52 52 52 52 52 52 51 49 49 50 44 40 44 46 47 45 47 45 43 48 48 49 46 42 41 41 42 45 43 46 43 40 37 36 38 33 30 56 52 45 51 54 53
54 52 52 52 52 52 52 52 52 52 51 50 44 50 48 39 43 48 49 51 49 49 42 47 43 48 50 46 48 48 44 48 45 39 50 39 46 42 44 44 54 57 57 59 58 56 54

GFSGBSN_sfc_temp_048.txt.gz
Temp
64 63 64 63 63 63 62 62 62 62 62 62 61 61 61 60 59 60 60 60 60 61 60 60 59 59 55 46 50 70 71 70 68 65 63 61 59 57 53 57 60 56 61 66 68 64 63
63 63 63 63 63 62 62 62 62 61 62 62 62 60 61 60 59 60 59 60 60 60 59 60 59 59 51 40 67 71 66 67 66 62 64 63 62 64 59 59 56 61 62 63 66 62 63
63 63 63 63 62 61 62 61 61 61 61 62 61 60 60 59 59 58 58 60 59 59 59 59 60 58 50 49 67 64 62 62 65 64 62 65 68 63 62 56 64 62 55 58 60 61 60
63 63 62 62 61 61 61 61 61 61 61 61 60 60 59 58 57 57 59 58 58 59 59 58 59 56 45 64 65 65 59 61 65 65 67 68 68 63 60 62 59 55 53 46 58 60 61
62 62 62 61 61 61 60 60 60 60 61 60 60 59 59 57 58 58 58 58 58 59 59 58 55 51 45 66 58 64 61 57 63 63 65 70 64 56 56 50 47 50 42 46 51 62 59
62 62 61 61 61 61 60 60 60 60 60 60 59 59 58 57 58 57 57 57 58 57 57 60 58 46 53 52 60 63 61 60 57 57 56 57 53 48 49 47 35 42 43 47 48 56 57
61 61 61 61 60 60 60 59 60 60 59 59 59 58 58 58 58 57 56 54 48 47 52 43 47 48 48 56 65 59 60 57 55 52 45 50 43 40 46 51 51 51 48 47 53 58 54
60 61 61 60 60 60 60 59 59 59 59 59 58 58 57 57 57 56 55 51 49 50 42 54 53 51 55 57 49 53 62 50 48 43 50 44 41 50 54 54 54 52 47 46 51 56 52
60 60 60 60 60 59 59 59 59 59 58 58 58 57 57 56 56 55 54 51 57 56 41 46 48 47 51 53 49 47 57 48 47 45 46 42 47 56 54 51 50 50 45 45 46 51 51
59 60 60 59 59 59 59 58 58 58 58 57 57 57 57 57 51 54 51 57 58 57 34 37 43 48 52 53 45 53 54 49 45 44 48 47 52 49 49 49 52 46 53 51 48 43 36
59 59 59 59 59 58 58 58 58 58 57 57 56 57 57 57 54 52 53 57 57 50 24 36 40 54 52 47 47 46 53 50 41 47 45 40 45 45 44 48 54 49 53 49 46 40 40
59 59 59 59 58 58 58 58 57 57 57 56 56 56 56 57 55 57 58 58 52 31 24 35 44 41 45 49 47 48 48 52 48 44 44 41 48 47 46 50 53 54 47 45 42 39 29
58 58 58 58 58 58 58 57 57 57 56 56 56 56 54 59 51 59 58 50 32 27 39 35 40 46 43 42 44 44 40 39 36 33 33 36 38 44 46 43 48 49 41 28 24 24 26
57 58 58 58 58 57 57 57 57 57 56 55 55 54 57 59 60 58 51 39 28 36 38 45 45 46 40 44 43 41 39 37 43 41 35 32 29 37 42 43 40 42 43 30 24 24 27
57 57 57 58 58 57 57 57 56 56 56 55 55 56 56 58 59 54 42 32 31 35 46 45 46 42 41 45 45 44 41 41 43 44 35 33 32 40 41 45 44 40 35 43 33 35 26
57 57 57 57 57 57 56 56 56 56 55 55 52 55 56 59 58 49 41 35 38 48 51 51 41 45 40 43 43 45 45 49 46 50 52 43 32 38 40 43 43 40 44 35 32 23 25
56 57 57 57 57 56 56 56 56 56 55 55 51 50 53 59 55 45 35 35 47 53 52 47 46 45 45 44 46 46 45 48 52 50 52 48 40 35 38 36 36 37 35 39 38 32 25
56 56 56 56 56 56 55 55 55 55 55 54 51 43 55 56 45 47 41 43 47 51 54 51 50 48 46 46 45 43 45 47 53 52 45 46 40 32 38 46 49 43 40 42 32 30 31
56 56 56 55 55 55 55 55 55 55 54 48 46 49 56 54 41 43 47 49 51 50 50 50 48 50 50 46 40 45 46 50 52 50 46 47 36 27 31 38 44 40 45 44 44 37 31
55 55 55 55 55 55 55 54 54 54 55 50 47 39 50 52 51 48 46 47 47 50 51 52 50 51 48 45 47 43 44 48 50 51 50 49 41 32 28 32 39 34 41 44 37 27 33
55 55 55 56 55 55 54 54 54 54 54 50 49 42 46 41 46 48 48 48 46 45 50 52 48 49 48 42 44 43 46 46 49 48 48 46 31 31 39 42 39 36 39 40 33 37 29
54 55 55 55 55 54 54 54 54 53 54 48 40 38 43 43 48 47 44 46 46 48 47 47 45 50 50 45 46 43 46 45 43 46 44 45 30 33 30 41 39 34 39 40 40 40 39
54 54 55 55 54 54 54 53 53 53 53 46 46 48 41 42 47 44 45 47 47 48 49 52 50 49 48 48 51 51 51 51 49 45 42 41 34 29 26 36 34 29 37 39 41 42 42
54 54 54 54 54 53 53 53 53 53 52 49 46 43 39 39 44 46 46 47 47 48 45 51 52 48 49 54 52 51 48 50 48 46 49 41 39 32 25 28 18 39 46 47 43 45 45
54 55 54 54 53 53 53 53 53 53 53 48 47 43 38 35 42 44 43 43 45 48 47 49 51 52 54 50 45 40 39 41 45 44 45 49 42 33 28 24 36 42 43 42 41 41 49
54 54 54 53 53 53 53 53 53 52 52 49 46 46 42 34 38 44 40 42 38 42 45 48 51 53 50 45 42 35 32 36 36 40 44 47 46 35 33 28 25 41 47 50 48 34 49
54 54 54 53 53 52 52 52 52 52 52 48 46 47 42 37 44 43 39 39 45 42 42 47 45 44 47 40 36 35 34 40 34 35 35 35 37 31 33 31 35 47 49 50 33 36 47
54 54 53 53 52 52 52 52 52 52 51 48 46 47 41 37 40 45 46 40 41 43 38 42 42 43 42 36 37 38 34 38 35 40 37 36 34 34 35 31 24 48 47 40 44 47 47
54 54 53 52 52 52 52 52 52 52 52 49 43 48 47 38 39 45 45 47 45 44 39 43 41 43 43 39 39 39 36 38 37 31 42 34 39 36 38 36 47 49 47 50 52 48 47

GFSGBSN_sfc_temp_051.txt.gz
Temp
64 64 64 63 63 62 62 63 62 62 62 63 62 62 61 61 61 59 59 59 59 60 60 60 60 59 55 44 46 64 70 70 68 64 59 57 53 51 48 51 56 52 58 62 62 60 60
64 64 63 63 63 62 62 62 62 61 62 62 62 61 61 60 60 59 59 59 60 60 59 60 60 59 50 39 62 65 67 67 65 61 60 57 56 57 51 54 51 57 59 59 60 61 63
63 63 63 62 62 62 61 61 61 61 62 62 61 60 60 59 59 58 59 60 59 59 59 59 60 57 47 45 64 60 62 61 64 62 58 60 60 57 56 51 58 57 52 54 56 57 59
63 63 63 62 62 61 61 61 60 61 61 61 60 60 59 58 58 58 59 58 58 59 59 59 59 52 43 62 62 61 60 59 58 62 63 62 62 58 55 55 56 51 50 43 55 57 58
62 62 62 62 61 61 61 60 60 61 61 60 60 59 59 59 59 58 58 58 59 59 59 58 51 47 42 64 55 60 59 57 56 58 58 66 60 54 53 46 42 48 37 43 50 58 57
62 62 62 61 61 61 61 60 59 60 60 60 59 59 58 58 58 57 58 58 58 56 56 58 56 43 50 49 56 58 60 59 52 55 53 54 50 44 44 41 34 38 40 44 45 53 55
61 61 61 61 61 60 60 60 60 59 59 58 59 58 58 58 58 57 53 48 43 42 47 42 44 46 49 55 59 55 57 55 53 50 45 49 41 39 43 43 46 46 44 43 49 55 52
60 61 61 60 60 60 60 60 59 59 59 58 58 58 58 57 57 57 51 44 45 46 38 50 51 50 54 57 47 50 54 47 48 42 48 44 37 45 49 50 48 45 42 43 48 54 52
60 60 60 60 60 60 59 59 59 59 59 58 57 57 57 57 57 51 48 47 53 52 38 46 48 46 49 53 46 45 52 49 47 43 45 42 45 51 50 46 45 43 40 41 43 48 49
59 59 60 59 59 59 59 59 59 58 58 57 57 56 57 57 49 48 46 54 53 51 32 36 43 46 50 50 43 52 55 48 45 42 46 45 49 48 46 44 45 38 48 48 45 41 34
59 59 59 59 59 59 58 58 58 58 57 57 57 56 57 57 46 46 50 53 52 45 18 39 41 52 49 44 46 47 53 48 43 44 45 39 43 43 42 45 48 43 50 45 43 38 36
58 58 58 59 58 58 58 58 58 58 57 56 56 56 56 53 49 51 54 53 48 26 21 35 43 42 41 45 46 49 47 50 49 43 43 41 46 43 43 47 50 52 44 43 39 34 24
58 58 58 58 58 58 58 57 57 57 57 56 56 56 53 56 48 56 53 44 29 20 38 32 38 44 43 42 41 44 42 41 38 32 33 39 38 43 45 42 46 47 39 29 25 21 23
57 58 57 58 58 58 57 57 57 57 56 56 55 55 53 55 54 54 49 37 26 35 36 43 44 43 40 43 41 41 39 37 42 39 35 30 30 39 42 41 38 40 39 28 21 21 25
57 57 57 57 57 57 57 57 57 56 56 55 55 47 47 51 54 52 42 27 31 34 45 43 44 39 39 44 42 37 36 40 43 43 34 33 32 40 43 44 42 38 34 41 32 32 21
57 57 57 57 57 57 56 56 56 56 55 55 43 44 46 53 51 48 35 31 33 44 47 48 39 42 35 40 38 39 38 44 42 47 44 40 30 38 41 44 44 40 44 33 28 21 23
56 57 57 56 56 56 56 56 56 56 55 55 42 41 48 53 49 44 29 31 41 50 49 43 41 42 41 42 43 42 42 45 49 46 48 44 37 34 39 36 37 38 36 38 36 29 23
56 56 56 56 55 55 56 55 55 55 55 48 40 34 48 49 36 39 32 39 46 47 49 47 45 43 41 43 45 41 41 44 51 50 44 45 37 32 34 44 47 42 39 39 29 28 27
55 56 56 56 55 55 55 55 55 55 55 46 36 39 48 46 34 37 41 45 47 46 46 46 44 46 45 41 38 42 41 48 50 48 44 44 33 28 31 37 42 36 39 42 40 36 29
55 55 55 56 55 55 54 54 54 55 55 44 38 36 43 42 42 41 40 42 41 47 46 48 46 46 43 40 43 39 39 46 48 47 50 48 37 30 25 31 36 33 39 40 36 28 32
55 55 55 55 55 54 54 54 54 54 54 43 38 38 42 35 42 39 41 43 42 41 46 48 44 45 43 38 40 39 41 41 46 48 45 42 28 28 36 39 37 35 37 38 31 37 30
54 54 55 55 54 54 54 53 54 54 53 39 34 36 38 34 39 39 39 40 42 43 44 42 42 46 45 40 41 39 42 40 39 41 41 41 26 29 26 38 36 32 38 38 38 39 38
54 54 55 54 54 54 53 53 53 53 49 36 37 39 40 37 36 36 38 44 43 44 46 48 45 44 43 44 45 45 46 46 46 41 39 38 31 24 22 34 32 28 35 37 38 40 41
54 54 54 54 53 53 53 53 53 53 50 38 37 39 33 31 36 37 40 42 41 43 41 47 47 43 47 50 49 48 46 47 47 42 44 36 35 28 21 26 16 36 43 43 40 43 42
54 54 54 54 53 53 53 53 53 53 53 40 39 35 31 26 34 37 38 39 40 42 42 45 46 46 48 45 40 37 36 38 42 42 41 43 40 33 23 24 30 38 40 41 38 39 46
54 54 54 53 53 53 53 53 53 52 52 41 39 39 33 27 30 39 35 36 33 34 39 43 47 49 46 42 41 33 29 33 35 39 42 44 45 33 33 27 22 38 43 48 45 33 45
54 54 54 53 52 52 52 52 52 52 52 44 40 41 35 29 35 40 34 34 39 39 35 44 42 41 44 36 32 32 29 37 30 32 35 35 35 30 32 29 32 44 45 48 32 35 44
54 54 53 53 52 52 52 52 52 52 52 44 39 44 37 30 33 39 42 37 37 34 35 40 41 40 37 33 32 33 31 34 32 35 33 31 31 33 34 30 23 45 43 38 43 44 44
54 54 53 52 52 52 52 52 52 52 52 49 38 47 46 36 34 41 43 45 43 40 34 39 39 42 41 35 34 33 33 34 33 28 36 31 35 32 34 33 44 45 44 47 48 46 45

GFSGBSN_sfc_temp_054.txt.gz
Temp
64 64 64 63 63 62 62 62 62 62 63 63 62 62 62 61 60 60 59 59 60 60 60 60 60 59 55 45 45 62 65 66 67 61 58 55 51 53 46 48 53 51 56 60 60 59 58
64 64 63 63 62 62 61 61 61 61 62 62 62 61 60 60 60 59 59 60 60 60 59 60 60 59 49 39 61 62 60 65 63 59 58 56 53 55 51 50 51 55 57 56 57 57 59
63 63 63 63 62 62 61 61 61 61 62 62 61 60 59 59 59 59 60 60 59 59 59 59 60 56 46 45 61 61 60 61 64 62 57 58 58 53 52 48 54 55 49 53 55 56 56
63 63 63 62 62 61 61 60 60 60 61 61 61 60 59 59 59 59 59 58 58 59 59 59 59 51 40 59 59 59 59 56 60 62 63 60 61 54 51 52 51 49 49 42 53 55 58
62 62 62 62 62 61 61 61 60 60 60 60 60 59 59 59 58 58 58 58 59 59 59 58 50 45 40 62 55 59 59 54 55 57 61 62 57 51 51 44 40 43 36 40 48 56 56
62 62 62 61 61 61 61 60 60 61 60 59 59 59 59 58 58 58 58 58 58 56 56 57 55 41 48 47 54 57 58 55 52 54 53 53 49 43 46 42 34 37 37 42 44 53 53
61 61 61 61 61 60 60 60 60 60 60 59 58 58 58 58 58 58 53 47 42 41 46 42 44 44 49 54 59 52 54 52 53 51 43 49 41 38 42 43 44 43 42 41 46 52 51
60 60 61 60 61 61 60 60 60 59 59 59 58 57 57 58 58 58 50 43 43 45 38 49 49 48 52 55 47 49 54 46 45 40 47 43 38 44 48 47 46 44 40 39 46 52 51
60 60 60 60 60 60 60 59 59 59 59 58 57 57 57 57 57 50 46 46 51 49 36 44 47 45 47 52 45 44 49 49 44 42 45 42 43 49 48 43 42 39 38 38 41 46 46
59 59 59 59 59 59 59 59 59 59 58 57 57 57 57 57 49 47 45 52 51 50 30 37 43 46 49 49 42 51 51 48 44 42 46 43 47 46 44 43 43 36 46 45 44 40 33
59 59 59 59 59 59 59 58 58 58 57 57 56 56 57 56 45 44 50 51 50 44 14 39 41 52 48 44 46 47 53 51 42 42 43 38 41 42 41 44 47 42 47 44 41 37 36
58 58 58 59 59 58 58 58 58 58 57 56 56 56 56 51 47 49 51 50 47 24 15 34 43 39 39 43 45 49 47 51 48 44 43 41 46 43 41 45 48 47 44 40 36 33 25
58 58 58 58 58 58 57 58 57 57 57 56 55 56 53 53 45 52 50 43 25 23 39 34 38 43 43 41 42 44 42 41 37 33 32 38 39 43 43 41 44 43 40 26 26 23 25
57 57 57 58 58 58 58 57 57 57 56 55 55 55 52 53 52 51 45 31 22 35 35 44 43 43 39 41 41 41 40 36 41 38 34 30 29 37 41 39 38 37 38 25 21 21 24
57 57 57 57 57 57 57 57 57 56 56 55 54 46 46 49 52 51 37 22 26 30 42 42 42 36 36 42 41 39 37 40 42 40 33 32 32 41 43 42 42 38 33 38 29 26 20
56 57 57 57 57 56 56 57 56 56 55 55 42 42 45 51 50 47 32 29 32 42 45 45 35 40 33 38 37 38 37 44 43 47 43 36 31 39 41 44 42 40 43 31 27 21 21
56 56 56 56 56 56 56 56 56 56 55 54 42 40 46 50 49 42 25 27 39 47 47 42 39 39 39 38 39 37 36 42 47 45 44 40 34 35 39 37 38 37 36 36 36 28 21
56 56 56 56 55 55 55 55 55 56 55 47 38 34 46 48 40 39 29 37 46 45 47 45 43 42 39 40 40 42 38 41 47 47 40 42 34 31 35 43 46 44 38 40 31 28 26
55 55 56 56 55 55 55 55 55 55 55 43 37 36 46 45 36 37 39 43 45 44 44 44 42 44 43 42 38 39 39 46 47 46 42 42 30 25 29 35 42 38 40 42 40 35 25
55 55 55 55 55 54 54 54 54 55 55 43 38 35 43 43 39 40 37 39 40 45 45 46 44 44 41 38 41 37 38 44 46 46 50 47 34 29 25 30 34 31 37 39 35 25 31
55 55 55 55 54 54 54 54 54 54 54 43 35 35 40 35 38 41 40 44 40 39 44 45 41 43 40 35 37 36 39 39 44 47 43 41 28 27 34 37 36 34 35 36 35 38 30
54 54 55 54 54 54 54 53 54 54 52 37 32 33 39 33 36 36 38 42 40 41 42 40 39 42 42 38 40 37 40 37 38 39 38 38 25 28 26 36 34 32 36 36 37 38 37
54 54 54 54 54 54 53 53 53 53 47 33 34 36 39 35 33 33 37 42 41 42 44 46 43 41 41 43 44 43 44 44 43 40 37 36 29 24 20 31 32 28 34 35 36 39 39
54 54 54 54 53 53 53 53 53 53 47 37 35 34 30 30 32 34 38 41 40 40 39 44 44 40 44 47 46 46 44 43 43 39 42 34 32 26 18 26 14 35 42 41 39 42 42
54 54 54 53 53 53 53 53 53 53 52 39 37 34 29 26 30 34 36 36 38 39 40 43 44 45 45 44 38 35 34 36 39 41 40 40 39 29 20 19 29 36 38 38 35 37 44
54 54 54 53 52 52 52 53 53 52 52 40 37 37 32 27 28 35 33 34 33 32 36 41 46 47 45 41 39 29 26 31 32 39 40 44 43 31 30 26 21 37 42 44 43 31 43
55 54 54 53 52 52 52 52 52 52 52 41 39 39 34 28 32 34 31 30 37 36 36 41 40 41 42 34 31 30 26 35 31 31 34 35 36 28 31 28 30 40 44 45 30 34 43
54 54 53 53 52 52 52 52 52 52 52 42 38 42 36 29 31 37 39 34 35 34 32 38 38 40 36 32 31 31 29 32 30 33 32 31 30 32 33 29 22 42 41 36 42 42 43
54 54 53 52 52 51 52 52 52 52 51 49 38 47 45 35 33 38 41 42 42 41 36 38 36 40 39 37 34 31 31 30 31 27 33 30 34 31 33 33 42 44 44 46 46 44 43

GFSGBSN_sfc_temp_057.txt.gz
Temp
64 64 64 63 63 62 62 62 62 61 62 63 62 61 61 61 60 60 60 59 60 60 60 60 60 59 53 44 45 60 64 64 62 63 55 54 49 52 50 47 51 49 55 58 60 56 57
63 63 63 63 63 62 62 62 61 61 61 62 61 61 60 60 60 60 60 60 60 60 59 59 59 59 47 38 60 60 61 59 60 59 56 55 52 57 53 50 49 55 57 56 57 56 59
63 63 63 62 62 62 62 62 61 60 61 61 61 60 60 59 59 59 59 59 59 59 59 59 59 55 45 43 58 56 56 57 62 58 53 57 58 53 51 47 52 52 48 50 51 54 52
62 62 63 62 62 62 61 61 61 61 60 61 60 60 59 59 59 58 58 58 59 59 59 59 59 50 39 59 56 55 57 57 62 59 57 59 60 53 50 50 49 46 45 40 52 54 56
62 62 62 62 61 61 61 61 60 60 61 60 59 59 59 58 58 58 58 59 59 59 59 59 48 44 39 62 51 54 56 54 58 57 57 63 58 50 49 42 38 40 35 39 46 55 54
61 61 61 61 62 61 61 61 60 60 60 60 59 58 58 58 58 58 58 58 58 56 55 56 53 40 48 45 52 54 57 56 53 53 52 52 48 42 41 39 33 33 34 40 43 50 51
61 61 61 61 61 61 61 60 60 61 60 59 59 58 57 58 58 58 52 46 41 40 44 41 42 43 48 55 57 51 55 52 52 51 43 47 39 37 38 41 42 41 39 39 44 51 49
60 60 60 60 60 60 60 60 60 60 59 59 58 57 57 57 58 58 48 42 42 44 37 48 47 46 51 54 46 49 54 45 46 42 46 42 37 43 47 48 44 43 37 36 44 50 50
59 60 60 60 59 60 59 59 59 59 59 58 58 57 57 57 57 49 45 45 50 49 35 44 46 45 46 51 45 45 50 47 44 42 43 40 42 48 47 45 42 37 36 36 39 45 46
59 59 59 59 59 59 59 59 59 59 58 57 57 57 56 57 49 45 43 50 50 49 25 36 41 44 49 49 42 51 51 46 43 37 46 44 46 45 43 43 42 34 44 43 41 39 32
59 58 58 59 59 59 58 58 58 58 58 57 56 56 56 56 44 43 48 50 49 43 17 38 40 52 50 44 45 44 52 48 41 42 42 38 42 41 39 42 45 40 45 42 39 35 34
58 58 58 58 59 58 58 58 58 58 57 56 56 56 56 50 49 48 50 49 47 23 14 33 42 40 42 45 45 46 46 50 48 45 43 41 44 43 40 44 46 46 41 39 34 32 24
57 57 57 58 58 58 58 57 58 58 57 56 56 55 53 52 44 50 49 42 24 18 37 31 37 39 41 40 42 43 42 40 37 33 34 39 38 41 43 41 44 42 38 25 22 24 22
57 57 57 57 58 57 57 57 57 57 56 55 55 55 52 52 50 49 44 31 19 30 32 41 42 42 37 42 41 42 40 36 42 38 33 30 30 38 41 38 37 36 39 26 21 21 23
57 56 57 57 57 56 57 57 57 56 56 55 53 44 45 48 51 48 39 20 25 29 40 39 39 36 36 42 38 39 37 36 40 39 31 28 30 41 44 41 40 36 34 36 27 24 19
56 56 56 56 56 56 56 56 56 56 56 55 41 42 43 49 50 48 31 30 29 40 43 42 33 37 32 36 37 37 37 42 41 43 40 35 28 40 41 44 41 38 39 31 25 18 20
56 56 56 56 55 55 55 56 56 56 55 53 41 40 45 49 49 42 24 27 37 45 44 40 36 36 36 35 36 36 38 40 45 44 44 38 34 34 39 37 38 37 36 35 35 28 21
56 55 55 56 55 55 55 55 55 55 55 46 38 33 45 47 39 40 28 36 46 43 45 43 41 40 37 38 36 36 35 39 47 47 38 42 34 31 34 40 44 43 39 38 30 24 23
56 55 55 55 54 54 54 54 55 55 55 40 37 37 46 46 31 30 37 41 43 42 42 42 41 42 41 38 35 37 38 45 49 47 43 43 33 28 30 35 41 37 40 41 37 31 23
55 55 55 54 54 54 54 54 54 55 54 42 36 32 42 44 42 38 35 38 38 44 43 44 42 43 39 37 40 36 37 43 46 46 50 47 33 29 26 30 34 34 38 40 38 30 32
55 55 55 54 54 54 54 53 54 54 53 41 34 31 35 28 37 39 39 40 38 38 42 43 40 41 38 33 35 34 38 39 43 48 41 40 29 28 33 37 35 33 34 38 35 38 32
55 55 54 54 54 54 53 53 53 53 50 35 30 30 34 31 34 33 40 41 39 40 40 38 38 41 40 36 38 35 38 36 37 38 38 37 25 28 25 33 33 32 35 35 38 39 39
55 54 54 54 53 53 53 53 53 53 46 32 33 35 34 34 31 31 34 39 41 41 42 43 41 39 38 41 42 41 42 42 41 39 35 35 29 23 19 29 30 27 32 34 35 37 39
54 54 54 53 53 53 53 53 53 53 46 36 33 32 30 30 31 32 36 39 40 40 37 42 42 39 43 46 44 43 43 41 40 37 40 33 30 25 18 25 14 33 38 40 37 41 40
54 54 54 53 53 52 53 52 53 53 50 38 35 32 29 27 29 32 34 36 39 41 39 41 43 43 44 42 37 35 33 34 36 38 37 38 34 24 19 17 28 34 36 36 35 36 41
55 54 53 53 52 52 52 53 52 52 51 39 36 36 31 28 28 33 30 32 30 31 34 39 44 45 46 38 37 29 25 29 29 35 41 43 42 30 25 24 20 33 40 42 40 30 41
55 54 53 53 52 52 52 52 52 52 52 40 37 37 33 28 31 32 29 29 33 33 33 38 36 39 42 37 32 29 25 32 30 30 32 35 35 27 27 28 29 38 41 43 28 32 41
54 54 53 53 52 52 52 52 52 52 51 41 37 39 35 28 30 35 38 32 33 31 30 36 38 39 36 34 34 31 27 31 28 32 31 30 29 30 33 28 21 40 39 35 40 42 42
54 54 53 52 52 51 52 52 52 51 51 47 40 46 44 37 32 36 39 40 39 39 33 34 33 34 37 36 33 31 30 28 28 26 31 29 33 30 32 31 41 42 42 45 44 43 42

GFSGBSN_sfc_temp_060.txt.gz
Temp
63 63 63 63 63 63 62 62 62 61 62 62 62 61 61 61 60 60 60 60 60 60 60 60 60 59 52 43 43 60 63 63 61 58 57 53 49 47 44 47 49 44 53 56 58 58 57
63 63 63 63 62 62 62 62 61 62 61 61 61 61 60 60 60 60 60 60 60 60 59 60 59 58 46 36 55 57 58 59 58 57 55 55 53 53 48 47 47 50 51 54 56 55 55
63 63 63 63 63 61 62 62 61 61 61 61 61 60 60 59 59 59 59 59 59 59 59 59 59 55 43 41 55 55 56 54 56 54 54 57 54 53 49 45 50 49 45 48 52 54 52
62 62 62 62 62 62 61 61 60 60 61 61 60 59 59 59 59 58 58 59 59 59 59 59 59 48 38 57 55 55 54 52 56 58 59 60 57 54 49 49 48 43 43 40 47 52 53
62 62 62 62 62 62 62 61 61 61 61 60 60 59 59 59 58 58 58 59 59 59 59 59 48 42 39 60 51 51 51 48 55 57 57 61 56 50 51 42 38 43 32 36 42 52 49
61 61 61 61 61 61 61 61 61 61 60 60 59 59 58 58 58 58 58 58 58 55 54 55 52 39 48 46 51 51 56 55 52 51 50 50 48 41 41 39 33 35 33 34 38 47 49
61 61 60 61 61 60 60 60 60 60 60 59 58 57 58 57 58 58 52 46 41 41 46 40 42 42 48 54 52 52 54 51 53 50 40 46 40 37 36 41 40 39 37 36 40 50 47
61 60 60 60 60 60 60 59 60 60 59 58 57 57 57 57 58 57 47 41 42 44 39 48 46 46 49 52 45 49 53 46 46 39 42 41 36 42 46 46 43 41 36 34 41 48 49
60 60 59 59 60 60 60 59 59 59 59 58 57 57 57 57 57 49 44 44 49 47 37 44 45 44 45 49 43 43 49 45 43 40 40 40 40 47 46 42 40 36 35 35 37 42 44
60 59 59 59 59 59 59 59 59 59 58 57 57 57 57 56 49 44 42 49 49 48 24 36 40 44 49 47 42 50 50 46 43 41 45 43 46 44 43 41 42 34 42 42 40 37 30
59 59 58 58 58 59 59 58 58 58 58 57 57 56 56 56 43 42 46 48 47 42 13 38 39 51 49 44 43 46 51 48 41 41 41 38 40 40 39 42 46 39 44 41 38 33 31
59 58 58 58 58 58 58 58 58 58 57 56 56 56 55 52 50 46 49 48 44 23 16 34 42 39 41 44 44 46 46 48 49 43 43 40 43 42 40 44 46 44 40 37 33 32 22
58 58 57 57 58 58 57 57 58 57 57 56 56 55 53 50 43 49 48 41 23 18 35 34 38 42 40 40 40 40 39 38 37 32 34 40 39 40 43 43 43 41 39 26 25 22 21
58 57 57 57 57 57 57 57 57 57 56 55 55 54 53 51 48 48 43 31 18 28 30 42 42 42 35 40 40 41 37 35 40 39 33 30 30 37 40 39 37 35 37 25 20 22 23
57 57 56 56 56 56 56 57 56 56 56 55 52 43 44 47 52 49 40 19 23 27 39 39 40 37 38 40 39 39 36 37 41 40 33 27 30 41 42 39 39 35 31 36 26 22 18
57 56 56 56 56 56 56 56 56 56 55 54 41 41 42 48 51 47 31 29 28 39 42 41 32 38 32 38 34 36 36 42 41 42 39 33 28 40 42 42 40 37 39 30 29 17 18
57 56 56 56 55 55 55 55 56 55 55 53 41 39 44 47 50 41 24 28 36 43 43 39 35 36 34 36 36 34 35 39 43 40 42 37 33 34 41 37 38 37 35 33 32 26 19
56 56 55 55 55 54 54 55 55 55 55 45 38 34 45 46 39 40 27 34 44 42 43 42 40 39 36 36 34 33 34 36 45 44 37 37 34 31 35 42 45 38 40 37 31 24 23
56 56 55 54 54 54 54 54 54 55 54 39 35 39 46 45 32 28 35 39 42 41 40 40 39 41 40 40 33 35 36 43 46 43 38 39 29 27 30 35 40 37 41 40 37 33 21
56 55 55 54 54 54 54 54 54 54 53 41 35 31 42 44 43 34 33 36 37 42 41 43 40 41 38 37 37 35 35 41 45 45 49 46 32 28 24 29 32 33 37 40 38 31 31
56 55 55 54 53 53 53 53 54 53 53 41 33 32 34 30 37 33 35 37 36 36 41 42 39 39 37 32 34 34 36 38 42 47 43 43 28 27 32 34 34 33 34 36 34 37 32
55 55 54 54 53 53 53 53 53 52 49 35 31 31 32 31 32 31 38 35 40 39 41 37 37 39 38 34 37 34 36 34 35 38 37 37 28 28 24 33 32 31 33 34 36 37 37
55 55 54 54 53 53 53 53 53 52 45 32 31 33 33 32 30 30 31 36 39 41 43 44 40 38 36 39 40 39 41 41 40 38 36 36 31 24 19 28 29 25 32 33 33 36 38
55 54 54 53 53 53 53 53 53 51 45 35 32 32 30 30 31 31 34 37 39 40 38 43 42 37 40 44 43 42 41 40 40 35 38 31 29 25 18 24 13 32 36 38 36 38 38
55 54 54 53 53 53 52 52 53 51 49 36 34 32 29 27 30 31 32 33 38 40 40 38 41 42 44 43 38 35 32 33 34 36 36 37 32 24 19 17 28 31 34 34 33 35 39
55 54 53 53 52 52 52 52 52 52 49 38 35 34 31 28 28 31 28 30 28 28 36 37 42 41 45 39 38 30 27 28 28 32 40 42 40 30 24 20 19 32 37 41 39 28 40
55 54 53 53 52 52 52 52 52 52 50 40 36 36 32 28 30 31 28 27 31 28 27 35 35 38 39 35 32 29 25 31 28 29 33 34 34 27 26 23 28 37 39 41 27 31 40
54 54 53 53 52 52 52 52 51 51 50 41 37 40 35 28 30 33 35 30 31 29 26 35 36 38 37 34 35 32 27 29 26 30 30 29 28 26 29 25 20 39 38 33 40 40 41
54 54 53 52 52 52 52 51 51 51 50 45 36 46 41 37 32 35 36 37 37 36 31 31 33 35 36 35 32 30 30 27 27 25 30 28 32 29 31 31 40 39 41 43 43 42 41

GFSGBSN_sfc_temp_063.txt.gz
Temp
64 64 63 63 64 62 62 63 62 62 62 62 62 62 61 61 60 60 60 61 61 61 60 60 60 59 53 45 44 59 63 63 61 55 55 54 51 51 46 51 51 49 53 57 60 60 58
63 63 63 63 63 63 62 62 61 61 62 62 62 61 61 60 60 59 59 60 60 60 60 60 59 58 47 36 56 58 59 60 56 55 55 54 52 54 51 50 50 52 53 54 56 56 57
63 63 63 62 62 62 63 62 61 60 61 61 62 61 60 60 60 59 59 59 60 60 60 60 60 55 44 41 56 56 56 56 57 54 53 55 56 54 53 48 54 52 48 50 53 54 53
63 62 62 62 62 62 62 61 60 61 61 61 60 60 59 59 59 59 59 59 59 59 59 59 58 49 38 56 55 54 53 53 56 56 54 57 58 55 51 52 50 46 47 42 50 53 54
63 62 62 62 62 61 61 61 61 60 60 60 60 60 59 59 59 58 58 59 59 59 59 58 48 44 39 58 51 51 51 48 51 56 58 59 56 51 51 45 41 44 38 40 43 53 51
63 62 61 61 61 61 61 60 60 60 60 59 59 59 59 58 58 58 58 58 57 55 54 55 52 40 46 44 50 51 53 51 51 53 50 49 48 43 43 43 34 36 37 41 42 48 49
62 62 61 60 61 61 61 60 60 60 59 59 58 58 58 58 58 58 51 45 41 41 45 40 41 41 47 52 51 48 53 50 52 50 41 44 41 38 41 44 44 43 40 41 45 49 48
61 61 60 60 60 60 60 61 60 59 59 58 58 58 58 57 58 57 47 41 42 44 38 47 46 45 49 52 45 49 53 46 46 40 42 40 38 43 47 47 44 44 39 40 46 48 48
61 61 60 60 60 60 60 60 59 59 58 57 57 57 57 57 57 48 43 44 48 47 36 43 45 44 45 49 42 44 49 47 44 38 39 38 42 47 47 43 42 40 39 38 40 45 48
61 60 60 59 59 59 59 59 59 58 58 57 57 57 57 56 48 43 42 48 48 47 24 35 40 45 48 48 42 50 50 47 43 37 40 41 46 45 43 41 43 38 44 43 41 40 35
61 60 59 58 58 58 59 58 58 58 58 57 57 57 56 55 43 42 46 47 47 42 15 37 40 53 50 43 44 44 51 49 38 40 41 37 41 42 41 43 46 41 44 42 41 38 38
60 60 59 58 58 58 58 58 58 58 57 57 56 56 56 52 49 45 47 47 44 24 17 32 43 41 43 44 44 46 47 50 49 43 44 41 45 44 43 45 46 44 41 39 37 36 30
60 59 58 57 57 57 57 57 58 57 57 56 56 55 53 50 42 48 48 41 23 18 34 35 36 40 39 39 40 42 40 40 37 32 33 40 39 42 43 42 46 44 38 29 26 25 27
59 58 58 57 57 57 57 57 57 57 57 55 54 54 52 50 47 47 46 32 18 28 32 42 42 40 34 39 39 40 37 37 41 39 35 33 30 38 41 40 38 40 39 28 22 23 27
59 58 57 57 56 56 56 56 56 56 56 55 53 43 44 46 51 50 40 18 23 28 40 39 39 33 35 39 39 38 36 38 41 42 35 29 32 42 42 41 42 38 35 38 28 26 25
59 57 57 56 56 56 55 56 56 56 55 54 41 40 42 47 51 47 34 29 28 38 41 40 34 37 30 37 35 36 36 41 41 44 42 35 31 40 42 43 42 40 41 32 31 20 22
58 57 56 56 55 55 55 55 55 56 55 52 40 38 45 47 50 42 23 26 35 42 42 38 35 38 33 33 35 34 36 41 44 42 43 38 35 35 41 38 38 37 34 35 35 30 25
57 57 56 56 55 54 54 54 55 55 55 46 38 35 47 45 39 39 28 33 44 40 42 41 42 42 36 39 34 33 34 39 45 44 38 39 34 31 35 42 45 43 39 36 29 25 26
57 57 56 55 54 54 54 54 54 55 54 39 35 40 48 45 33 29 34 38 40 40 39 39 39 43 42 40 33 35 36 43 44 43 39 40 31 27 30 37 41 38 41 41 36 33 23
57 56 56 55 54 53 53 53 54 54 53 41 36 32 42 44 42 38 32 34 35 41 41 42 39 41 41 39 37 34 35 41 44 46 48 44 32 29 25 30 35 32 39 42 39 32 34
56 56 55 54 54 53 53 53 53 53 53 40 33 31 33 32 37 31 33 37 36 35 40 40 37 38 36 34 36 34 36 37 42 47 43 40 28 27 33 35 35 34 35 39 35 37 32
56 56 55 54 53 53 53 53 53 52 49 34 31 31 31 29 31 29 34 33 39 41 42 37 36 38 37 34 36 34 36 35 36 37 38 39 28 29 26 34 34 31 34 35 37 39 39
55 55 55 54 53 53 53 53 52 51 46 32 30 32 33 31 29 30 31 34 39 40 43 44 40 37 35 38 39 38 40 40 40 37 34 34 30 26 23 29 30 28 33 33 34 36 38
55 55 54 54 53 53 53 53 52 51 44 35 32 31 31 29 31 31 32 35 39 39 39 43 43 37 39 42 41 42 41 39 39 35 38 31 31 28 24 26 16 34 37 37 35 38 38
55 55 54 53 53 53 52 52 52 51 48 35 32 32 29 26 30 30 30 31 35 39 39 40 41 41 41 42 37 34 34 36 36 36 35 36 31 25 22 19 28 33 35 34 33 36 39
55 54 54 53 53 52 52 52 52 51 48 36 33 33 31 29 27 31 28 28 27 32 36 37 42 43 43 38 37 28 26 29 28 33 40 41 40 32 26 20 20 33 38 41 40 30 42
55 54 54 53 53 52 52 52 51 50 49 39 36 35 33 28 28 28 26 27 30 27 28 33 34 39 40 35 31 29 26 32 28 29 32 32 32 27 27 24 28 37 39 41 28 33 42
54 54 53 53 52 52 52 51 51 50 49 40 36 38 34 28 29 32 34 28 30 28 26 31 36 36 37 33 34 31 27 29 28 30 30 29 28 26 28 26 21 39 38 34 40 42 42
54 53 53 52 52 52 52 51 51 51 50 44 35 42 40 32 31 34 35 35 35 34 30 29 31 35 35 34 33 30 30 27 26 25 29 29 32 29 31 31 39 39 39 42 43 41 41

GFSGBSN_sfc_temp_066.txt.gz
Temp
65 64 64 63 63 63 63 62 61 61 62 62 63 62 62 61 61 60 60 61 61 61 61 60 60 59 58 50 51 64 64 63 60 57 53 56 56 60 56 57 57 50 61 65 67 65 66
65 64 63 63 63 63 62 63 62 61 62 62 62 62 61 61 60 60 60 60 60 60 60 60 60 58 54 44 62 64 62 60 56 54 53 57 59 63 61 59 56 59 55 62 64 62 64
64 64 63 63 63 62 62 62 61 61 61 62 62 61 60 60 60 60 60 60 60 60 60 61 60 59 50 51 63 63 60 59 59 56 50 56 59 60 62 56 61 62 54 52 59 61 61
64 64 63 63 62 62 62 62 61 61 61 61 61 60 59 60 59 59 59 59 59 60 60 59 59 56 47 60 64 59 59 58 58 59 53 56 58 60 60 62 59 55 56 47 57 60 61
64 64 63 62 62 62 62 62 61 60 61 60 60 60 59 58 59 59 59 59 59 60 60 59 55 52 44 59 54 57 57 55 57 58 56 56 57 57 56 53 50 52 49 51 50 61 59
64 63 62 62 61 61 61 61 61 60 60 60 59 59 59 58 58 58 58 58 59 58 59 59 57 46 50 44 49 54 58 55 55 55 51 48 51 50 54 51 42 46 50 52 51 55 57
64 62 62 61 61 61 61 61 61 60 60 59 59 58 58 57 57 58 57 58 53 50 52 48 48 46 50 49 50 49 54 51 56 50 42 43 42 43 51 55 56 55 50 49 55 57 55
63 61 62 61 61 60 60 60 60 60 59 59 58 58 57 57 57 58 56 52 51 51 45 52 51 50 54 52 44 47 57 50 47 39 44 39 40 53 55 53 53 52 49 49 52 56 55
62 61 61 61 60 60 60 60 60 60 59 58 58 57 57 57 57 55 53 52 56 55 45 47 51 49 50 51 45 46 52 53 47 40 39 37 45 53 52 50 49 51 49 49 50 52 55
62 61 61 60 60 59 59 59 59 59 59 58 57 57 57 57 52 54 52 56 56 56 37 42 45 47 51 51 42 51 53 50 46 40 40 42 52 50 49 47 52 43 53 52 49 49 44
62 61 61 60 59 59 59 58 58 58 58 57 57 56 56 56 53 51 52 56 56 53 29 43 45 56 52 48 47 47 55 53 43 41 40 39 47 47 46 49 53 46 52 51 50 49 47
61 61 60 59 59 58 58 58 58 58 58 57 56 56 55 53 55 54 56 56 53 35 26 36 47 44 43 47 46 49 50 54 50 45 43 44 50 50 50 51 53 51 51 50 49 48 36
61 60 60 59 58 58 57 57 57 58 57 56 56 55 55 56 51 56 56 53 34 31 39 35 41 45 44 41 42 44 44 41 38 32 33 41 43 48 50 47 51 52 49 35 33 33 36
60 60 59 58 58 57 57 57 57 57 57 56 54 54 54 55 57 56 51 42 32 35 37 45 45 45 39 40 41 40 41 39 45 41 37 33 33 44 45 49 47 49 49 39 28 32 39
60 59 59 58 57 57 57 56 56 56 56 55 53 54 54 54 55 53 45 35 34 36 45 44 43 41 41 42 40 39 38 40 46 49 40 36 33 45 45 48 49 46 41 48 39 38 38
59 59 58 58 57 57 56 56 56 56 55 54 53 52 51 54 54 50 40 35 38 43 46 47 39 43 40 41 38 37 37 45 44 49 50 43 32 41 43 49 49 47 52 39 40 29 30
59 58 57 57 57 56 55 55 55 55 55 52 52 47 51 55 52 45 36 36 42 48 48 45 43 42 43 42 42 39 37 42 47 46 50 48 44 36 45 41 44 44 42 44 45 42 35
58 57 57 57 56 55 55 54 55 55 53 52 49 40 50 54 41 41 40 41 45 47 49 48 48 47 44 44 43 42 39 43 50 50 45 46 44 33 37 45 47 51 48 48 39 35 39
57 57 56 56 55 54 54 54 54 54 54 50 47 45 49 49 36 38 43 43 46 46 47 46 46 48 49 45 41 43 44 48 49 47 46 48 40 31 32 39 45 41 45 48 46 42 34
57 56 56 56 55 54 54 53 54 54 54 53 47 37 43 44 46 41 41 43 43 48 48 49 48 49 47 44 46 42 43 46 49 50 48 50 42 39 36 38 45 38 43 46 43 34 37
56 55 55 55 54 54 53 53 53 53 53 52 46 43 44 36 40 42 42 42 42 42 48 49 46 47 46 42 43 42 44 45 47 48 48 49 36 36 41 41 41 40 42 44 38 40 35
55 55 55 55 54 54 53 53 53 52 51 49 44 43 43 42 41 42 42 43 42 44 46 44 44 46 47 44 46 43 45 46 45 46 44 45 35 37 34 39 40 37 42 44 44 45 43
55 54 55 55 54 54 53 53 52 52 51 47 42 44 47 38 40 41 43 42 42 44 47 48 47 46 44 45 48 50 52 52 51 47 44 42 38 35 33 36 37 34 41 42 43 46 45
54 54 54 54 54 53 53 52 52 52 50 49 44 45 45 39 41 42 40 41 42 42 43 47 48 46 46 51 51 52 51 49 49 46 50 42 40 38 33 33 27 40 46 46 44 46 48
54 54 54 54 54 53 53 52 52 50 48 46 42 46 46 39 42 39 39 39 41 44 44 43 45 47 49 49 46 42 42 43 43 44 45 48 43 34 32 33 39 43 42 43 42 43 49
54 54 54 54 53 53 53 52 51 50 48 45 42 44 47 43 38 40 39 38 41 39 42 42 47 49 50 48 43 35 35 38 36 38 45 46 47 42 35 29 28 42 47 49 49 40 51
54 54 54 54 53 53 52 52 51 51 49 46 42 43 47 39 38 39 39 39 39 39 41 41 41 42 45 43 36 37 37 40 36 35 35 35 37 35 36 34 39 48 49 50 36 39 51
53 53 53 53 53 53 52 52 51 51 49 47 42 44 46 39 38 40 40 38 38 39 40 38 39 39 37 38 40 40 40 41 39 41 40 38 36 35 36 31 29 49 46 41 47 51 51
53 53 53 53 53 52 52 52 51 51 50 48 42 46 47 42 39 42 42 42 42 41 40 39 35 35 36 34 39 41 40 39 39 36 42 37 44 41 41 42 48 49 49 51 50 49 50

GFSGBSN_sfc_temp_069.txt.gz
Temp
65 65 64 64 64 63 63 63 62 62 62 62 62 62 62 61 61 61 60 60 61 61 61 61 61 60 60 54 56 67 65 64 62 58 54 54 56 58 56 59 53 57 63 66 61 68 70
66 65 64 64 63 63 63 63 62 62 62 62 62 62 60 61 60 60 60 60 61 61 61 61 61 59 57 47 66 67 66 62 57 54 54 54 57 65 63 61 56 58 55 61 58 65 69
65 65 64 64 63 63 62 62 62 61 62 62 62 61 60 60 60 60 60 60 60 61 61 60 60 62 53 53 67 66 64 60 58 54 50 55 56 58 66 59 64 58 51 53 58 56 65
65 65 64 64 63 62 62 62 62 61 61 61 61 61 60 59 59 59 59 60 60 60 60 60 59 60 50 64 68 63 64 59 58 56 54 53 56 59 64 65 60 50 50 41 53 62 64
65 64 64 63 62 62 62 62 61 61 61 61 60 60 59 59 59 58 59 59 59 60 60 60 57 55 48 62 57 60 61 57 56 54 54 56 55 59 60 54 49 51 40 43 48 54 60
65 65 63 63 62 62 62 61 61 61 61 60 60 59 59 58 58 58 59 58 60 59 61 63 61 47 53 45 49 54 61 58 53 50 49 48 50 51 55 52 41 46 46 50 51 51 56
65 65 63 62 62 61 61 61 61 61 60 60 59 58 58 57 58 58 58 61 55 53 55 51 52 51 53 48 50 52 58 55 53 47 38 43 40 42 53 57 60 57 54 54 56 60 56
65 65 63 61 62 61 61 61 60 60 60 59 58 58 57 57 57 57 58 54 54 54 48 57 55 55 55 50 43 49 57 51 48 39 41 40 40 53 59 59 56 58 54 54 57 59 58
65 64 63 61 61 61 60 60 60 60 59 59 58 58 57 57 57 56 57 56 61 60 48 51 54 52 48 51 48 48 54 53 45 40 40 37 46 56 55 54 53 55 52 52 51 56 58
65 63 62 61 60 60 60 59 59 59 58 58 58 57 57 56 51 59 55 60 61 60 38 44 47 51 54 54 45 52 55 51 45 42 46 42 52 52 52 51 55 48 58 56 53 51 45
64 63 62 60 60 60 59 59 59 58 58 58 57 57 56 56 56 55 56 61 61 56 29 46 48 60 56 47 46 50 59 57 47 45 43 40 48 50 49 52 57 50 56 54 52 51 52
64 62 61 60 59 59 59 58 58 57 58 57 56 56 55 55 58 58 61 60 56 35 27 38 49 47 47 50 49 52 53 57 55 48 47 46 51 52 53 56 56 56 53 52 52 50 38
63 62 60 60 59 59 58 58 57 57 57 57 55 55 56 59 53 61 60 55 34 32 43 39 44 47 46 43 44 46 45 45 43 33 33 42 44 51 53 50 54 55 49 37 35 34 36
63 62 60 59 59 58 58 57 57 57 56 56 54 56 55 59 62 60 56 44 31 38 40 49 48 46 38 44 44 43 45 43 46 39 36 34 32 46 49 52 48 50 51 40 31 34 40
62 61 59 59 59 58 58 57 56 56 56 55 54 58 57 59 60 58 48 34 36 41 49 47 47 38 41 43 43 40 42 45 48 44 39 39 35 46 47 51 52 49 42 51 42 45 40
62 60 58 58 58 58 57 57 56 56 55 54 56 56 54 59 57 52 41 37 40 49 50 51 43 46 38 43 41 38 42 49 48 51 54 48 34 43 44 51 52 50 56 40 41 30 32
59 60 58 58 57 57 57 56 56 55 55 54 56 48 54 57 55 45 36 40 46 52 52 48 47 46 47 43 43 42 40 45 52 50 53 52 45 40 46 45 45 46 44 47 48 44 36
58 59 58 57 56 56 56 56 55 55 54 51 54 41 53 55 41 44 41 46 47 51 53 51 51 50 49 49 44 45 40 45 55 53 46 51 44 34 41 49 52 49 48 48 39 37 43
56 59 57 56 55 55 55 55 55 55 54 56 51 45 51 50 36 40 47 47 49 49 51 50 49 51 52 49 43 47 44 50 53 52 50 51 43 31 32 43 48 44 50 50 49 46 36
57 58 57 55 54 54 55 55 54 55 55 55 52 38 43 44 49 45 44 46 46 51 51 52 51 52 50 48 50 45 45 48 52 52 49 52 47 42 37 41 47 41 46 49 46 34 40
54 57 56 55 54 54 55 54 54 54 54 54 53 49 51 37 42 45 47 48 46 44 51 53 49 50 49 45 46 45 47 47 50 49 51 51 39 38 44 45 45 43 45 46 41 44 38
55 57 55 54 53 54 54 54 54 54 54 53 50 48 49 50 48 46 45 46 46 47 49 47 47 50 51 47 48 45 48 48 47 48 49 50 37 40 36 42 42 39 45 46 47 47 46
55 56 55 54 53 54 54 53 53 54 54 53 51 51 53 46 47 46 48 49 48 50 49 52 51 50 48 48 51 54 56 56 54 49 47 46 41 36 33 40 40 35 43 45 46 49 49
56 55 54 53 53 54 54 53 53 53 54 57 54 54 50 45 47 47 46 48 47 48 47 50 52 50 49 55 56 57 55 54 54 51 53 45 43 40 34 36 27 42 50 49 48 50 52
53 54 54 53 53 53 53 53 53 53 52 54 51 52 53 47 50 44 45 47 47 48 48 48 48 51 54 52 48 44 44 45 46 49 49 52 45 37 33 35 43 45 44 45 44 45 52
54 54 53 52 52 52 53 53 52 53 51 52 51 51 53 48 44 48 45 47 46 47 46 46 51 54 53 49 45 36 35 41 38 41 48 49 50 41 38 31 30 45 49 53 52 40 53
55 54 53 53 52 52 53 52 51 50 51 52 47 48 54 44 42 45 45 44 45 46 47 46 45 46 50 45 40 40 38 45 38 37 37 38 40 36 35 34 42 51 52 53 37 39 52
54 53 53 52 52 52 53 52 52 51 51 52 45 49 51 44 41 45 45 44 43 45 46 43 44 44 40 38 39 42 42 44 42 45 41 38 36 36 38 32 30 52 49 42 48 53 52
53 52 52 52 52 52 52 52 52 51 50 53 45 51 55 46 40 47 46 46 45 44 46 45 40 37 37 35 42 46 43 45 44 37 46 40 45 41 43 40 51 53 51 53 53 51 51

GFSGBSN_sfc_temp_072.txt.gz
Temp
66 65 65 65 64 64 63 63 63 62 62 62 63 63 62 61 61 61 61 61 61 61 62 61 62 61 58 53 54 67 67 64 63 58 55 53 52 52 48 54 53 50 54 59 60 66 67
67 65 64 65 64 64 63 63 63 62 62 62 62 62 62 61 60 61 61 60 61 61 61 61 61 61 55 44 66 67 65 63 59 56 52 53 54 58 54 57 51 50 51 58 56 59 61
67 66 64 64 64 63 63 63 62 62 62 62 62 62 61 60 60 60 60 60 61 61 61 61 61 60 52 51 66 65 65 60 58 55 50 53 53 50 57 55 57 53 45 50 53 56 53
67 66 65 64 64 63 62 62 62 61 62 61 61 61 60 60 60 59 59 60 60 60 60 61 60 58 47 63 64 63 64 60 58 56 51 55 54 51 52 62 55 46 45 42 49 53 56
67 67 66 64 64 63 62 62 62 61 61 61 61 60 60 59 59 59 59 59 59 60 60 60 55 53 46 63 56 59 61 56 55 54 54 57 52 51 56 49 45 45 36 41 47 53 51
66 66 65 64 64 63 62 62 62 61 61 61 60 59 59 59 58 58 58 59 59 59 60 62 60 47 52 47 48 53 59 59 52 50 49 48 47 45 48 47 36 36 41 41 43 49 49
66 66 65 64 63 62 62 62 61 61 61 60 59 59 58 58 58 58 57 57 51 48 54 50 52 51 51 47 51 50 57 54 50 45 37 42 39 39 46 50 53 42 44 43 48 55 49
65 66 65 64 62 61 61 61 61 61 60 60 59 58 58 58 58 58 56 52 53 53 45 58 56 53 54 51 45 50 57 48 44 37 41 40 37 49 55 55 54 53 47 45 48 54 51
63 65 65 65 62 61 61 61 61 60 60 59 58 58 57 58 57 55 54 56 61 60 44 52 54 51 49 52 47 47 52 49 43 40 39 38 43 54 51 52 50 48 47 43 44 48 53
62 62 65 64 62 61 60 60 60 59 59 58 58 57 57 57 50 57 54 60 61 59 35 44 48 51 53 54 44 54 52 51 44 40 43 42 50 50 45 48 52 44 55 54 51 44 38
61 62 63 63 62 60 59 60 60 59 58 58 57 57 57 56 52 53 56 61 60 53 25 46 49 61 57 49 48 48 58 53 44 44 44 39 45 46 47 51 55 48 54 52 50 46 45
60 61 60 63 62 60 59 59 59 58 57 57 57 56 56 54 54 58 60 59 53 33 22 37 50 47 47 50 49 51 53 56 55 47 44 44 52 47 44 53 54 54 51 49 47 44 30
59 59 59 60 61 59 58 59 58 58 57 56 55 56 55 59 51 60 59 51 33 29 43 38 44 48 46 44 45 47 46 44 40 32 33 41 43 49 51 46 51 51 44 29 26 25 26
58 59 58 57 60 59 57 58 58 57 57 55 55 56 56 59 60 59 53 41 29 39 40 50 48 46 40 45 44 44 44 40 45 41 36 33 31 44 49 46 42 44 43 31 25 24 29
57 58 58 57 60 58 57 57 58 57 56 55 55 53 54 57 59 56 45 33 34 39 48 46 47 40 40 43 43 41 41 44 45 43 38 34 34 47 48 49 48 42 34 44 35 36 27
57 58 58 57 59 58 57 56 57 56 55 54 52 52 51 58 58 52 40 37 39 50 52 50 40 44 39 41 40 39 41 47 46 49 49 45 32 43 45 50 49 45 50 33 32 23 25
56 56 57 57 59 57 56 56 56 56 55 55 51 45 52 58 54 45 35 39 47 52 53 48 46 45 45 41 43 39 41 45 51 49 48 47 40 38 43 40 42 42 39 42 41 35 24
56 55 56 57 56 56 56 55 55 56 55 52 50 40 53 53 40 43 39 45 48 50 53 50 50 49 48 47 43 44 40 44 52 51 43 49 41 33 37 48 49 46 43 43 31 29 31
55 55 55 55 57 55 55 54 55 55 55 52 47 43 50 50 36 38 45 47 50 49 49 49 49 50 51 48 41 44 45 51 52 50 46 46 37 29 29 38 44 40 45 47 45 39 30
54 53 54 55 56 55 54 54 54 55 56 51 47 36 42 44 46 42 43 45 44 50 51 52 51 51 48 46 48 43 43 47 50 50 50 49 42 35 30 34 41 35 42 46 40 28 33
53 52 53 53 56 54 53 53 54 55 55 50 48 42 46 35 39 43 46 48 45 43 49 52 47 49 47 43 44 44 46 45 48 48 47 46 34 32 39 42 41 39 41 42 37 39 31
54 52 52 52 55 54 53 53 53 55 55 47 45 44 46 46 47 43 45 44 46 47 48 46 45 49 48 43 45 42 45 44 42 45 45 47 31 33 29 39 38 33 40 42 43 44 42
52 51 51 55 55 53 52 53 53 54 54 47 47 49 47 45 44 42 43 47 47 49 49 52 50 47 46 44 48 49 51 52 51 44 42 42 36 30 28 35 33 28 37 40 41 44 43
51 51 50 51 54 53 52 52 54 54 54 51 49 49 43 38 42 43 48 48 48 48 46 50 50 46 46 52 51 50 48 49 49 45 51 41 39 33 27 28 17 37 46 46 44 46 47
51 51 50 52 52 53 52 53 53 54 54 49 48 47 45 40 43 44 46 46 46 46 47 47 47 48 50 47 42 39 38 39 43 44 43 45 39 31 27 26 35 38 40 40 39 40 47
51 51 51 52 53 52 52 52 53 54 54 49 46 46 45 43 37 45 43 45 41 41 42 44 48 50 48 44 41 34 28 35 34 37 44 46 46 35 31 24 24 37 45 48 45 31 47
50 50 50 55 53 52 51 52 53 54 53 49 44 46 45 38 38 40 40 39 43 43 41 43 43 43 45 40 33 32 31 41 32 32 32 34 34 29 30 28 33 44 47 47 27 33 46
49 49 51 53 52 52 51 51 53 53 53 49 43 47 44 38 37 43 44 39 40 41 38 39 40 40 39 36 36 34 34 37 34 38 35 34 29 30 31 27 23 44 43 35 40 45 45
49 49 49 52 52 51 51 51 51 52 52 52 41 50 49 40 37 44 44 44 42 42 39 40 38 37 38 36 35 36 34 36 36 30 39 32 38 33 37 34 44 45 43 45 45 43 43

GFSGBSN_sfc_temp_075.txt.gz
Temp
67 67 66 65 64 64 64 64 63 63 63 63 63 63 63 62 62 61 61 61 61 62 62 62 62 61 55 47 50 65 66 64 61 58 53 51 49 50 46 49 51 49 53 56 57 56 61
67 67 67 66 64 64 64 64 63 63 62 62 62 62 62 61 61 61 61 61 61 61 61 61 62 60 49 39 60 64 63 62 59 55 52 51 49 51 50 50 50 51 52 53 54 54 57
67 67 67 66 64 63 64 63 63 62 62 62 62 62 61 61 60 61 61 60 60 61 61 61 61 58 48 46 61 62 63 57 58 55 50 52 52 49 50 49 54 52 48 51 52 54 53
66 67 67 67 66 63 63 63 62 62 62 62 62 61 61 60 60 60 60 60 60 60 60 61 61 53 44 61 57 60 60 56 57 55 52 52 55 49 50 53 51 45 46 38 47 51 52
65 66 66 66 66 64 63 63 62 62 62 62 61 61 60 59 59 59 59 59 59 60 60 61 53 50 44 62 54 55 56 54 54 52 52 56 52 49 51 44 41 44 34 36 41 51 50
63 64 65 65 65 64 64 62 62 62 62 61 61 60 59 59 58 58 58 59 59 58 57 59 57 46 51 46 49 52 55 54 52 50 47 46 46 44 44 42 34 37 36 39 36 46 50
63 62 63 63 65 64 64 62 61 61 61 61 60 59 59 58 58 58 54 49 45 43 48 46 49 49 47 49 51 50 53 53 51 46 39 43 37 37 39 45 47 44 43 40 44 48 47
62 63 62 62 63 64 63 62 61 60 61 60 60 59 58 58 58 58 52 44 47 48 40 53 53 50 52 50 44 48 55 46 43 37 40 39 36 44 50 49 48 45 39 40 46 50 48
61 61 62 62 62 62 63 62 60 60 60 60 59 58 58 57 57 52 48 50 55 53 38 50 52 50 49 49 45 45 51 48 42 39 40 38 41 49 47 47 45 43 41 40 42 48 48
60 60 61 61 61 61 62 61 60 59 59 59 58 58 57 57 49 50 47 55 55 53 32 42 45 49 52 51 43 53 53 48 43 37 42 40 48 48 45 43 49 42 50 48 44 41 35
59 59 60 60 61 60 59 61 59 58 57 58 57 57 57 57 47 48 52 55 54 47 14 43 46 58 54 46 46 48 56 50 42 42 42 38 44 44 43 45 51 46 52 48 45 42 41
58 58 58 59 59 60 59 61 59 58 57 57 57 56 56 52 49 54 55 53 47 28 13 35 47 45 45 48 46 50 50 53 53 45 45 43 49 46 46 50 52 51 49 46 44 42 26
57 58 58 57 58 59 59 59 58 57 56 57 56 56 54 57 47 55 53 45 31 18 40 34 41 47 45 43 45 47 43 41 36 31 33 39 43 47 48 43 49 47 39 27 26 23 26
57 57 57 56 56 58 59 59 58 57 56 56 55 56 55 58 55 53 47 37 21 34 35 48 47 44 36 45 44 45 41 36 42 38 32 32 28 41 45 42 38 40 41 29 23 22 27
57 57 56 55 56 58 59 58 57 56 55 55 55 49 49 52 55 50 42 24 34 33 47 45 45 40 36 40 43 41 39 39 41 40 33 34 32 46 45 45 44 40 30 41 32 32 24
57 57 56 55 57 57 57 58 56 55 54 55 46 46 49 54 52 46 37 33 33 46 50 47 38 41 36 37 36 39 40 44 42 45 44 39 32 43 44 47 46 42 45 32 27 21 25
57 57 57 56 56 56 55 56 56 55 54 54 46 41 49 53 49 43 33 35 46 49 49 44 40 40 39 37 39 38 41 42 46 44 47 46 37 36 42 39 39 40 37 39 36 31 23
57 56 56 55 55 55 55 55 55 55 54 51 45 38 50 50 38 39 35 42 48 46 48 46 45 45 42 41 37 40 37 41 50 47 40 46 36 32 36 44 47 43 41 42 28 27 27
56 56 56 55 54 53 54 55 54 54 54 46 41 41 49 48 29 35 42 44 46 45 45 45 44 47 48 43 37 43 42 47 49 46 41 42 32 28 31 38 41 39 43 44 41 35 25
55 55 56 55 53 53 53 55 54 54 54 48 42 36 41 42 40 39 37 41 40 48 49 48 48 47 45 43 46 38 42 46 49 48 50 47 37 30 24 30 36 33 40 42 37 23 33
55 55 55 54 53 52 52 54 54 54 54 48 43 37 40 33 36 38 41 43 42 40 46 48 43 44 42 37 39 41 44 44 48 49 44 42 31 30 37 40 39 37 38 39 34 37 32
55 55 55 54 52 51 52 53 53 53 54 45 40 39 40 37 40 37 38 40 45 43 43 41 40 45 47 40 40 37 42 44 40 41 39 42 28 32 29 37 36 33 38 39 39 40 39
55 55 54 53 50 51 54 53 53 53 52 42 44 45 43 40 35 34 36 40 44 44 45 48 46 43 41 43 46 44 49 47 46 40 39 39 32 28 23 33 32 28 34 37 38 41 42
54 54 54 53 50 51 53 53 53 53 52 46 44 45 40 35 37 38 43 45 44 44 41 44 46 42 43 47 47 47 46 45 45 41 48 39 36 30 24 27 17 34 41 41 40 43 43
54 54 53 52 51 51 51 52 52 53 54 45 44 44 41 35 38 40 42 42 42 43 42 42 43 44 46 43 38 36 35 37 39 42 41 46 39 33 24 21 31 34 39 38 37 37 44
54 54 53 52 51 51 51 53 52 53 54 45 43 43 43 38 33 37 39 40 35 34 38 40 45 46 45 40 37 28 26 31 31 33 42 44 44 32 28 22 24 35 42 46 44 30 42
54 54 53 50 50 52 53 53 53 52 54 46 41 43 41 34 35 37 36 36 39 36 34 38 39 40 42 35 31 29 26 37 28 29 29 31 33 29 28 24 31 41 42 45 29 31 42
53 53 51 49 51 53 53 52 52 52 53 46 41 45 41 33 34 37 38 35 37 36 33 36 37 38 35 33 32 31 30 34 32 34 32 30 27 26 28 23 22 41 41 34 38 40 41
53 53 51 50 49 51 52 51 52 51 52 48 40 47 46 36 34 40 41 41 39 38 36 35 34 33 36 32 31 32 31 32 31 26 34 29 34 30 32 32 41 41 40 41 41 40 41

GFSGBSN_sfc_temp_078.txt.gz
Temp
66 66 67 67 67 66 64 63 63 64 63 63 63 63 63 62 62 62 62 61 61 62 61 62 62 61 54 44 46 62 66 64 61 58 54 48 45 47 44 46 49 47 51 56 56 56 55
64 65 65 66 66 66 65 63 62 63 63 63 62 63 62 61 61 61 61 61 61 61 61 61 61 60 48 38 57 61 60 60 58 54 52 51 48 49 48 47 46 51 51 53 54 55 54
64 64 64 65 65 65 66 63 62 63 62 63 63 62 61 61 60 60 60 61 60 61 61 61 61 57 46 44 57 59 60 56 56 54 49 52 51 47 49 46 51 52 46 50 51 52 52
64 64 63 63 64 64 64 63 62 62 62 62 62 62 61 60 60 60 60 60 59 60 60 60 61 52 41 59 55 59 57 54 55 54 52 52 54 49 47 50 48 47 45 41 46 49 52
63 63 63 63 63 63 63 64 62 61 61 62 62 61 60 59 59 59 59 59 59 60 60 60 52 47 43 60 52 55 56 51 52 51 52 56 51 48 48 42 40 42 34 37 42 47 49
62 62 62 62 62 62 63 62 63 62 60 61 61 60 59 59 58 59 58 59 58 58 57 58 55 44 50 46 50 52 55 53 51 50 47 47 45 43 42 37 33 35 35 38 38 45 46
61 61 62 61 61 62 62 62 61 62 61 60 60 60 59 58 58 58 54 47 45 42 46 44 46 47 49 49 50 50 51 51 51 45 38 43 39 34 41 40 44 44 41 40 42 46 44
61 61 60 61 61 61 61 62 62 62 60 59 59 59 58 58 58 57 51 43 46 48 39 50 50 49 51 49 43 48 54 45 43 38 41 39 36 43 46 44 45 46 41 39 43 46 44
60 60 59 59 60 60 60 61 61 61 60 59 58 58 58 57 57 51 47 48 54 52 37 47 51 49 48 48 44 45 48 45 42 39 39 35 40 46 44 40 43 43 40 39 42 45 46
59 60 60 59 59 59 59 60 60 60 59 58 57 58 57 57 49 49 46 54 54 51 26 39 44 47 50 49 43 53 50 46 42 39 41 39 43 42 42 40 44 38 47 44 40 38 34
59 59 59 59 59 58 58 59 60 59 59 57 56 58 57 56 47 46 51 54 52 46 12 42 44 56 52 44 45 48 53 48 43 42 41 37 38 42 41 41 48 44 49 45 43 39 39
58 59 58 58 58 58 58 58 58 59 59 56 56 57 56 52 49 51 53 52 47 25 12 35 46 43 42 45 44 49 48 50 51 44 44 43 49 46 43 47 50 51 46 44 43 40 29
58 58 58 58 58 58 57 57 58 59 58 56 56 56 54 54 46 53 51 44 25 16 38 33 38 44 41 40 42 43 42 41 38 33 33 40 41 45 46 44 49 47 39 28 28 26 28
58 57 58 57 57 57 56 56 57 58 57 55 55 55 55 56 54 52 46 33 18 31 32 46 44 41 34 40 40 41 38 35 41 37 32 29 31 40 44 41 40 41 40 30 25 24 29
58 58 57 57 57 57 56 56 57 56 56 54 54 49 50 52 53 49 38 19 25 32 42 43 43 34 33 39 38 37 35 36 38 38 31 29 30 43 43 44 43 39 33 40 32 30 28
57 57 57 57 57 56 56 56 56 57 55 54 47 47 47 53 51 46 33 30 32 43 46 47 35 40 31 34 34 34 39 40 41 42 42 37 28 39 43 45 45 41 44 32 28 23 24
57 56 57 57 56 55 55 55 55 54 54 54 47 42 48 52 49 42 30 29 40 47 47 42 41 39 37 34 35 35 35 40 44 43 43 40 33 34 40 37 35 38 36 37 34 29 24
56 56 56 56 55 55 55 54 54 54 53 51 45 37 48 51 37 39 35 39 47 45 46 45 45 45 39 38 35 35 38 38 47 45 38 41 34 25 32 41 43 40 37 37 27 27 25
56 56 56 56 55 55 54 53 54 54 53 47 42 41 48 48 32 33 38 43 45 43 43 43 43 46 48 40 35 39 42 45 46 44 39 40 31 22 27 35 39 36 40 41 37 32 24
55 55 56 55 55 55 53 52 52 54 54 48 41 34 41 42 40 35 35 41 40 46 46 46 45 47 45 44 43 38 41 46 48 46 49 46 34 30 23 30 34 32 37 39 35 22 28
54 54 54 55 55 54 53 52 52 53 54 48 42 37 40 34 35 36 37 40 39 39 47 46 41 43 44 38 37 36 44 44 47 49 44 40 29 28 34 37 37 34 35 37 33 37 30
54 54 54 55 54 54 52 51 51 53 53 45 40 38 40 36 38 35 36 36 39 40 42 39 39 43 43 37 39 36 40 43 41 41 38 39 28 30 29 37 36 33 36 36 37 37 37
54 54 54 54 54 53 51 50 50 53 52 43 43 44 43 38 34 33 32 38 45 43 43 45 44 41 40 42 43 43 44 45 43 39 37 37 30 27 22 30 32 28 33 35 36 38 39
54 53 53 54 54 52 51 50 52 53 51 43 42 44 40 33 35 35 39 42 45 43 40 42 44 41 42 46 47 47 47 44 43 38 45 35 33 28 22 26 15 34 39 39 38 40 41
54 53 53 54 54 52 51 50 51 53 52 43 43 42 40 33 37 37 39 40 43 42 40 40 41 42 45 44 39 35 35 38 39 38 39 41 35 32 22 19 29 33 37 37 35 34 39
53 53 53 54 53 50 50 51 52 53 53 47 43 42 42 38 32 35 37 39 35 35 35 38 43 45 44 39 36 27 26 29 28 31 42 40 39 31 28 21 22 33 39 43 41 28 40
53 53 53 54 51 50 51 52 53 53 53 47 42 43 41 33 32 33 34 36 37 36 33 36 37 39 41 33 30 28 25 34 27 27 31 34 34 27 26 22 29 38 41 42 28 30 38
53 53 53 53 51 50 51 53 53 53 52 47 42 44 41 32 32 35 36 34 36 36 33 36 37 37 34 32 31 29 28 32 30 31 30 29 26 25 27 25 23 40 39 35 37 38 40
53 53 53 53 51 51 51 53 52 51 52 48 40 46 46 35 33 39 38 39 38 37 36 34 33 33 35 30 30 31 30 29 29 25 32 29 32 29 31 30 38 37 38 38 40 38 38

GFSGBSN_sfc_temp_081.txt.gz
Temp
64 65 65 65 64 64 64 65 65 63 62 63 64 63 63 63 62 62 61 62 62 61 62 61 61 61 53 43 44 61 66 63 60 56 52 49 44 43 40 44 46 44 48 53 51 55 55
63 63 63 64 64 63 63 64 63 64 63 62 62 63 63 62 61 61 61 61 61 60 61 61 61 60 47 37 56 59 58 58 56 53 51 49 47 48 46 44 44 48 49 51 49 52 54
62 63 63 63 63 63 63 63 63 63 63 62 62 62 62 61 61 60 60 61 60 59 60 60 61 57 45 42 56 57 58 54 54 52 48 53 50 46 49 43 49 50 45 47 51 51 50
62 62 63 63 62 62 62 62 62 62 62 62 61 60 61 61 60 59 59 59 60 59 59 60 60 55 41 57 54 57 56 53 54 53 51 53 51 47 47 47 45 46 44 37 45 51 50
61 62 62 62 62 62 62 62 62 62 62 62 61 60 60 60 59 59 59 59 59 59 60 60 52 47 43 59 52 55 56 50 51 52 51 55 51 46 46 41 37 43 33 35 41 50 47
61 61 60 60 61 61 61 61 62 62 62 62 60 59 58 59 59 58 58 58 58 57 56 57 54 43 47 46 48 52 54 53 48 50 46 45 44 40 41 37 31 36 33 35 39 45 45
61 61 60 60 60 60 61 61 60 61 61 61 60 58 57 58 58 58 54 48 44 42 45 43 44 45 48 48 50 49 51 49 50 46 38 44 37 33 39 37 39 41 40 35 41 46 43
60 60 59 60 60 60 60 60 60 60 61 60 60 57 57 57 58 58 50 44 46 47 39 48 48 48 50 48 44 47 52 44 42 37 42 39 34 42 45 42 38 42 39 37 41 45 45
60 60 59 59 59 59 59 59 59 59 59 60 59 57 56 56 57 52 47 47 52 51 37 45 49 47 46 48 44 43 47 45 41 39 39 36 39 46 44 40 38 43 39 38 40 43 45
59 59 59 60 60 59 59 59 58 58 58 58 59 57 55 55 49 50 46 52 52 51 25 37 42 46 48 47 42 50 50 45 42 39 41 39 43 43 41 39 40 35 45 44 41 38 33
59 58 59 59 59 59 58 58 58 58 58 57 57 56 55 55 48 47 51 52 50 46 12 40 42 54 50 43 44 46 52 47 41 40 39 36 39 40 36 40 46 40 46 42 40 36 37
59 59 58 58 58 58 58 58 58 57 57 57 57 56 55 52 49 51 52 51 47 26 13 33 44 41 41 43 43 48 47 48 50 43 43 41 47 45 44 46 47 49 43 41 40 37 30
58 59 58 58 58 58 58 57 57 57 57 57 56 55 53 53 46 53 51 44 27 19 37 31 36 41 39 38 40 41 41 38 37 32 33 40 41 46 46 43 46 45 39 29 28 27 27
58 58 58 57 57 58 58 57 57 57 56 55 55 55 54 54 54 52 46 34 23 30 31 42 41 39 34 38 38 39 36 34 39 37 30 29 30 39 45 39 39 39 38 30 24 25 29
58 58 57 57 57 57 57 57 57 55 54 53 55 49 48 51 53 50 39 22 25 30 39 40 40 32 31 37 36 35 33 36 39 36 30 29 29 42 44 44 44 37 33 41 32 31 26
57 57 57 57 57 57 56 56 56 54 53 55 47 46 47 53 53 47 34 30 30 41 44 42 31 36 29 32 31 31 35 38 39 41 39 34 28 38 42 44 45 42 45 33 30 25 25
57 57 56 57 57 56 56 56 56 54 53 53 47 41 48 52 50 41 28 28 38 45 46 41 36 35 33 32 33 32 33 38 42 41 41 37 33 33 38 35 34 38 36 35 34 31 24
57 56 55 55 55 54 55 55 55 55 54 50 44 34 48 50 37 37 30 36 45 43 45 44 43 41 36 35 33 33 34 36 45 43 36 39 33 25 30 39 41 38 36 35 27 26 24
56 56 55 55 54 54 54 54 55 54 54 45 39 39 48 46 32 33 36 39 42 41 42 43 44 44 42 37 33 35 37 43 45 42 37 39 30 19 27 34 38 34 37 38 35 31 24
55 55 54 54 54 54 54 54 54 53 53 47 41 33 40 42 41 35 33 36 38 44 44 44 45 45 43 38 39 35 38 43 44 44 48 45 32 29 22 29 33 31 35 38 34 23 28
55 54 54 54 54 54 54 53 53 52 52 47 41 35 40 33 35 35 35 38 41 37 46 44 39 45 41 34 36 35 41 43 45 47 41 39 29 27 32 35 35 33 34 35 31 33 29
54 54 54 54 54 54 54 53 52 51 51 46 39 37 39 36 41 34 33 35 39 39 40 38 38 44 45 36 37 35 39 43 39 41 41 37 28 30 27 33 33 32 34 34 34 35 36
53 54 54 54 54 54 53 53 51 51 51 44 43 43 40 37 37 34 33 37 41 42 42 44 42 39 41 40 42 42 42 44 43 40 38 35 29 26 22 29 31 27 32 34 35 36 37
53 53 54 54 54 53 53 51 51 51 51 45 42 42 38 33 34 36 37 38 42 41 39 40 43 40 41 45 46 45 44 45 42 38 41 34 31 27 20 26 16 33 37 38 36 37 38
53 53 54 54 54 53 52 51 51 52 51 44 42 40 38 31 34 36 37 38 43 40 38 39 39 41 44 41 36 36 35 38 40 37 39 39 33 28 21 18 28 32 36 36 35 33 36
53 53 53 54 53 53 51 51 52 52 50 44 41 42 39 35 29 33 36 39 38 36 34 37 42 44 43 38 36 28 26 29 28 35 42 38 38 29 30 21 22 32 38 40 39 29 37
53 53 53 53 53 53 52 51 52 53 51 45 41 43 40 31 30 31 34 38 40 37 32 35 36 40 41 32 30 28 24 32 26 27 31 34 34 30 26 22 28 37 40 41 27 30 37
52 53 53 53 53 52 52 51 52 53 51 45 41 44 40 31 30 34 35 34 36 36 34 36 38 39 35 33 31 28 27 29 28 29 29 30 32 30 30 28 23 38 37 33 37 36 38
52 53 53 53 52 51 51 52 53 53 51 48 39 45 44 34 32 37 37 38 37 36 36 33 34 33 35 29 30 30 29 27 27 24 29 28 32 28 30 30 37 36 36 37 38 37 37

GFSGBSN_sfc_temp_084.txt.gz
Temp
62 62 62 63 63 62 63 63 63 63 64 65 64 63 62 62 62 62 62 62 62 62 61 61 61 61 52 42 43 58 65 62 59 55 50 48 45 43 39 40 44 40 45 51 54 56 55
62 62 62 62 62 62 62 62 62 62 63 65 64 63 61 60 60 61 61 61 61 61 61 61 61 59 47 38 54 57 56 57 55 52 49 49 47 48 42 42 42 45 47 49 53 54 51
62 62 62 62 62 61 61 62 62 62 63 63 63 63 61 60 59 59 61 61 61 61 60 60 60 56 46 44 54 56 56 53 53 51 47 51 51 43 47 41 47 46 42 47 49 50 47
62 62 61 61 61 61 62 62 61 61 62 63 63 63 61 59 58 58 59 60 59 60 59 59 60 54 40 55 53 55 56 53 53 52 50 51 52 46 44 48 44 40 42 37 45 47 48
61 61 61 61 61 60 61 61 61 61 61 61 62 62 60 59 58 57 59 59 59 59 59 59 53 46 40 58 51 54 53 49 50 52 51 54 50 44 46 40 37 40 33 36 40 49 47
61 60 60 60 60 60 61 61 60 61 61 60 60 60 60 58 57 58 58 59 58 57 56 56 54 42 46 45 48 51 53 52 47 48 46 45 43 37 36 38 30 34 33 36 37 44 46
60 60 60 59 60 60 60 60 60 60 60 59 59 58 59 57 56 56 54 49 44 41 44 41 43 43 47 47 49 48 50 48 49 45 38 44 37 33 33 41 39 39 37 35 41 45 43
60 59 59 59 59 59 59 59 59 59 59 59 59 58 58 57 56 56 50 43 46 47 39 46 47 46 49 48 42 46 52 44 43 37 42 39 33 42 43 42 40 40 37 34 39 45 43
60 60 60 60 59 59 59 59 58 59 59 58 58 58 56 56 55 51 48 47 52 50 38 44 47 46 45 47 44 44 49 45 40 38 39 34 39 45 43 40 38 40 38 37 38 42 44
60 59 59 60 59 59 59 59 58 58 57 57 56 57 56 55 49 50 46 53 52 50 26 37 41 45 46 46 42 51 49 45 42 38 41 39 44 43 40 39 39 36 45 43 40 38 32
59 59 59 59 59 58 58 58 58 58 57 56 56 57 56 56 48 46 51 52 51 46 15 38 41 52 48 42 44 46 51 45 40 40 38 37 40 38 39 40 42 39 45 41 41 36 36
59 59 59 59 58 58 58 58 58 57 57 56 55 55 55 51 49 51 53 52 47 28 18 32 42 40 39 42 43 46 45 47 48 43 41 40 47 44 41 45 46 47 42 40 40 36 29
58 58 58 58 58 58 58 58 57 57 56 55 55 55 52 53 46 53 51 46 26 21 35 31 35 40 38 37 40 42 41 40 36 32 33 35 40 45 46 42 46 43 37 29 27 27 27
58 58 58 58 57 58 58 57 57 57 55 54 53 54 53 53 53 52 48 35 20 32 31 40 39 38 33 36 37 38 37 35 40 36 30 30 30 39 45 41 39 37 37 30 24 25 27
58 58 57 57 56 57 56 56 56 56 55 53 52 50 49 51 52 50 40 27 26 31 38 37 38 31 31 35 34 34 31 34 36 35 30 27 32 43 43 45 43 38 30 38 31 30 24
56 56 57 57 56 55 55 55 55 56 55 53 43 45 45 52 51 46 35 31 32 39 42 40 31 33 28 31 30 30 32 36 37 40 37 33 30 39 43 46 44 40 44 33 31 25 25
56 56 56 56 56 55 54 54 55 55 55 53 43 40 47 51 49 39 31 31 38 42 44 39 34 32 31 31 32 30 31 37 40 39 39 35 32 32 38 35 36 36 34 35 34 30 25
57 56 56 56 55 54 54 54 54 55 54 49 41 33 48 50 36 37 33 37 44 41 43 41 41 39 34 34 31 31 32 34 42 41 34 36 31 27 30 38 41 39 36 35 28 26 22
56 55 56 55 54 54 54 54 54 54 53 44 37 38 48 47 32 34 37 40 40 40 40 40 40 42 40 35 31 33 35 42 43 40 36 37 29 20 27 33 37 35 37 35 33 30 24
56 55 55 54 54 54 54 54 54 54 54 46 38 33 40 41 41 36 33 34 35 42 41 43 43 43 39 35 37 33 35 41 43 42 48 43 31 28 22 28 32 31 33 35 32 21 26
55 55 54 54 54 54 54 54 53 53 53 44 39 35 40 32 35 35 34 35 36 36 42 42 42 44 39 33 33 33 37 38 43 45 40 38 28 26 31 34 33 33 34 33 29 31 28
55 54 54 54 54 54 54 54 53 52 52 42 37 37 39 35 39 34 35 32 37 40 42 36 39 44 42 35 36 34 38 37 35 39 35 36 27 29 27 33 33 31 33 33 33 34 33
55 54 53 54 54 54 53 53 53 52 50 42 43 44 40 36 35 34 33 33 39 43 43 43 41 39 41 42 41 40 40 40 40 37 35 34 29 26 22 28 30 27 31 33 33 33 35
54 53 54 54 54 54 53 53 52 52 50 45 43 43 38 33 34 36 37 36 41 42 40 38 41 41 40 44 44 44 42 43 40 37 42 35 30 26 19 25 16 32 35 35 35 36 37
53 53 54 54 54 53 53 52 52 52 53 44 42 41 38 31 35 37 35 35 38 40 39 38 39 40 45 42 38 37 36 38 39 37 38 41 33 28 20 18 27 30 33 34 33 34 37
53 54 54 54 53 53 53 53 53 52 50 43 41 42 39 34 31 30 34 39 37 33 35 37 42 45 44 40 36 30 26 28 26 33 41 38 40 32 30 20 21 31 35 40 38 28 36
54 53 53 53 53 53 53 52 52 52 51 45 41 43 40 29 29 29 34 37 40 36 32 35 40 42 41 32 33 28 24 29 25 27 28 33 34 31 30 23 27 35 37 39 27 30 36
53 53 53 53 53 53 52 52 52 52 51 45 39 43 40 29 30 33 35 36 39 37 33 36 40 41 36 33 32 30 26 28 26 27 27 28 26 30 31 27 20 36 36 33 36 34 36
53 53 53 53 53 52 51 52 52 53 52 49 40 45 43 33 32 36 38 40 37 35 35 33 34 33 35 29 29 29 29 26 26 24 28 27 31 28 30 29 36 34 34 35 37 36 35

GFSGBSN_sfc_temp_087.txt.gz
Temp
62 62 62 62 62 62 62 62 62 62 62 63 64 64 64 63 62 61 61 61 62 62 62 62 61 60 54 43 44 58 63 61 59 55 51 48 44 44 38 42 44 41 45 44 47 54 55
62 62 62 62 62 62 62 62 62 61 61 62 63 63 63 62 61 60 60 60 61 61 61 61 61 59 49 39 55 57 56 57 56 53 50 49 47 49 42 41 40 45 45 45 45 50 54
62 61 62 62 62 62 62 62 61 61 61 62 62 61 62 62 60 60 60 60 60 61 60 60 61 56 47 45 56 56 55 54 55 53 48 51 51 45 43 40 48 47 41 41 42 50 50
62 61 61 61 61 61 61 61 61 61 61 61 61 60 61 61 60 59 59 59 60 59 59 59 60 54 43 56 54 54 57 54 54 53 51 51 51 47 41 44 44 41 37 32 46 49 49
61 61 61 61 61 60 60 60 60 60 60 60 60 60 60 59 59 58 58 59 59 59 59 59 53 48 41 58 51 54 54 49 51 52 51 54 50 44 44 38 37 38 31 34 39 48 46
61 60 60 60 60 60 60 60 60 60 59 60 59 58 59 59 58 57 57 58 58 57 56 57 54 42 46 45 49 51 53 51 47 48 46 44 43 39 38 35 30 33 33 37 38 44 46
61 60 60 60 60 60 60 59 59 59 59 59 58 58 58 59 57 56 54 50 45 43 46 43 43 42 47 48 50 48 51 48 47 45 38 42 36 33 35 38 39 40 37 35 42 46 44
61 61 61 60 60 60 59 59 59 58 58 58 57 57 57 57 56 56 51 45 47 47 39 46 47 46 49 49 43 47 51 43 43 37 41 38 34 41 40 41 41 41 38 37 41 45 43
60 60 60 60 60 60 60 59 59 59 57 58 57 57 57 56 55 51 48 48 53 51 39 44 46 45 45 47 44 45 49 46 41 37 38 35 40 45 41 37 40 39 38 36 37 42 44
60 60 60 59 59 59 59 59 59 59 58 57 56 56 56 55 48 50 46 53 53 52 28 38 41 45 46 46 42 52 51 46 41 38 40 38 45 42 40 38 41 37 45 42 40 39 32
59 60 59 59 59 59 59 58 58 58 58 57 56 56 56 55 49 46 51 52 51 46 21 39 41 51 47 42 43 45 52 44 40 40 40 37 41 40 40 40 39 39 46 43 41 37 38
59 59 59 59 58 58 57 57 56 57 57 57 56 55 55 51 49 50 52 53 49 30 21 35 41 39 39 41 42 45 45 47 47 42 40 41 47 44 42 45 45 48 44 42 40 38 30
58 58 57 57 57 58 56 56 56 56 57 56 55 55 51 53 45 51 51 46 30 24 38 33 35 39 38 37 40 41 41 39 35 31 32 35 38 44 46 41 45 45 38 27 26 26 27
58 58 57 56 56 57 56 55 55 55 56 55 54 53 50 52 53 50 46 35 23 33 33 41 38 37 33 36 37 38 39 35 39 34 32 30 31 38 44 41 38 38 37 30 24 25 29
57 58 57 56 57 56 56 55 55 55 55 54 52 46 44 51 52 49 39 28 28 33 39 37 37 32 31 35 35 35 35 36 37 36 33 29 32 43 43 45 43 39 34 40 32 32 30
57 57 57 56 57 56 55 55 55 55 54 53 44 42 43 52 52 45 35 31 34 40 42 40 31 32 28 32 32 32 35 38 38 39 39 35 31 39 42 46 45 41 43 33 31 25 24
56 57 57 56 56 55 55 55 55 55 54 52 42 36 47 51 50 39 31 29 38 44 44 38 33 31 30 31 32 31 32 38 41 40 40 36 34 35 39 36 36 37 36 36 35 30 27
56 57 57 56 55 54 54 54 54 54 54 48 40 32 46 50 34 36 33 36 44 42 44 40 39 36 32 33 30 31 32 35 42 42 35 37 32 29 32 39 41 38 37 36 32 29 26
56 56 56 56 54 54 54 54 54 54 54 43 36 37 47 46 31 33 37 37 40 40 40 39 38 40 38 34 31 33 35 42 43 40 36 38 30 22 28 34 38 36 37 36 34 33 26
56 56 56 55 54 54 54 54 54 54 53 44 37 32 38 41 40 36 34 34 34 44 41 41 40 41 38 34 36 33 35 41 43 42 47 43 31 29 23 30 34 33 36 37 34 26 30
55 55 55 54 54 54 54 54 53 53 51 44 38 35 38 33 34 36 36 35 33 36 42 41 39 40 37 32 32 32 36 38 42 44 40 38 28 27 31 33 35 35 35 35 31 33 31
55 55 55 54 54 54 53 53 53 53 52 41 35 36 39 36 38 35 35 33 35 39 41 35 37 40 38 35 36 33 37 36 35 39 36 36 28 30 28 33 33 33 34 34 35 35 35
54 54 54 54 54 54 54 53 53 53 51 41 43 44 40 35 35 34 34 35 38 42 43 41 42 38 39 40 40 39 39 39 39 37 35 34 30 27 23 29 31 29 32 34 35 35 36
54 54 54 54 54 54 53 53 53 53 52 44 44 42 38 33 35 35 36 37 38 42 40 40 43 41 38 42 43 43 41 40 39 37 40 34 30 27 21 26 18 34 36 36 36 37 38
54 54 54 54 54 53 53 53 53 54 53 45 43 41 39 33 35 34 36 34 40 40 37 38 39 39 43 41 36 33 33 35 37 38 39 42 35 27 22 19 29 32 35 35 35 35 38
54 54 54 54 53 53 53 53 53 52 51 42 42 43 40 34 31 31 35 36 37 36 33 38 42 43 44 38 34 27 24 27 26 34 42 40 40 32 28 21 22 32 37 39 39 31 37
53 54 54 54 53 53 53 52 52 52 51 45 41 43 37 29 28 29 34 36 39 37 33 35 38 41 40 33 32 28 24 28 26 26 31 33 35 30 31 27 28 35 38 39 29 32 38
53 53 53 53 53 53 52 52 53 52 51 45 40 41 37 29 29 31 35 34 37 35 34 36 39 40 37 33 32 28 26 27 25 27 28 28 26 25 30 23 21 38 37 34 37 36 38
53 53 53 53 53 53 53 53 53 53 52 49 40 43 41 33 32 35 39 38 35 36 35 34 35 34 37 29 29 29 29 25 25 24 28 27 31 28 30 30 37 36 36 37 38 38 37

GFSGBSN_sfc_temp_093.txt.gz
Temp
62 62 62 62 62 62 62 62 61 61 62 62 62 62 62 61 61 61 62 62 62 63 62 62 62 60 59 53 56 68 64 65 66 64 59 57 53 53 47 51 52 47 50 53 55 56 57
62 62 62 62 62 62 62 62 61 61 61 61 61 61 60 60 61 60 61 61 61 61 61 61 61 60 56 44 68 69 67 65 64 61 59 58 54 56 49 46 46 51 49 49 52 54 56
62 62 62 61 62 61 61 61 61 61 61 60 61 60 59 60 60 60 60 60 60 60 60 61 61 61 51 52 68 68 65 63 64 62 56 59 58 52 54 47 54 48 39 43 48 52 51
62 62 62 61 61 61 61 61 60 60 60 59 59 59 59 59 59 59 58 61 59 59 60 60 60 58 49 66 70 65 66 62 64 63 60 62 60 54 51 53 46 42 43 34 49 52 53
62 62 62 61 61 61 60 60 60 60 60 59 59 59 59 58 58 58 59 59 57 58 58 59 58 54 50 62 58 64 65 58 59 59 59 61 56 49 48 38 34 37 32 38 43 50 49
62 62 61 61 61 60 60 59 59 58 59 59 59 58 58 58 58 57 57 57 56 58 59 61 57 47 55 52 59 60 63 59 54 53 50 50 45 40 39 35 30 35 35 41 41 49 47
61 61 61 60 61 60 60 60 60 60 59 57 58 59 58 57 57 56 54 51 48 45 50 50 50 51 54 58 60 56 60 55 54 50 41 46 37 34 41 42 42 42 41 40 46 52 47
61 61 61 60 60 59 59 59 59 59 57 57 57 57 58 57 57 57 51 45 49 49 45 54 56 55 57 58 50 54 60 49 46 40 46 41 37 48 45 42 39 41 41 42 42 49 46
61 60 61 60 59 59 59 57 58 58 57 57 56 56 57 57 57 55 49 47 51 56 43 51 53 52 53 54 51 51 54 50 45 41 43 39 45 48 42 39 37 42 42 40 40 47 50
60 60 60 59 59 59 59 58 56 57 57 56 56 56 57 56 54 54 50 56 52 57 35 43 45 50 52 54 48 57 58 52 46 40 46 45 52 47 40 38 41 38 50 44 45 40 36
58 58 57 55 56 58 58 57 56 56 56 56 55 55 55 55 52 48 50 53 57 54 26 45 44 58 54 49 50 48 56 52 42 45 46 41 45 45 42 42 47 43 51 42 42 43 36
58 57 55 54 55 58 57 56 56 56 56 55 55 55 54 55 54 55 54 50 50 32 26 37 45 43 44 48 50 47 46 48 48 41 43 44 47 43 44 47 48 51 46 44 44 43 32
59 57 53 53 55 56 56 56 56 56 55 55 54 54 50 55 46 56 50 44 31 28 44 35 39 44 46 44 46 46 42 39 37 33 33 37 37 41 43 38 48 45 43 32 31 32 33
56 54 52 52 55 55 56 56 56 56 55 54 54 54 54 56 57 56 47 34 28 39 40 46 45 46 42 47 47 47 44 35 38 35 35 34 32 38 45 43 40 41 42 34 28 32 36
54 53 52 54 55 57 57 56 56 55 55 54 53 49 47 50 54 52 37 29 33 40 44 43 44 42 42 46 46 44 38 40 43 40 36 36 33 43 47 51 48 45 41 49 41 46 40
53 52 53 56 56 56 56 55 55 55 54 53 46 43 40 50 53 47 34 34 39 45 48 48 39 46 41 44 43 42 42 48 47 50 52 46 35 43 49 52 52 48 52 41 42 31 31
54 54 56 56 56 55 55 55 55 55 54 54 46 37 45 53 52 39 32 35 40 47 49 44 43 43 47 44 46 45 45 48 52 51 53 50 47 41 46 45 43 47 46 48 47 43 38
55 56 56 56 56 55 55 55 55 55 53 52 43 33 46 52 36 37 37 40 41 42 49 46 49 48 47 47 45 46 44 48 54 53 47 51 47 38 42 50 51 49 47 49 41 39 43
56 56 56 56 55 55 55 55 55 55 54 48 38 36 47 47 36 36 42 40 40 41 44 46 48 50 50 47 43 47 47 51 54 51 48 52 45 37 40 46 50 48 50 50 49 48 39
55 55 55 55 55 55 54 54 54 54 54 52 45 34 39 42 45 43 39 36 36 45 43 48 49 52 49 47 50 45 46 50 52 52 48 52 46 40 36 38 44 42 47 50 47 40 43
55 55 55 55 55 55 55 54 54 54 53 53 45 35 39 36 38 44 43 36 37 36 46 52 49 50 48 44 46 45 48 50 53 51 53 53 39 39 44 45 46 44 45 48 43 49 42
54 55 55 55 55 55 54 54 54 54 53 46 39 38 42 38 42 39 37 36 36 40 46 46 47 50 52 47 48 45 49 50 48 53 51 52 39 42 40 45 45 42 46 47 47 49 49
54 54 55 55 55 55 54 54 54 54 53 47 45 46 42 37 37 37 40 40 39 46 49 50 50 52 49 48 55 56 57 56 54 51 49 48 43 40 36 43 43 41 43 45 46 49 50
54 54 54 55 55 54 54 54 54 53 53 52 48 45 41 36 37 37 39 42 44 46 46 50 52 51 50 59 61 59 57 55 54 53 55 47 45 42 37 39 32 43 49 48 46 49 51
54 54 54 55 54 54 54 54 54 53 53 51 49 46 41 37 41 40 42 43 47 50 47 47 48 54 57 54 50 45 46 47 48 50 51 53 48 40 37 39 42 43 46 46 45 46 51
53 54 54 54 54 54 53 53 54 53 52 54 53 50 49 41 41 40 44 47 43 45 47 47 52 57 55 53 48 39 38 40 39 43 51 51 51 45 40 33 34 44 48 52 51 43 51
53 53 54 54 54 53 53 53 54 53 52 55 49 49 47 46 45 42 44 44 46 44 42 48 47 49 55 48 43 41 39 43 39 38 40 42 43 39 41 38 43 49 50 52 40 41 51
53 53 53 53 53 53 54 54 54 53 52 54 49 53 50 48 44 43 44 46 48 49 45 49 48 49 48 43 44 44 44 44 42 44 41 41 40 40 42 36 33 51 49 44 49 51 53
52 53 53 53 53 53 54 53 53 52 52 54 51 53 55 49 44 47 47 47 44 45 47 50 47 49 51 46 47 47 44 45 44 40 45 40 46 44 45 45 50 54 52 52 54 54 53

GFSGBSN_sfc_temp_096.txt.gz
Temp
63 62 63 62 62 62 62 62 62 62 62 62 61 61 61 61 61 61 61 61 61 61 62 63 62 61 58 51 53 66 66 66 66 64 58 56 52 50 44 48 50 45 49 52 53 53 53
62 62 62 62 62 62 62 62 61 61 61 61 61 60 60 60 60 60 60 61 61 61 61 62 62 60 54 43 68 67 66 65 63 60 57 57 54 55 48 46 44 48 47 48 50 50 51
62 62 62 62 62 62 61 61 60 60 61 61 61 60 60 60 59 60 60 59 60 61 59 61 61 60 52 51 68 68 66 63 64 61 56 59 58 51 51 45 51 47 39 43 45 47 46
62 62 62 62 62 62 61 60 60 59 60 60 60 60 59 59 59 59 58 59 60 59 58 60 61 57 47 66 66 64 65 61 63 63 60 60 59 53 48 50 46 41 39 31 44 47 49
62 62 62 62 61 61 61 60 60 60 60 60 59 59 59 59 58 58 57 59 60 58 59 60 56 53 47 63 58 64 64 58 60 59 59 61 56 48 47 37 34 36 28 33 39 49 49
62 62 62 62 61 61 60 60 59 60 60 59 58 58 58 58 58 58 57 56 57 56 57 58 56 46 53 51 58 61 64 61 55 53 49 49 45 39 40 35 26 33 31 35 36 47 46
62 61 61 61 60 60 59 60 59 58 58 57 58 57 57 57 58 58 54 49 45 44 48 46 47 51 54 57 61 57 60 55 54 49 39 44 35 31 35 39 38 38 36 35 42 50 42
60 60 60 59 57 56 57 59 59 58 57 57 57 56 56 57 57 57 53 44 45 45 42 51 53 54 59 58 49 53 59 48 46 38 45 39 34 41 45 44 39 38 36 35 43 45 43
61 60 59 58 55 54 54 56 58 57 57 56 56 56 56 56 56 55 50 47 51 50 40 50 52 52 53 54 50 49 53 50 43 41 42 37 43 48 43 40 37 37 36 38 36 43 46
60 59 59 53 52 52 54 55 56 56 56 56 56 56 55 56 52 52 49 51 52 50 34 39 45 50 54 52 46 57 56 51 46 40 43 40 48 47 40 38 40 34 48 46 39 39 32
58 55 54 53 51 53 55 55 56 56 56 55 55 55 55 54 49 47 52 52 51 47 24 41 44 59 54 48 49 48 58 52 43 42 42 40 42 40 40 43 45 41 46 41 41 37 33
57 54 54 53 54 55 54 55 56 56 55 55 55 55 54 52 52 53 54 51 47 31 24 35 43 42 43 47 49 48 47 50 48 41 42 42 48 42 43 44 45 48 44 42 41 36 30
55 55 55 54 55 55 57 57 56 56 55 55 55 54 52 54 45 55 51 44 30 25 39 35 38 43 44 42 45 44 41 38 36 32 32 37 37 40 43 39 45 44 38 30 28 28 28
55 55 55 55 57 57 57 56 56 56 55 54 53 53 52 54 55 54 46 34 25 34 36 46 44 44 36 45 44 45 41 36 38 36 33 33 30 37 45 43 39 39 36 30 24 27 29
56 56 57 57 57 57 56 56 56 56 53 53 52 47 46 51 55 52 38 28 29 35 42 42 44 38 37 45 45 43 38 35 40 40 34 34 33 44 45 50 47 42 36 46 35 41 32
57 57 56 57 57 56 56 56 56 55 55 55 46 42 42 51 54 46 34 32 35 42 47 47 38 43 38 42 37 37 37 48 41 48 48 43 34 44 48 50 50 45 50 36 34 27 26
57 56 56 57 56 55 56 56 56 56 55 55 45 38 45 53 52 41 32 34 38 47 49 43 43 44 45 42 41 41 43 46 50 50 49 47 41 38 45 42 40 42 39 42 41 37 28
56 56 56 56 55 55 55 55 56 55 55 53 43 32 47 51 36 37 35 38 41 42 49 47 48 48 45 46 43 43 41 44 52 51 44 47 43 34 39 48 49 45 43 43 30 31 33
56 56 56 56 55 55 55 55 55 55 55 48 38 38 50 46 35 36 43 41 42 41 43 45 47 49 50 45 40 46 45 49 51 48 44 46 38 28 31 40 45 42 46 46 45 40 32
55 55 56 56 55 55 55 55 55 55 55 50 42 34 42 44 45 42 40 37 36 45 43 49 50 51 48 46 48 42 44 48 50 49 48 47 40 33 26 30 38 35 42 45 40 30 34
55 55 55 55 55 55 55 54 54 54 55 50 45 36 41 34 38 42 41 38 38 36 47 50 48 50 47 41 44 42 46 47 51 51 47 46 33 32 39 42 42 40 41 43 39 41 32
55 55 55 55 55 55 55 54 54 54 54 47 39 39 42 39 41 41 39 36 38 43 46 45 46 50 48 43 45 42 46 46 43 49 45 47 32 33 31 42 42 37 42 43 42 45 43
54 54 55 55 55 55 54 54 54 54 53 47 46 47 41 38 38 38 38 40 42 46 49 50 49 47 44 46 51 50 50 50 47 45 44 42 37 32 28 36 37 31 38 41 41 44 42
54 54 55 55 55 54 54 54 54 54 53 50 47 45 40 35 39 38 41 43 45 46 44 48 48 47 48 54 54 51 51 50 49 47 49 42 38 34 27 29 20 35 43 43 43 46 46
54 54 54 54 54 54 54 54 53 54 54 50 49 45 41 37 41 41 42 43 46 47 45 45 47 50 52 49 44 41 40 41 44 45 45 46 41 30 26 25 35 38 41 40 38 38 46
53 53 54 54 54 54 54 54 54 54 53 51 50 49 46 39 36 42 44 45 42 42 43 45 49 52 50 45 42 31 28 33 33 38 45 47 45 35 31 25 25 36 42 46 45 31 44
53 53 53 54 54 53 54 54 54 54 53 51 46 48 44 39 40 40 40 39 45 41 39 43 44 45 48 40 35 32 29 37 31 32 34 36 36 30 32 27 34 42 44 45 29 32 44
52 53 53 53 53 53 54 54 53 53 53 50 46 49 44 41 39 43 44 40 43 43 40 43 42 43 42 36 36 35 34 36 33 35 34 34 31 30 33 26 23 44 42 35 41 43 46
52 52 53 53 53 53 53 53 53 53 53 52 46 51 51 42 39 45 46 45 43 41 37 44 42 43 42 36 37 37 34 35 35 30 37 31 37 33 36 34 44 43 43 44 46 46 44

GFSGBSN_sfc_temp_099.txt.gz
Temp
63 63 63 63 63 63 62 62 62 61 61 62 62 62 61 61 61 61 61 61 61 61 62 60 61 62 56 47 48 65 68 68 65 61 56 54 48 46 39 42 44 41 45 49 50 50 50
63 63 63 63 63 62 62 62 61 60 60 61 61 61 61 60 60 60 60 60 61 60 61 60 61 61 52 41 60 65 63 62 61 58 55 53 50 53 44 42 39 44 45 45 47 47 48
63 63 63 63 63 63 61 62 61 60 60 61 61 60 60 60 60 60 59 59 60 60 61 60 59 58 50 48 62 63 63 59 60 58 52 57 58 52 47 41 47 45 37 42 43 45 44
63 63 63 63 62 62 62 61 59 59 60 60 60 59 59 59 59 59 59 59 58 61 61 60 59 55 45 63 59 62 62 58 60 60 56 56 58 52 48 46 43 37 36 28 41 44 45
62 61 61 61 61 61 60 59 59 59 59 59 58 59 59 58 58 58 58 58 58 60 59 59 53 49 45 64 56 61 61 56 58 59 58 61 55 47 47 37 33 36 24 29 36 46 45
62 62 62 61 60 59 57 55 55 59 58 58 58 58 58 57 57 58 58 57 55 57 56 57 55 45 51 49 56 59 59 60 54 51 49 47 44 39 39 34 24 26 25 33 34 42 45
62 61 60 58 58 54 54 53 54 56 57 57 57 57 57 57 57 57 53 48 42 44 48 45 46 49 51 55 59 54 57 54 52 47 37 41 32 28 32 36 37 34 34 33 38 45 43
58 57 58 56 55 54 52 53 53 54 56 57 57 56 56 56 57 57 50 42 42 43 39 49 50 52 55 56 47 52 56 45 45 37 42 36 31 39 41 40 38 38 35 33 39 45 43
59 57 56 55 55 53 53 54 54 55 56 56 56 55 56 56 56 51 46 45 50 49 38 44 48 51 51 53 48 46 51 49 43 39 39 35 39 46 42 38 37 36 36 35 34 42 42
58 57 57 56 56 56 56 55 55 56 56 55 55 55 55 55 48 46 45 51 51 50 33 38 42 48 52 51 44 55 55 51 45 40 41 39 45 43 41 39 38 33 45 42 41 36 31
57 57 57 56 56 56 57 57 57 56 56 55 55 55 55 53 43 42 47 51 51 46 22 38 43 58 51 45 47 47 55 50 41 42 41 38 41 40 38 41 44 39 45 42 40 37 32
57 57 57 57 58 58 57 57 56 56 55 55 55 54 54 49 45 48 51 49 46 30 23 35 42 41 41 45 46 48 47 49 47 39 42 39 47 43 41 43 43 45 42 41 40 37 28
58 58 57 58 58 57 57 57 57 56 55 54 54 53 51 52 42 51 49 44 28 25 37 32 36 42 42 40 42 43 40 38 35 31 33 37 37 41 43 38 44 41 37 29 27 28 27
58 57 57 58 57 57 57 57 56 56 55 54 53 52 51 52 50 49 43 35 26 34 34 44 42 42 36 42 42 43 40 36 39 37 32 31 29 38 43 41 39 39 36 30 23 27 29
57 57 57 57 57 57 57 57 57 56 56 53 51 44 43 46 52 47 37 28 29 35 40 41 41 35 36 42 42 41 37 36 40 39 32 33 32 44 44 46 45 40 35 41 32 34 30
57 57 57 57 57 56 57 56 57 56 56 55 41 41 43 50 49 42 32 32 35 43 45 45 34 39 33 37 36 35 36 42 41 44 43 39 33 41 45 48 48 43 47 34 32 25 26
57 56 57 57 56 56 56 56 56 56 56 56 40 35 44 48 45 36 32 33 38 46 46 41 40 40 40 37 38 38 39 42 48 47 46 43 37 37 42 40 39 40 38 41 40 35 28
56 56 56 56 56 56 55 56 56 56 55 48 38 29 45 49 33 37 33 38 42 40 45 43 44 44 40 41 38 37 36 40 49 49 43 46 40 32 37 45 47 43 40 39 30 29 32
56 56 56 56 55 55 55 55 55 56 55 45 38 38 48 45 33 29 41 40 41 39 40 42 43 46 46 41 36 41 41 48 49 46 42 44 36 26 31 39 42 39 42 42 42 36 28
56 55 56 56 55 55 55 55 55 55 55 43 38 32 36 42 42 39 34 36 35 43 41 45 45 47 44 41 43 38 40 46 49 48 50 47 37 31 23 30 36 34 39 42 37 28 29
55 55 55 56 55 55 55 54 54 54 54 43 37 36 40 33 37 37 37 36 35 35 43 45 44 44 42 37 39 39 43 44 49 51 47 43 32 30 37 40 40 37 37 39 35 36 30
55 55 55 55 55 55 55 54 54 54 54 42 36 38 39 37 37 35 36 33 37 40 42 40 40 44 43 38 39 37 41 41 38 45 43 43 29 33 32 39 38 34 38 39 39 40 38
54 54 55 55 55 55 54 54 54 54 53 40 44 42 39 36 33 32 35 36 40 44 45 45 43 41 40 42 43 44 45 44 42 40 39 39 33 28 26 34 34 30 35 37 38 40 40
54 54 54 54 55 54 54 54 54 54 51 47 41 42 36 32 38 36 37 40 40 44 40 44 44 41 45 48 48 46 45 45 45 43 44 38 34 29 23 28 18 35 40 41 40 41 42
54 54 54 54 54 54 54 54 54 54 54 48 45 42 40 36 41 36 37 38 41 42 42 41 44 45 46 44 39 37 36 38 40 41 42 42 36 27 24 19 30 35 39 38 36 36 41
53 53 54 54 54 54 54 54 54 54 54 50 46 43 40 35 31 37 36 43 39 35 37 42 47 48 45 41 38 29 25 30 31 36 43 43 40 32 28 24 25 34 39 44 42 31 42
53 53 53 53 53 54 54 54 54 54 53 47 41 43 39 34 34 39 35 34 39 38 34 38 42 43 44 36 32 29 26 34 29 28 30 32 32 28 28 25 31 39 41 43 29 32 41
52 53 53 53 53 54 53 53 53 53 53 46 41 44 40 33 34 38 40 35 38 36 34 39 39 40 38 33 32 31 30 33 30 33 31 31 28 27 29 23 22 43 40 35 39 40 43
52 52 52 52 53 53 53 53 54 54 54 51 39 46 45 37 37 41 42 42 40 39 35 35 38 38 38 31 33 32 32 31 31 27 34 30 35 32 33 32 41 42 41 42 43 43 41

GFSGBSN_sfc_temp_102.txt.gz
Temp
64 63 63 63 63 63 63 63 62 62 62 61 61 62 61 61 61 61 61 60 61 61 61 61 61 60 56 47 48 64 69 68 63 59 55 52 47 44 38 39 42 39 42 47 48 48 48
64 63 63 62 61 61 61 62 61 61 60 60 61 61 60 60 60 60 60 60 60 60 60 61 60 58 51 42 61 65 63 62 60 56 53 52 48 49 42 40 38 42 43 43 45 45 46
63 63 63 62 62 61 61 59 59 58 58 58 60 60 59 59 59 59 59 59 60 59 60 61 60 57 49 48 63 63 62 59 59 57 51 53 53 48 45 39 44 43 36 40 42 44 42
63 62 60 60 59 58 59 60 57 55 55 56 58 58 59 58 59 58 59 59 59 58 61 61 60 54 45 57 60 61 60 56 58 58 55 55 56 50 45 44 42 36 34 27 39 42 44
61 61 61 59 58 58 57 55 55 54 54 56 57 58 58 58 58 58 58 58 58 60 62 60 53 52 43 59 56 60 59 54 55 58 56 59 52 45 46 37 34 34 28 28 33 44 43
61 60 59 58 58 57 56 55 54 53 54 55 57 57 57 57 57 57 57 57 55 58 56 57 54 46 48 47 56 59 59 58 54 52 49 46 44 36 38 34 19 26 28 30 30 41 42
59 60 60 58 58 57 56 56 54 54 55 56 56 56 56 56 57 57 51 46 42 43 47 44 45 47 49 55 59 55 56 54 53 46 38 40 34 28 32 34 35 32 32 32 37 43 39
59 59 58 58 58 58 58 57 57 56 56 56 56 56 56 56 56 57 47 39 40 42 38 48 49 51 55 56 46 50 55 44 43 36 42 36 30 37 39 37 37 35 32 32 38 43 40
59 59 59 59 59 58 58 58 57 57 57 56 56 55 55 55 56 48 44 44 49 46 37 43 48 49 51 54 46 44 50 47 42 38 38 32 37 43 40 37 34 36 33 34 34 40 42
59 59 59 59 59 58 58 57 57 57 57 56 56 55 55 55 47 44 44 51 51 50 33 34 40 46 52 51 44 53 54 49 44 38 41 37 43 41 39 36 37 32 40 41 40 36 30
59 58 58 59 59 58 57 57 57 57 55 55 55 55 55 53 44 43 47 50 49 45 21 38 39 54 52 45 45 45 55 49 41 41 41 34 39 39 37 38 44 37 45 40 39 36 33
59 58 58 58 58 58 57 57 57 57 56 55 55 55 54 47 44 48 50 50 46 28 21 35 41 41 41 44 45 47 46 49 47 39 40 38 44 41 41 42 42 44 40 40 39 35 28
58 57 58 58 58 58 57 57 57 56 54 54 54 54 50 51 41 50 48 43 25 22 37 31 36 40 40 38 41 43 40 37 35 31 31 37 38 42 43 37 43 39 36 27 26 27 26
58 57 58 58 57 57 58 57 57 56 54 53 53 51 50 50 48 47 42 29 23 34 34 40 41 40 35 41 41 41 37 35 40 37 33 27 28 38 42 40 37 40 36 29 22 26 29
57 57 57 58 57 57 57 58 57 57 55 55 52 42 42 45 49 44 33 30 30 34 40 37 38 35 36 41 40 40 37 36 40 39 32 33 32 43 44 45 45 39 34 40 32 33 29
57 57 57 57 57 57 57 57 57 57 56 54 40 38 40 47 46 40 35 33 36 43 43 42 31 36 31 36 36 36 36 41 41 44 44 38 31 40 43 44 45 42 45 32 31 24 25
57 56 57 57 56 56 56 56 56 56 56 53 39 33 43 47 44 36 32 33 38 43 43 39 37 37 36 35 38 37 35 42 45 44 43 40 37 36 42 40 39 40 35 36 37 31 26
56 56 56 56 56 55 55 56 56 56 55 47 36 29 45 46 33 33 31 36 43 39 43 41 41 41 38 38 35 35 36 40 47 45 38 42 38 31 38 46 47 44 40 39 29 30 29
56 56 56 56 56 55 55 55 55 56 55 41 37 33 45 43 32 28 36 38 39 39 38 40 41 44 43 38 35 38 40 47 47 44 40 42 35 27 32 37 42 38 41 41 41 36 26
56 56 55 56 56 55 55 55 55 55 55 43 35 27 35 40 38 33 32 33 34 42 40 43 42 45 42 39 41 37 40 46 48 46 50 46 36 30 23 30 35 33 38 40 37 29 29
55 55 55 55 55 55 55 54 54 55 55 43 35 31 36 26 34 34 34 34 34 35 42 44 42 41 40 35 37 37 41 42 46 48 44 41 31 29 34 37 37 35 35 38 34 35 31
55 55 55 55 55 55 55 54 54 54 53 40 34 33 36 32 35 33 34 33 35 39 40 39 38 41 40 35 35 35 38 39 37 42 40 40 29 31 31 36 36 34 37 37 37 38 36
55 54 54 55 55 55 54 54 54 54 50 38 39 40 37 34 32 28 31 34 39 42 43 43 40 39 39 40 41 41 41 42 39 38 38 37 32 27 25 31 33 29 34 35 36 38 37
55 54 54 54 54 54 54 54 54 53 50 41 39 39 33 30 33 33 36 38 39 40 38 42 41 39 43 46 44 42 41 43 42 41 41 36 32 28 22 27 18 34 38 38 38 38 39
54 54 54 54 54 54 54 54 55 54 54 43 41 39 36 29 33 35 36 37 40 41 39 40 42 44 44 42 38 34 34 36 38 39 40 39 34 26 23 18 29 33 36 36 34 35 39
54 54 53 54 54 54 54 54 54 54 54 44 41 41 37 33 31 35 33 36 33 33 37 40 45 46 44 39 36 28 26 29 30 35 40 40 36 30 27 23 24 33 38 41 39 30 39
54 53 53 53 54 54 53 54 54 54 53 44 40 41 37 32 33 34 33 33 36 34 33 35 39 41 42 34 31 28 25 32 27 27 29 30 30 27 27 24 30 37 40 41 28 32 39
53 53 53 53 53 53 53 53 54 53 53 45 40 42 39 32 34 38 40 35 36 35 33 37 38 38 36 32 31 30 28 31 28 31 29 30 27 26 27 23 22 40 38 35 39 38 41
53 53 52 52 52 53 53 53 53 54 53 48 39 44 43 37 37 40 42 42 41 40 36 35 36 36 36 29 31 30 30 28 28 26 33 29 33 30 32 31 40 40 39 40 41 41 40

GFSGBSN_sfc_temp_105.txt.gz
Temp
63 62 63 62 61 61 60 58 60 60 59 59 58 59 61 59 60 61 61 61 60 61 61 61 61 59 56 47 48 63 69 68 62 58 53 50 45 43 37 37 41 36 40 45 46 46 45
63 63 62 61 60 60 59 58 57 61 59 57 56 58 60 60 60 59 60 60 60 60 60 60 59 60 52 43 56 62 62 61 59 55 52 50 47 48 41 38 37 40 41 41 43 44 44
62 62 61 60 60 59 59 57 55 55 55 55 55 55 59 59 59 59 59 59 59 60 60 60 58 56 49 47 57 59 61 57 57 55 50 52 51 47 44 37 43 42 35 38 40 42 40
61 62 61 60 59 59 59 58 56 55 54 54 54 55 58 58 58 58 58 58 59 59 59 61 59 55 44 56 56 57 59 55 57 57 54 54 54 48 44 43 41 35 32 26 38 41 43
61 60 60 59 60 60 60 59 57 57 57 56 55 56 57 57 57 57 58 58 58 59 61 61 54 52 42 59 52 57 60 52 54 54 55 58 51 43 42 33 28 30 18 29 32 42 41
61 60 60 60 60 60 60 59 58 58 58 57 57 57 57 56 57 57 57 57 56 57 57 57 54 45 47 46 51 56 59 57 51 51 47 45 40 33 35 34 17 24 25 29 29 38 39
60 60 60 60 60 59 59 59 59 58 58 57 57 56 56 56 57 57 49 44 42 43 47 45 44 47 48 53 57 54 58 54 53 45 36 39 33 25 29 33 32 29 28 27 34 41 38
60 60 60 60 60 60 59 59 58 58 58 57 56 56 56 56 56 56 45 39 41 43 40 50 49 48 53 55 46 51 57 46 44 34 38 35 30 36 37 36 34 35 32 31 36 41 40
59 59 60 60 60 59 59 58 58 58 57 57 56 56 56 55 55 47 42 44 48 46 39 43 48 48 49 52 45 45 52 47 40 36 35 29 37 42 39 35 33 34 32 31 32 39 42
59 59 59 59 59 59 59 58 58 58 57 56 56 56 55 55 47 44 44 49 50 48 33 34 40 45 50 51 43 53 54 49 43 37 37 35 41 38 38 34 35 29 39 38 36 34 30
58 59 58 59 58 59 58 58 58 56 56 56 55 55 55 53 41 42 47 50 50 45 21 35 39 50 49 44 44 45 55 49 41 41 41 33 37 38 37 39 41 35 42 39 37 34 32
58 58 58 58 58 58 58 58 57 56 55 55 55 54 53 46 43 46 49 50 45 25 21 33 39 40 40 44 45 46 46 49 47 41 41 37 44 42 38 41 42 43 37 37 38 34 27
58 58 58 58 57 58 58 58 57 56 55 54 54 54 50 50 40 49 47 44 22 22 36 32 35 40 40 39 40 43 40 37 34 31 31 37 39 43 44 38 41 39 34 26 23 27 26
57 57 58 58 57 57 58 57 57 57 56 55 53 51 48 49 46 46 41 30 23 33 33 39 40 39 34 39 39 40 37 35 38 37 33 27 24 37 44 39 37 38 37 28 22 25 28
57 57 57 57 57 57 57 57 57 56 56 55 51 41 42 45 47 43 34 28 28 35 40 36 39 36 35 38 39 39 36 36 39 39 30 33 29 42 43 45 43 38 34 40 32 33 29
57 57 57 57 57 57 57 57 57 56 55 53 40 38 39 47 45 39 34 33 35 42 42 40 32 35 32 36 36 35 37 40 40 42 44 38 31 39 43 43 43 40 43 32 32 24 24
57 57 57 57 56 56 56 57 56 56 55 52 37 36 44 46 43 37 30 33 36 41 41 38 35 36 36 34 39 37 34 40 43 41 42 41 37 36 40 37 37 38 36 36 35 32 26
56 56 56 56 56 56 56 56 56 56 55 46 36 32 46 45 34 31 30 35 42 39 41 39 40 40 36 37 34 33 35 38 45 43 37 41 37 30 36 43 45 43 39 38 29 28 30
56 56 56 56 56 55 55 55 55 56 55 40 34 32 44 43 28 27 34 37 38 38 39 39 40 42 42 37 34 36 38 46 46 44 40 42 35 28 32 39 43 37 39 39 38 35 28
56 56 55 55 55 55 55 55 55 55 55 41 34 29 34 37 35 31 31 32 34 41 40 41 40 42 40 37 39 36 38 44 46 45 50 46 34 31 24 31 36 33 38 39 37 30 31
56 55 55 55 55 55 55 55 55 55 54 41 34 29 35 26 31 32 32 33 34 34 41 42 41 39 37 33 35 34 38 40 45 46 43 41 32 29 34 36 37 35 35 37 33 34 32
56 55 55 55 55 55 54 54 54 54 53 39 33 33 33 31 33 32 32 33 34 37 39 38 37 40 39 34 33 32 34 36 34 40 38 38 28 31 31 35 35 34 36 36 37 36 34
56 55 55 55 55 55 55 54 54 54 49 37 37 38 36 32 31 28 30 33 37 39 41 41 39 37 38 38 40 40 40 39 38 35 36 35 31 27 24 30 33 30 33 35 34 36 36
55 55 54 54 54 55 54 54 54 54 49 39 38 37 33 29 32 32 34 36 37 38 36 41 40 38 42 44 41 39 38 41 39 36 39 35 31 27 22 27 18 33 37 38 36 38 37
55 55 54 54 54 54 54 54 54 54 53 42 39 38 33 28 32 33 34 35 37 38 38 38 41 43 43 41 37 34 32 35 36 36 36 37 32 26 22 18 29 31 36 36 34 36 39
55 54 54 54 54 54 54 54 54 54 54 43 39 39 36 31 30 36 33 34 32 32 35 39 43 44 42 37 34 29 26 28 29 33 36 37 35 30 26 22 24 32 36 39 38 29 39
55 54 53 53 53 53 53 54 54 54 53 43 39 40 37 31 33 33 33 34 35 32 32 34 38 39 40 33 31 28 25 30 26 26 28 29 29 26 25 23 29 35 37 39 28 32 39
55 53 53 53 53 53 53 53 53 53 53 44 39 40 38 32 33 37 39 35 35 34 32 37 36 37 35 32 30 28 26 29 26 28 27 29 26 25 26 22 22 39 37 33 38 36 39
55 53 53 52 52 53 53 53 53 54 53 47 39 42 41 36 36 38 40 40 41 40 36 34 35 35 35 29 30 29 30 27 26 25 31 28 32 29 31 31 39 39 39 39 40 40 38

GFSGBSN_sfc_temp_108.txt.gz
Temp
63 63 61 61 60 61 60 60 58 57 56 60 60 56 55 60 60 60 60 60 60 60 60 61 60 61 55 47 46 59 67 67 61 58 53 49 45 41 36 36 39 35 39 43 44 44 43
62 62 61 60 61 61 60 61 59 57 55 56 56 55 57 59 59 59 59 60 60 60 60 60 60 60 52 44 56 58 59 60 58 55 51 50 46 46 40 37 35 39 40 40 42 42 43
62 62 61 60 60 61 61 60 60 59 57 55 55 55 58 58 58 59 59 59 59 59 60 60 57 57 50 46 56 57 57 57 57 55 49 51 51 46 42 36 41 40 34 36 38 40 39
62 61 60 60 61 61 61 60 60 59 59 58 57 58 58 58 58 58 58 58 59 59 59 59 59 53 44 55 56 55 56 56 57 56 53 53 53 47 42 41 40 33 32 26 37 40 42
61 61 60 61 61 61 60 60 60 59 59 58 58 58 57 57 57 57 58 58 58 61 60 61 53 51 42 58 53 54 56 53 53 54 54 58 50 42 41 31 26 29 18 27 32 40 39
61 60 61 60 60 60 60 60 60 59 59 58 57 57 57 57 57 57 56 57 58 57 58 58 55 47 47 46 51 56 58 56 50 48 46 44 39 32 32 27 18 23 18 27 28 37 37
60 60 60 60 60 60 60 60 60 59 58 58 57 57 57 56 57 56 48 46 44 45 48 44 45 45 48 51 56 52 57 52 51 45 33 38 29 22 29 31 30 27 26 26 32 39 36
60 59 59 59 59 59 59 59 59 58 58 57 57 56 56 56 56 55 45 40 42 44 41 50 49 49 51 54 45 50 56 45 43 34 36 32 26 34 36 35 33 31 27 28 34 39 37
59 59 59 59 58 59 59 58 57 57 57 56 56 56 56 56 55 46 43 43 47 47 40 43 47 47 49 52 45 46 52 47 40 34 34 29 35 41 37 33 30 29 27 29 30 36 40
59 59 59 58 58 58 59 57 57 57 56 56 56 56 55 55 47 43 41 49 49 48 28 33 39 43 49 50 42 52 53 46 41 35 35 32 38 37 35 32 34 29 37 36 34 33 28
58 59 59 58 58 58 58 58 57 56 56 55 55 55 54 52 41 41 47 50 48 42 19 36 39 51 49 43 44 45 54 48 40 41 39 33 35 35 36 38 40 34 41 38 37 34 32
58 58 59 58 58 57 57 58 58 56 56 55 54 54 53 46 43 46 48 47 43 27 20 33 39 39 38 43 43 46 46 49 46 40 41 36 41 41 38 40 41 42 37 36 35 33 26
58 58 58 58 58 57 57 57 58 57 56 54 54 54 49 48 40 46 45 41 25 19 35 32 34 38 38 39 39 41 38 35 33 30 28 35 38 43 44 38 41 38 34 24 21 27 24
58 57 57 58 58 58 57 57 57 57 56 55 54 51 48 49 45 45 41 31 21 33 33 39 38 37 34 37 37 39 37 34 37 36 32 27 23 38 43 40 37 37 36 28 21 21 26
57 57 57 57 57 57 57 57 57 57 56 55 53 41 41 44 46 43 34 26 29 32 38 36 37 33 34 38 39 38 36 35 39 38 31 32 30 41 42 43 43 38 33 40 32 32 28
57 57 57 57 57 56 57 57 57 57 56 54 38 38 40 46 44 39 33 33 33 39 41 39 31 35 31 35 35 35 36 41 40 42 44 38 30 38 41 42 42 40 43 32 32 24 23
57 57 57 56 56 56 56 56 57 56 56 53 37 36 45 45 43 37 31 33 36 41 40 37 33 36 36 34 37 37 35 39 43 42 44 40 36 34 38 36 37 37 36 36 34 32 26
57 57 56 56 55 56 56 55 56 56 55 45 36 31 46 44 34 29 29 34 42 38 40 38 38 38 35 36 32 32 35 39 45 42 36 40 35 28 35 43 46 42 38 37 29 28 29
57 56 56 55 55 55 55 55 56 56 54 39 33 30 44 43 28 26 33 36 37 38 38 38 38 40 39 35 32 36 37 45 45 41 39 41 33 28 32 37 42 36 38 38 38 34 27
57 56 56 55 55 55 55 55 55 55 55 40 34 28 35 36 34 31 30 32 34 41 38 40 39 40 38 36 38 34 37 43 44 43 49 45 34 32 26 32 35 34 37 38 35 29 31
57 56 56 55 55 55 55 55 55 55 54 41 33 28 32 26 31 31 31 32 33 34 39 41 39 37 34 32 34 33 37 39 44 45 41 40 32 29 34 36 36 35 34 36 34 33 31
57 56 55 55 55 55 55 54 54 54 52 38 33 32 33 30 32 30 32 32 33 35 37 36 36 37 37 33 31 31 34 35 33 39 37 37 30 31 30 34 34 34 36 35 35 35 36
57 56 55 55 55 55 54 54 54 54 49 36 36 37 35 31 30 29 29 31 35 37 39 40 37 35 36 37 39 39 39 37 36 33 34 34 30 28 25 29 32 29 33 33 34 34 35
57 55 55 55 54 54 54 54 54 54 48 39 37 36 32 29 31 33 34 35 35 36 35 40 38 35 40 42 39 36 35 37 37 37 36 33 29 27 22 27 19 33 36 37 35 38 37
56 55 55 54 54 54 54 54 54 54 52 40 38 37 32 28 31 32 34 35 35 36 36 38 39 42 41 39 35 33 32 33 34 34 34 35 31 25 21 17 29 30 35 34 32 35 39
56 55 54 54 54 54 54 54 54 54 53 41 38 38 35 31 31 33 32 33 32 30 34 38 41 42 40 36 33 28 26 26 28 32 34 35 33 29 26 21 24 30 34 38 37 29 38
57 55 54 54 53 53 53 54 54 54 53 43 38 39 36 31 33 34 32 33 33 31 32 33 37 37 38 32 31 27 24 27 25 24 26 28 28 26 25 22 28 34 36 38 26 32 36
56 55 54 53 53 53 53 53 53 54 53 44 39 39 37 31 33 35 38 35 34 33 31 36 35 35 33 31 30 28 25 27 25 27 26 28 25 24 24 21 21 38 35 33 37 35 37
56 55 54 53 53 53 53 53 53 54 53 47 39 41 41 35 36 37 39 40 39 40 36 33 33 34 34 29 29 28 29 25 25 24 28 26 31 29 30 30 39 38 39 40 39 39 38

GFSGBSN_sfc_temp_111.txt.gz
Temp
63 62 61 62 61 61 62 62 61 60 59 57 56 56 56 57 59 60 60 60 60 60 60 60 61 60 57 49 48 58 66 67 63 60 54 51 47 45 39 41 43 40 42 44 46 45 45
63 62 61 61 61 61 61 61 61 60 60 59 58 57 57 59 59 59 59 59 60 60 60 60 60 60 53 43 55 58 57 59 59 56 53 52 49 48 42 41 40 42 42 42 43 44 45
62 61 61 61 61 61 60 61 61 60 60 60 59 59 59 58 58 58 59 59 59 59 60 60 59 58 50 46 56 56 56 53 58 56 51 54 53 48 46 40 45 42 37 39 41 42 42
62 61 61 61 61 61 60 60 60 60 59 59 58 58 58 58 58 58 58 58 58 58 59 59 59 55 44 55 57 55 57 55 58 57 54 54 54 49 45 45 41 37 36 32 41 42 44
61 61 60 60 60 61 61 60 60 59 59 58 58 58 58 57 57 57 57 57 61 60 60 59 53 51 41 55 52 55 58 53 54 55 55 57 51 44 44 34 31 32 27 30 35 42 41
61 61 60 60 60 61 60 60 60 59 58 58 57 57 57 57 57 56 56 58 60 58 57 56 54 46 46 45 52 54 58 57 51 50 47 46 40 35 34 31 26 28 25 29 30 39 39
60 60 60 60 60 60 60 59 58 59 58 57 57 57 57 57 56 55 50 49 45 46 51 45 45 46 47 50 56 53 57 53 51 45 35 40 33 28 31 34 33 31 29 28 33 40 36
60 60 60 60 60 60 59 59 58 58 57 57 57 56 57 57 56 55 47 41 42 44 41 49 50 48 51 54 45 51 57 45 43 34 38 34 30 36 37 36 34 32 29 29 35 39 38
59 60 60 60 59 59 59 59 58 58 57 57 56 56 56 56 55 46 44 44 48 45 41 43 47 46 47 52 45 46 52 47 40 35 34 31 36 40 37 34 32 31 29 29 30 36 40
59 59 59 59 59 59 59 59 58 58 56 56 56 56 55 55 46 42 43 48 48 48 28 34 40 43 49 49 42 53 53 47 41 35 35 33 39 37 35 33 34 30 37 36 34 33 29
59 59 59 59 59 59 58 59 58 57 56 55 56 56 54 53 41 40 46 46 47 42 13 36 40 51 48 44 44 45 54 48 38 39 38 34 36 35 35 38 39 35 41 38 37 33 32
59 58 58 58 58 58 58 58 58 58 56 55 55 55 54 46 42 44 46 46 43 26 18 33 40 38 40 42 43 46 45 49 46 39 39 36 42 41 39 42 41 42 37 37 36 33 26
58 58 58 58 58 58 57 58 57 57 57 56 55 54 50 48 40 46 45 40 25 19 35 32 34 38 39 38 38 40 38 37 33 30 27 34 36 42 43 37 40 39 34 27 23 26 26
58 58 57 57 58 57 57 57 57 57 57 56 55 51 48 48 45 44 40 32 21 32 33 39 39 38 36 38 37 38 36 32 36 34 32 28 24 38 42 39 37 37 35 29 22 23 28
59 58 57 57 57 57 57 57 57 57 56 55 51 40 41 44 45 42 37 28 28 31 37 35 36 33 34 38 39 38 36 36 40 39 32 31 29 40 42 44 42 38 34 39 32 33 29
59 57 57 57 57 56 57 57 56 56 56 53 39 37 39 45 43 39 33 33 33 38 39 38 31 34 30 35 35 35 36 40 40 42 43 38 31 39 42 43 43 39 43 32 33 24 24
58 58 57 57 56 56 56 56 56 57 55 50 37 36 43 43 41 37 30 32 35 40 39 37 33 34 35 35 37 36 34 40 43 42 43 40 37 35 40 37 35 37 35 35 34 32 27
58 57 57 56 56 55 56 56 57 56 54 45 36 31 44 42 34 29 29 33 42 37 39 37 37 37 34 35 32 33 35 40 45 42 36 40 36 30 36 44 46 43 37 35 29 28 30
58 57 57 56 55 55 55 55 56 56 53 38 33 30 43 42 29 26 33 36 37 37 37 37 37 39 38 34 32 36 39 46 45 41 39 41 33 27 33 38 42 37 36 36 35 33 28
58 57 56 56 55 55 55 55 55 55 54 39 34 29 35 35 33 32 32 31 33 39 38 39 38 39 37 35 36 34 36 43 44 44 49 46 35 32 28 34 37 33 37 38 35 28 32
58 57 56 56 56 56 55 55 55 54 53 41 32 28 32 26 31 30 31 33 33 34 38 39 37 36 33 31 32 32 36 38 43 44 41 40 32 30 34 36 36 36 36 36 33 34 31
57 57 56 56 55 55 55 54 54 54 51 37 33 32 31 30 31 29 32 30 33 33 35 36 34 36 36 32 32 31 33 33 32 38 36 37 31 32 30 35 34 33 36 36 36 35 35
57 57 56 55 55 55 54 54 54 53 49 36 37 36 35 31 29 27 29 32 35 36 39 39 36 34 34 37 39 39 39 37 35 33 33 33 30 27 25 31 31 29 34 35 36 36 36
57 57 56 55 55 54 54 54 54 53 48 39 36 35 32 30 30 32 32 34 35 36 35 38 39 34 39 41 37 35 34 35 35 35 36 32 30 27 22 27 19 34 36 37 36 38 38
57 57 55 55 54 54 54 54 54 54 51 41 37 36 31 29 31 32 31 31 35 35 34 37 40 42 39 37 35 33 31 32 33 34 34 34 30 26 22 19 31 31 35 35 34 36 38
57 57 55 54 54 54 54 54 54 54 52 41 38 37 35 30 32 34 32 31 31 29 32 36 40 41 38 35 33 28 26 26 28 31 34 34 32 29 25 22 25 32 35 39 38 31 39
56 56 55 54 54 53 53 53 54 54 52 42 38 38 36 31 32 32 32 32 34 31 30 31 35 36 37 31 31 28 25 28 25 24 26 28 28 26 25 22 29 34 37 38 29 33 37
56 56 55 54 54 53 53 53 53 54 52 44 39 39 38 32 33 35 38 34 33 32 31 35 34 34 33 30 30 27 25 27 24 26 26 29 25 24 24 21 21 37 36 34 39 37 39
55 55 55 54 53 53 53 53 53 54 53 47 39 40 40 36 37 38 39 40 41 39 36 32 33 32 34 28 29 28 28 24 24 24 27 26 31 29 30 30 38 38 39 39 39 40 40

GFSGBSN_sfc_temp_114.txt.gz
Temp
63 62 62 62 62 62 61 61 61 61 61 61 60 59 60 60 60 60 60 60 60 60 60 60 61 62 56 51 48 60 66 66 66 64 60 57 55 54 50 51 51 49 49 50 53 53 53
63 62 62 62 61 61 62 61 60 61 61 61 60 59 59 59 59 59 59 59 60 60 60 60 60 59 55 45 57 61 63 60 60 60 58 59 55 56 51 49 49 50 49 50 52 52 52
63 62 62 62 62 62 62 61 60 60 60 60 60 59 59 59 59 59 59 59 60 60 60 60 60 60 56 47 57 60 58 53 59 60 56 58 59 55 53 47 50 48 45 50 50 49 49
62 62 62 62 62 62 61 60 59 60 60 59 59 58 58 58 58 58 58 58 58 59 60 59 62 59 46 56 60 56 60 60 65 65 61 61 63 56 52 52 48 45 45 45 48 48 49
61 62 61 62 62 61 60 60 59 59 59 59 58 58 58 58 58 57 57 61 61 59 58 59 55 54 43 56 52 56 57 56 60 62 62 62 58 51 50 45 44 44 39 41 45 49 47
61 61 61 61 61 61 61 60 59 59 58 58 58 58 58 57 57 57 58 61 59 58 56 57 54 46 48 45 52 55 60 61 56 56 54 52 50 46 45 45 41 39 34 40 41 47 47
60 61 60 61 61 61 61 60 59 59 58 58 57 57 57 57 57 56 57 58 52 48 50 45 46 45 46 52 56 52 60 58 56 52 44 47 45 38 40 43 43 41 39 39 45 48 43
60 60 60 60 60 60 60 60 59 58 58 58 57 57 57 57 56 55 56 48 44 49 41 49 49 48 52 53 46 53 60 50 49 42 45 44 41 44 44 42 40 39 38 41 45 45 45
60 60 60 59 60 60 60 60 59 58 57 57 57 57 56 57 55 55 48 45 52 50 43 43 48 46 47 54 47 48 55 51 46 42 42 41 42 45 43 40 38 41 39 40 38 44 49
60 59 59 59 58 59 59 59 59 59 57 56 56 56 55 56 55 52 48 52 53 52 37 35 42 45 51 52 44 55 56 51 45 40 41 41 44 42 41 39 42 37 45 42 40 37 33
59 59 59 59 58 58 58 59 59 58 58 57 56 56 55 54 53 50 51 54 54 51 27 38 42 55 53 47 47 48 57 52 42 42 43 40 41 40 39 41 45 41 46 43 41 36 33
59 59 58 58 58 57 57 57 58 58 57 56 56 55 54 54 54 52 53 54 51 38 24 34 40 39 41 44 45 48 49 53 50 43 45 44 48 46 45 47 47 49 43 43 42 36 29
59 58 58 58 58 58 57 57 57 57 57 56 56 55 54 54 49 54 53 50 37 29 36 34 36 41 43 41 42 44 42 43 39 33 33 40 42 46 47 42 46 41 37 32 31 30 33
60 58 58 58 57 57 57 57 57 57 57 56 55 52 51 54 55 53 51 46 30 35 36 42 41 41 39 41 42 42 41 37 40 39 36 31 33 43 48 45 42 41 36 31 26 31 35
59 58 58 58 57 57 56 57 57 57 56 55 52 52 53 53 53 53 51 33 31 36 42 40 41 39 37 39 42 41 38 37 41 41 35 33 35 46 47 48 46 39 35 42 33 34 32
58 59 58 58 57 56 56 57 57 57 56 52 51 51 50 52 52 51 44 34 37 43 44 44 37 41 37 38 39 38 40 45 41 44 46 41 34 45 45 47 46 40 42 34 34 28 28
59 58 58 57 57 56 56 57 57 57 55 51 51 49 51 51 51 51 35 37 42 46 45 42 41 41 42 39 41 40 41 46 48 45 46 42 39 40 44 41 38 40 36 36 36 35 31
58 58 58 57 56 56 56 56 57 56 54 52 49 42 51 51 45 44 41 41 43 44 46 44 44 44 43 42 41 41 41 45 51 49 40 45 40 34 41 50 52 46 38 36 33 31 36
58 58 57 57 56 55 56 56 56 56 53 51 47 45 52 51 42 42 42 42 44 44 44 44 44 46 47 43 40 43 45 50 50 47 45 46 40 33 38 45 47 43 41 37 39 38 35
58 58 57 56 56 55 55 55 55 55 54 52 50 42 50 48 45 46 43 41 42 46 45 46 45 47 46 43 44 42 44 48 49 49 48 49 43 38 36 40 43 39 42 40 40 33 39
58 58 57 56 56 56 55 55 55 55 53 53 47 40 41 41 44 43 43 42 41 42 46 47 46 43 42 41 42 42 44 46 49 48 48 47 39 38 43 44 43 41 41 42 37 40 38
57 58 56 56 56 55 55 54 54 54 52 48 46 44 42 42 41 41 41 42 42 42 44 44 45 45 46 43 43 40 42 44 43 48 46 46 39 39 36 42 42 39 44 44 43 42 43
57 57 56 56 55 55 54 54 54 53 52 47 42 45 47 37 41 41 43 42 43 43 46 47 46 45 43 47 50 51 50 50 48 44 43 42 41 38 36 40 40 38 44 44 45 46 46
57 57 56 55 55 54 54 54 54 54 50 49 45 45 46 42 42 43 40 40 41 43 41 46 46 44 48 51 48 46 45 44 45 45 46 42 40 37 33 38 31 43 46 48 46 47 49
57 57 56 55 55 54 54 54 54 54 51 48 44 45 43 43 43 41 40 42 43 45 43 43 48 49 51 49 46 44 44 43 43 44 44 45 42 38 33 35 45 43 44 44 43 46 49
56 56 57 55 54 54 54 54 54 54 51 48 45 45 45 43 43 44 43 43 44 44 44 45 49 50 50 46 44 38 40 39 39 40 43 41 43 40 35 31 33 44 46 49 48 41 49
56 56 56 55 54 54 54 54 54 54 52 49 46 45 45 42 44 43 43 43 45 42 43 43 45 46 47 45 41 39 38 38 37 36 36 37 38 35 37 35 42 48 48 49 38 44 49
56 56 55 55 54 54 53 53 53 53 52 50 46 45 46 42 44 42 44 42 41 43 43 44 44 42 43 40 40 41 38 40 36 40 40 41 39 37 37 33 31 48 45 43 50 50 50
55 55 55 55 54 54 53 53 53 53 53 49 47 46 46 43 45 44 46 47 48 48 47 42 42 42 46 42 41 41 39 38 37 37 39 36 44 41 41 44 47 49 51 52 51 50 51

GFSGBSN_sfc_temp_117.txt.gz
Temp
63 63 63 63 63 62 62 62 60 61 61 61 61 60 60 60 60 60 60 60 61 61 61 61 61 60 56 50 48 61 63 64 69 68 65 62 61 61 57 58 56 55 56 56 58 57 57
63 63 62 63 63 61 61 61 60 61 60 59 60 60 59 60 59 59 59 59 60 60 60 60 60 60 54 44 56 62 58 59 67 65 62 63 60 62 57 55 55 56 55 56 57 57 57
62 62 62 63 62 61 61 61 59 60 60 59 59 59 59 58 59 59 59 59 60 60 60 60 59 60 52 46 57 59 59 55 62 66 59 62 64 59 58 51 55 53 49 55 56 55 54
61 62 62 62 62 61 61 61 60 60 60 59 59 59 59 59 58 58 59 58 59 60 60 60 61 59 46 55 58 58 61 60 64 68 64 65 66 59 56 57 52 50 50 47 53 52 54
62 61 61 62 62 61 61 60 60 60 59 59 58 58 58 58 57 59 60 59 58 58 58 58 58 55 42 57 51 56 59 59 62 64 65 66 62 55 54 49 47 48 43 46 50 53 52
61 61 61 61 61 61 61 60 60 60 59 58 58 58 58 58 58 58 59 60 60 58 57 59 58 48 48 45 51 55 59 63 59 59 57 56 56 51 51 47 42 45 42 46 47 51 50
61 60 60 60 60 61 61 61 59 59 59 58 58 57 58 57 58 58 59 57 50 47 50 43 43 44 46 50 56 55 61 60 59 55 49 51 48 43 45 48 48 47 46 45 51 54 47
60 61 60 60 60 60 60 60 60 59 58 58 57 57 57 57 58 58 61 51 45 48 41 51 50 48 51 55 45 54 63 53 52 46 50 48 46 48 48 47 45 45 44 46 49 49 49
60 60 60 60 60 59 59 59 60 59 58 57 57 57 56 57 57 60 53 48 55 55 46 47 51 49 49 55 49 51 59 54 50 47 47 47 45 49 47 44 43 46 43 45 42 48 53
60 59 59 60 59 59 59 59 59 59 58 57 57 56 56 56 57 59 54 57 58 58 39 38 45 49 54 55 47 57 59 54 49 45 47 46 48 46 44 43 46 42 49 46 44 39 35
60 59 59 59 59 59 58 58 58 58 58 57 57 57 56 56 59 57 55 59 60 55 28 41 44 58 56 50 50 50 59 55 45 45 46 42 44 43 43 45 48 45 49 46 44 38 34
60 59 59 58 58 58 58 58 58 58 57 57 56 56 56 59 61 56 59 59 55 38 24 37 44 43 44 49 48 51 51 55 53 47 48 47 52 49 48 50 49 51 46 46 44 40 29
60 59 58 58 58 58 57 58 58 58 57 56 56 54 57 60 57 59 59 55 37 30 40 37 40 46 48 45 46 48 46 46 41 34 34 43 46 49 50 45 49 45 39 32 30 29 34
60 59 58 58 58 57 57 57 58 57 57 55 54 54 54 58 60 58 56 49 31 37 40 46 45 46 42 45 46 46 44 41 45 44 38 34 34 46 51 48 44 40 40 32 26 31 36
59 59 59 58 57 57 57 57 58 57 56 54 53 61 60 58 58 57 56 34 31 40 46 44 45 43 42 45 44 46 43 41 43 45 37 38 39 50 51 52 49 39 36 43 32 39 32
59 59 59 58 57 57 57 58 58 57 56 53 60 61 56 59 59 55 47 37 42 47 48 47 39 44 39 43 43 43 44 48 45 46 49 43 35 48 48 49 49 45 44 34 34 28 29
59 59 59 58 57 56 57 57 57 57 55 54 58 57 57 59 58 57 40 42 46 50 49 46 45 45 46 43 44 44 46 49 50 46 48 44 41 43 46 44 45 40 37 36 36 37 31
59 59 58 57 56 56 56 56 56 56 55 55 56 44 58 59 50 53 46 48 46 48 50 49 49 48 47 47 46 45 44 48 54 51 45 49 43 35 44 53 54 49 42 38 34 32 38
58 58 58 57 56 56 56 56 56 56 54 58 57 52 60 58 46 46 48 47 48 48 48 48 48 50 51 47 43 47 48 53 53 50 48 50 42 35 41 47 50 44 44 40 41 39 34
58 58 57 57 56 55 55 55 55 55 54 58 58 43 57 59 55 52 48 46 45 50 49 50 50 51 50 48 49 46 47 51 52 52 48 50 46 41 37 43 47 43 46 43 40 33 39
57 58 57 56 56 56 55 55 55 54 53 59 54 47 47 47 50 50 49 47 46 45 50 51 50 49 49 46 47 47 49 50 52 50 51 50 41 43 45 47 48 46 45 47 39 41 38
57 57 57 56 56 55 55 54 54 54 53 55 52 52 51 49 48 49 46 47 45 48 47 49 47 50 50 48 48 46 48 50 50 52 50 51 40 44 37 47 46 43 47 47 47 46 45
57 57 57 56 56 55 54 54 54 54 55 53 49 51 52 43 48 48 51 48 47 47 51 51 48 48 49 48 50 53 54 54 53 48 48 46 44 41 37 44 44 40 46 47 48 50 49
57 56 57 56 55 55 54 54 54 54 53 53 52 53 50 48 49 50 47 47 47 48 46 50 51 48 52 56 57 55 51 51 51 50 51 45 44 42 34 40 31 47 51 50 51 52 54
57 56 57 56 55 54 54 54 54 54 53 52 51 51 49 47 50 48 47 47 49 50 46 49 53 56 56 53 49 48 50 47 48 49 48 49 44 39 34 36 45 50 47 47 45 48 55
57 56 56 56 55 54 54 54 54 54 52 53 50 51 50 48 49 50 48 49 48 50 50 49 54 55 53 51 47 40 41 44 44 44 47 47 47 40 41 32 33 45 49 52 51 42 53
57 56 56 56 55 54 54 54 54 54 52 54 50 49 50 46 51 49 47 48 52 49 48 49 50 48 52 48 43 43 42 45 40 40 39 40 41 36 38 36 43 50 50 52 39 42 53
56 56 55 55 55 54 54 54 54 53 52 53 51 50 49 47 49 48 50 47 47 48 48 49 48 46 47 42 44 45 42 46 41 47 44 43 41 39 41 37 32 52 48 44 51 54 54
55 55 55 55 54 54 54 54 53 53 53 51 50 51 51 46 49 50 53 55 53 52 50 50 48 48 51 44 46 47 42 45 44 39 47 39 48 47 47 47 52 54 55 57 55 52 53

GFSGBSN_sfc_temp_120.txt.gz
Temp
63 63 63 63 63 62 62 61 60 60 61 61 61 61 60 60 60 60 60 61 61 61 61 61 61 60 59 50 48 59 63 65 68 67 64 62 58 57 52 55 54 50 54 57 56 55 54
62 63 63 63 62 62 62 61 61 61 61 61 60 60 60 60 60 59 59 60 60 60 61 60 60 58 57 43 56 59 58 61 66 64 62 62 59 60 54 53 50 53 54 53 54 54 55
63 62 62 63 62 62 61 61 61 60 60 60 60 60 59 58 59 59 59 59 60 60 60 59 58 58 49 45 55 56 56 54 62 65 58 62 62 57 56 49 54 51 45 50 52 53 51
62 62 62 62 62 62 61 61 61 60 60 60 59 59 59 60 60 60 59 59 60 60 59 58 61 56 43 55 57 55 55 55 64 66 63 63 63 57 55 54 51 47 44 38 48 50 50
62 62 62 61 62 62 62 60 60 60 60 59 59 59 59 59 59 59 58 58 59 58 59 59 54 53 43 56 51 55 57 57 61 63 63 66 61 52 52 43 41 42 34 40 43 53 50
61 62 61 61 61 61 61 61 60 59 59 59 58 58 58 58 59 58 59 58 59 57 58 60 57 48 49 44 51 55 61 64 59 57 56 55 51 45 45 40 31 35 36 41 39 47 47
61 61 61 60 60 60 60 60 60 60 59 58 58 58 58 58 59 59 58 54 48 46 50 44 45 45 46 52 56 56 63 60 59 55 45 50 42 36 40 45 45 44 41 38 45 50 43
61 60 60 60 60 60 60 60 59 60 59 58 58 57 57 58 59 60 59 48 45 49 41 51 50 49 52 55 49 56 63 53 51 44 48 43 39 46 49 47 45 43 39 39 45 49 46
61 60 60 60 60 60 59 59 59 59 59 58 57 57 57 57 58 59 53 49 56 55 45 49 52 50 51 55 49 50 58 55 49 46 46 40 44 49 48 43 43 42 38 40 38 45 48
61 60 60 59 59 59 58 59 59 58 58 57 57 57 57 57 56 58 53 58 59 57 36 38 46 50 55 55 47 58 58 53 49 44 45 43 48 47 44 44 44 39 47 45 44 35 25
61 60 59 59 59 59 58 58 58 58 58 57 57 57 57 57 56 55 55 59 59 52 22 42 45 59 56 49 50 50 59 55 44 45 44 39 42 42 43 45 47 42 48 44 42 38 34
60 60 59 59 58 58 58 58 58 58 58 56 56 56 56 58 58 56 59 58 53 35 22 38 47 46 47 50 50 52 52 55 53 47 47 45 50 47 47 49 48 49 43 43 42 36 23
60 60 59 59 58 57 57 58 58 58 57 56 56 55 58 61 52 58 57 52 34 27 42 38 41 48 47 46 47 49 47 44 39 33 34 42 44 48 50 44 48 46 38 22 28 24 22
60 60 59 59 58 58 58 58 58 58 57 55 55 54 55 59 58 57 53 43 28 37 40 47 46 48 42 46 46 47 45 40 44 44 37 33 31 44 48 47 43 41 37 30 23 24 27
59 59 59 59 58 58 58 58 58 57 56 55 54 56 57 57 58 55 47 32 32 40 46 44 45 42 42 45 45 46 44 41 44 45 36 35 37 49 50 51 47 37 35 41 30 31 28
59 59 59 58 58 57 57 57 57 57 56 55 56 56 54 59 58 52 42 36 41 48 49 48 40 45 40 42 43 42 44 47 45 47 48 42 35 46 46 47 46 44 43 32 33 23 23
59 59 59 58 57 56 57 57 57 57 56 55 54 52 55 59 55 51 36 40 46 51 50 46 45 45 46 44 45 44 43 46 49 45 47 44 40 39 43 40 40 39 37 36 35 32 26
58 59 58 57 56 56 56 56 56 56 55 53 52 39 56 57 46 48 40 47 45 49 51 49 48 48 46 46 44 42 43 46 51 50 44 46 40 29 39 49 51 47 40 38 30 30 32
58 58 58 57 56 56 56 56 56 56 55 51 50 48 57 54 41 41 46 47 49 48 49 49 48 49 50 46 40 45 46 50 51 48 44 45 37 27 32 40 45 40 42 40 38 38 29
58 58 58 57 56 56 55 55 55 55 55 50 50 38 50 53 52 47 44 44 44 49 49 50 49 49 48 45 47 43 45 49 50 49 49 47 40 35 27 34 42 37 41 40 37 31 35
57 58 57 57 56 56 55 55 55 55 55 49 49 42 44 41 44 46 46 45 44 44 48 51 48 48 46 42 44 43 46 48 49 49 46 44 33 35 40 43 43 41 42 41 35 36 34
57 57 57 56 56 56 55 54 55 54 55 51 46 45 46 44 46 44 42 42 45 47 47 47 45 48 47 43 42 40 44 43 42 46 43 45 32 36 32 42 42 38 42 43 44 42 38
57 57 57 57 56 55 55 54 54 54 55 49 48 48 46 42 44 40 43 46 47 47 49 50 47 45 45 48 47 48 48 47 46 42 42 41 35 30 27 37 36 30 39 42 43 45 43
57 57 57 57 55 55 54 54 54 54 53 50 47 47 44 41 42 45 46 46 46 47 44 49 48 45 48 53 51 50 47 47 46 45 46 38 37 33 26 30 18 38 44 43 42 46 48
57 57 57 57 55 55 54 54 54 54 54 50 48 46 44 39 45 46 45 45 47 47 44 46 50 51 51 47 41 40 39 39 42 43 43 43 37 29 24 24 35 40 41 40 38 39 46
57 57 56 56 56 54 54 54 54 54 53 51 47 47 45 40 41 47 44 46 41 42 45 46 50 50 46 43 40 30 30 34 33 35 42 43 40 31 30 24 26 37 43 46 44 31 44
57 57 56 56 56 55 54 54 54 54 53 50 46 47 44 39 45 44 42 42 46 43 41 44 45 43 45 39 34 33 30 37 31 30 29 31 31 28 28 26 34 43 45 46 30 34 46
56 56 56 56 55 55 54 54 54 53 53 50 46 47 44 40 43 46 47 43 43 42 40 43 42 41 40 35 36 36 34 37 32 38 36 33 30 28 30 27 25 45 42 38 43 44 46
56 56 55 55 55 55 54 54 54 54 53 51 46 49 48 41 43 47 48 50 47 46 43 44 41 42 43 36 37 37 34 36 36 30 39 33 40 36 36 35 45 46 45 48 49 46 44